GFSMW_925_thetae_000.txt.gz
Theta_e
351 351 353 353 353 354 356 357 356 356 358 357 353 353 352 352 351 351 355 354 353 353 352 350 350 350 349 346 344 341 340 336 339 336 336 339 339 338 337 335 329 331 333
352 353 354 353 353 355 357 358 359 358 358 355 354 352 352 351 352 353 354 354 354 353 352 351 351 350 344 345 342 340 338 337 338 338 337 337 340 338 336 332 327 327 327
354 354 353 353 353 354 357 359 360 360 359 353 354 356 355 355 354 354 355 356 356 356 355 354 350 349 341 335 340 339 338 336 341 341 338 337 337 334 336 336 329 327 326
354 354 353 353 353 353 356 359 361 361 360 358 355 356 355 352 349 351 349 353 356 355 354 352 350 342 337 339 339 338 337 339 336 336 338 339 339 337 336 333 330 328 326
352 354 353 351 352 353 355 357 360 361 361 359 359 358 358 352 350 350 353 354 354 354 350 351 346 341 338 341 340 338 339 337 336 334 335 337 334 335 333 332 330 329 329
349 351 350 350 351 352 353 355 358 362 362 362 361 361 357 355 350 352 351 347 347 349 350 351 346 340 337 340 339 338 338 337 337 336 337 332 331 331 331 330 330 330 328
348 349 351 351 351 352 352 354 357 361 362 362 361 361 360 358 356 355 351 346 345 345 347 351 346 340 340 339 337 337 336 337 336 337 335 334 333 332 331 331 331 331 330
348 348 350 350 351 351 352 354 355 359 361 361 361 361 361 359 358 356 350 347 344 341 342 350 344 340 339 338 335 334 334 334 334 335 336 334 334 332 332 331 332 334 330
349 347 349 349 350 351 353 355 357 359 360 359 360 361 361 360 355 354 355 350 348 341 346 346 343 338 339 336 335 333 334 332 333 332 333 335 331 330 331 332 333 332 333
350 347 348 348 349 351 352 354 356 358 359 358 359 359 360 360 358 357 356 350 350 347 344 343 339 338 338 335 336 333 333 333 330 329 330 333 331 331 331 332 331 330 331
350 349 348 347 349 349 350 353 356 357 359 358 358 357 357 357 359 358 359 356 352 347 344 343 337 337 337 336 336 335 332 333 332 331 333 335 336 333 330 330 329 329 329
349 351 350 348 348 350 349 351 353 356 358 357 359 358 357 356 358 359 358 352 349 343 342 341 339 337 336 336 336 335 332 332 332 333 334 336 334 334 333 332 332 330 330
349 352 352 352 351 350 351 351 354 355 355 357 358 358 356 357 357 357 352 348 343 329 333 322 330 336 337 336 337 337 335 333 332 333 335 335 335 333 333 332 330 329 329
351 353 353 354 353 352 355 355 353 354 355 356 358 358 357 356 357 353 346 344 330 326 328 326 323 334 339 337 337 336 336 333 332 334 335 336 336 334 333 332 332 332 331
351 353 354 361 362 357 356 355 355 355 355 356 357 358 358 357 352 348 344 339 321 327 324 326 328 332 339 337 336 335 334 334 334 335 336 336 337 334 331 330 329 330 329
351 353 355 357 359 357 357 356 356 355 356 357 358 358 358 354 347 345 341 334 323 328 325 328 331 334 336 333 332 333 334 335 337 337 338 336 333 334 331 329 326 326 327
351 352 354 355 357 356 357 357 356 356 356 358 358 359 357 352 346 344 343 338 334 331 332 334 335 334 336 334 332 331 332 335 336 338 336 334 331 332 333 333 330 327 327
350 351 351 354 353 353 353 353 354 355 356 357 358 358 354 350 347 344 344 340 336 334 336 337 336 335 335 337 336 333 334 336 338 337 334 330 330 331 332 332 330 329 329
350 350 348 350 351 349 350 350 352 353 355 356 356 354 352 348 347 346 344 343 339 337 339 339 338 337 337 339 336 334 334 336 336 330 329 326 325 331 329 327 328 329 328
347 348 345 347 347 346 347 349 351 353 355 355 355 352 350 349 347 346 345 342 342 339 339 339 338 337 338 337 332 331 333 334 328 328 328 329 330 329 326 324 327 326 325
348 346 345 345 346 345 347 349 350 353 353 354 353 350 349 350 348 346 344 343 342 340 341 340 339 338 334 336 334 330 332 332 331 329 331 331 327 323 321 319 323 324 322
345 343 346 349 348 348 349 351 352 354 354 354 352 349 350 349 349 346 343 341 341 341 340 339 340 337 338 336 336 332 330 329 331 333 330 328 326 318 317 315 318 317 315
344 342 347 350 351 352 352 354 358 356 355 352 350 349 349 347 346 345 342 341 340 340 339 339 339 337 337 335 331 329 327 329 331 330 327 323 318 317 315 313 313 314 316
346 344 345 349 353 353 354 356 352 353 353 352 351 348 349 347 344 343 342 342 342 340 339 339 338 335 335 334 328 326 327 327 325 323 320 319 318 317 317 316 314 316 316
346 344 346 350 352 352 352 351 351 351 351 350 349 347 345 344 345 342 339 341 336 336 336 335 333 332 334 334 332 328 327 326 325 323 322 321 321 320 319 318 317 315 314
348 349 349 351 352 352 351 351 350 350 349 346 346 345 345 345 344 339 332 332 331 328 329 332 332 332 331 330 327 325 323 321 318 317 320 320 319 319 318 317 314 312 311

GFSMW_925_thetae_003.txt.gz
Theta_e
350 349 350 350 350 350 353 355 356 356 356 356 356 355 353 353 352 350 354 358 355 355 354 353 351 350 350 348 343 341 337 338 338 335 337 339 339 338 336 332 331 332 332
349 350 350 350 350 352 353 356 357 358 357 357 356 355 353 351 350 350 352 355 353 352 353 353 350 350 348 347 344 341 338 337 338 338 336 341 341 339 336 334 329 328 329
348 351 351 351 351 353 354 358 360 360 359 358 356 356 355 354 354 351 354 356 356 355 356 355 354 353 347 334 343 340 339 336 340 338 338 339 345 340 337 337 332 329 328
348 349 352 352 352 352 355 357 361 361 361 359 357 356 354 351 347 347 347 352 357 355 355 355 351 351 338 342 339 338 339 339 336 336 337 337 338 340 340 336 334 331 329
349 349 351 352 352 352 354 357 362 363 362 361 358 355 354 349 350 347 351 352 358 353 351 350 352 348 338 340 340 339 340 341 337 335 334 338 334 335 333 333 333 330 330
348 351 349 350 351 352 354 356 363 365 364 363 360 357 356 353 348 348 352 351 349 352 349 348 351 346 337 340 340 339 340 339 339 337 337 335 332 333 332 331 330 331 330
349 350 352 352 352 353 354 356 361 367 366 364 362 361 359 356 355 355 353 349 345 346 352 349 353 346 341 340 339 339 340 338 338 338 337 334 334 333 332 331 331 333 331
351 348 351 353 354 353 356 357 360 366 367 364 364 363 362 358 355 354 353 349 347 345 347 350 350 347 340 340 339 337 336 336 337 336 336 336 335 335 333 332 334 336 333
350 350 348 350 352 352 355 357 360 364 366 362 366 365 363 361 354 353 353 354 349 345 343 347 347 345 340 341 339 336 336 335 335 334 335 335 333 331 331 332 331 333 335
350 350 348 349 350 351 353 357 359 364 363 362 365 364 363 363 360 357 356 353 350 347 345 348 347 343 339 341 338 336 336 335 334 332 331 333 332 331 331 333 332 330 329
348 350 348 347 348 349 351 354 357 361 363 362 361 361 361 361 361 359 356 355 351 352 346 347 344 340 340 340 339 337 337 337 337 335 332 333 335 334 332 330 331 329 329
346 349 349 348 347 349 348 350 353 355 360 362 363 362 361 360 360 359 358 357 354 352 347 345 344 338 339 338 339 338 336 335 335 334 334 335 335 337 337 334 333 333 332
343 348 349 351 350 349 349 348 351 351 354 360 362 362 360 361 360 360 359 359 357 352 346 344 343 337 337 338 338 338 338 336 334 334 334 335 336 336 335 335 334 332 332
347 347 350 353 353 351 351 350 350 349 352 356 357 361 362 361 360 360 359 358 355 350 343 341 339 337 338 339 339 338 338 337 336 334 335 336 337 337 336 336 336 335 335
346 351 352 359 360 356 355 353 351 351 352 356 357 361 363 360 359 360 360 356 352 348 340 338 336 336 338 339 340 338 337 338 337 334 335 337 337 337 336 335 333 332 332
337 350 354 356 364 360 359 357 356 356 356 360 360 362 365 362 360 360 359 353 350 345 338 335 334 336 335 334 336 337 336 336 336 336 337 337 339 335 332 330 332 331 329
340 345 353 356 360 357 360 360 360 357 359 361 363 365 366 363 360 359 355 351 347 344 338 335 336 336 338 334 335 333 335 334 335 335 337 339 336 334 334 330 328 327 330
341 342 350 355 358 356 356 356 358 361 363 364 364 365 366 362 357 353 351 349 349 346 341 337 335 336 338 335 333 331 332 332 333 335 337 338 337 335 329 329 328 331 333
340 343 350 352 359 358 359 360 360 362 363 363 365 365 365 360 355 352 350 350 350 349 342 338 337 339 339 336 333 333 334 334 335 336 337 338 334 329 327 327 329 331 331
340 347 350 353 358 359 358 360 358 360 363 362 363 364 362 357 354 350 349 350 351 349 343 340 340 342 342 340 336 335 335 334 333 335 338 333 328 328 329 330 330 331 330
350 352 352 358 358 356 354 358 357 358 357 358 360 361 358 353 351 350 350 349 349 345 341 340 342 343 342 340 337 336 334 332 333 335 334 330 329 329 327 326 326 328 327
351 350 354 355 352 353 355 357 358 357 357 358 358 356 353 352 352 350 349 347 345 345 344 343 344 343 342 338 337 334 334 333 334 333 332 333 333 327 325 323 320 319 319
351 348 349 353 350 352 354 359 360 359 359 359 356 353 352 352 353 351 350 347 346 344 344 344 342 341 340 339 337 336 336 331 331 331 330 329 326 323 321 320 316 314 316
348 347 349 354 356 353 354 359 359 359 359 356 353 351 352 351 350 350 347 344 342 343 343 343 343 342 340 338 336 333 331 329 328 326 326 323 321 320 320 318 318 316 317
345 346 349 352 354 355 358 356 358 358 355 353 352 354 351 350 349 344 343 344 343 341 342 341 340 340 337 337 335 331 330 330 329 328 327 324 324 323 322 321 319 319 318
346 348 348 351 353 354 355 354 355 355 355 353 353 351 349 350 346 340 333 334 333 332 333 334 334 334 333 333 333 332 329 326 325 325 323 322 322 321 320 320 319 317 315

GFSMW_925_thetae_006.txt.gz
Theta_e
349 348 348 349 349 352 354 355 354 355 359 360 357 355 354 354 351 349 350 353 356 354 353 353 351 351 349 348 345 341 339 338 338 335 337 339 338 336 335 331 331 330 333
348 350 350 349 350 351 353 357 357 357 355 358 357 356 355 352 353 355 353 353 353 353 352 350 350 351 350 348 346 342 340 338 338 336 339 344 342 338 336 331 329 329 330
346 352 352 350 351 352 355 357 359 359 359 357 357 356 355 356 354 354 353 357 355 354 353 354 353 350 345 343 344 341 340 338 341 337 340 346 348 341 339 334 331 329 329
347 349 353 353 352 352 354 358 360 360 362 356 359 357 356 356 353 354 352 354 353 355 353 352 352 352 343 340 340 339 337 340 340 341 337 336 335 343 343 338 333 330 329
346 347 352 352 352 353 356 358 362 362 363 361 359 358 357 353 348 346 350 354 354 354 355 353 352 349 339 339 340 340 334 342 336 337 339 340 338 332 337 340 334 333 330
348 348 350 351 353 353 357 358 364 365 364 364 358 359 355 354 353 353 352 355 355 354 351 350 349 347 338 343 341 339 340 338 341 338 337 336 338 336 339 338 335 335 332
350 350 351 354 354 354 356 359 363 366 366 365 363 357 358 352 355 354 355 355 351 355 351 347 351 348 341 340 340 341 340 339 338 337 337 337 332 334 332 333 334 335 331
350 350 352 353 355 354 356 359 363 366 368 365 365 362 358 357 356 356 352 354 348 347 351 347 350 349 344 340 340 339 338 338 338 336 336 336 336 333 333 334 333 337 335
352 351 353 353 355 355 356 358 364 367 369 368 367 366 362 360 359 357 355 354 349 349 351 350 351 349 344 341 340 338 337 339 338 337 336 333 334 335 334 332 333 332 338
352 352 351 355 354 355 355 358 360 367 369 368 368 367 366 362 359 354 354 352 354 348 346 350 348 350 344 342 341 338 339 337 335 335 335 336 336 334 333 331 331 332 333
350 350 352 351 354 356 356 358 360 365 368 369 367 367 366 365 360 363 360 356 352 350 347 344 349 348 347 342 342 338 337 336 336 334 333 333 335 334 334 335 333 331 329
345 349 352 351 353 354 355 357 360 363 366 367 367 367 367 366 365 361 363 357 359 353 347 348 349 349 345 343 342 338 338 340 338 339 337 334 335 335 334 334 335 333 333
350 349 351 352 352 352 353 356 358 361 365 366 366 366 366 366 366 365 361 361 358 355 354 349 351 347 343 343 340 339 337 338 335 335 335 334 335 336 336 337 335 334 335
356 351 351 354 352 352 353 354 357 358 362 364 364 365 364 365 364 364 363 361 360 358 357 353 351 348 342 341 341 341 340 338 336 337 335 335 337 336 336 334 334 335 335
353 354 356 357 355 354 353 353 353 354 356 361 364 365 365 364 364 363 363 362 362 361 359 354 350 347 341 342 342 341 340 339 339 339 336 334 336 337 336 336 335 335 333
344 355 356 362 364 357 354 352 352 352 353 356 361 363 364 366 364 363 364 363 364 362 359 351 347 344 340 339 338 341 341 339 339 339 337 335 338 336 333 333 332 330 331
343 348 358 358 360 359 355 353 352 353 353 357 359 360 364 367 365 364 363 364 363 359 355 349 344 342 339 339 338 341 340 337 338 339 336 335 335 336 335 334 333 329 328
342 343 339 357 358 358 356 355 354 354 354 362 361 362 365 368 366 364 364 364 361 357 353 348 341 338 339 336 336 334 338 335 337 337 334 334 334 337 337 335 332 328 329
346 343 338 343 356 357 356 360 357 356 363 361 366 365 370 369 367 365 363 361 358 355 352 348 340 339 339 338 337 334 334 333 334 332 331 334 336 338 332 332 329 329 329
337 348 345 346 360 360 358 360 363 361 360 365 367 369 371 368 364 361 357 355 353 352 352 349 342 340 340 340 338 335 333 333 334 332 333 334 334 335 332 329 330 333 331
342 344 352 360 363 361 361 362 363 365 363 367 368 371 369 365 359 355 352 350 352 354 351 345 342 340 337 342 341 338 334 336 336 334 333 334 335 332 329 329 328 328 328
345 352 369 369 365 363 365 367 368 366 367 367 368 369 363 358 354 352 351 352 350 348 345 342 341 343 342 342 341 339 337 336 336 334 335 334 333 332 330 326 323 322 320
355 353 363 366 363 364 364 366 365 363 364 365 366 363 357 354 352 353 350 348 348 347 346 345 346 343 342 342 340 339 336 334 334 333 335 332 329 329 326 323 320 320 319
359 357 359 363 365 362 362 364 363 363 363 364 359 355 354 354 354 353 350 349 348 347 346 346 343 342 341 341 339 338 336 335 333 330 330 328 326 325 323 322 320 319 318
358 359 362 364 364 366 363 363 364 364 361 357 354 353 352 352 353 348 347 345 343 343 345 342 341 343 342 341 338 337 334 332 330 330 328 325 324 324 323 321 321 321 320
353 356 358 359 358 360 360 361 361 358 356 354 352 353 351 350 342 338 335 340 340 338 337 336 340 338 335 337 337 333 331 331 331 328 330 327 326 326 324 323 322 320 319

GFSMW_925_thetae_009.txt.gz
Theta_e
345 349 350 349 350 351 351 352 352 357 356 353 353 354 354 356 353 349 351 353 351 351 352 349 351 352 349 346 345 341 337 337 339 336 338 337 338 336 333 331 330 333 334
345 347 348 349 351 352 353 352 351 354 357 355 354 353 355 354 352 349 347 351 352 353 350 349 348 349 351 347 345 340 337 338 337 335 339 338 340 337 332 330 329 330 333
345 346 347 348 349 352 354 353 351 350 358 357 357 354 354 353 354 354 353 354 353 350 351 350 350 350 348 347 345 338 335 337 340 337 338 338 338 339 335 330 329 328 328
345 346 347 348 349 353 353 354 353 352 354 357 357 357 356 355 354 355 353 352 354 353 353 352 352 351 344 342 340 341 339 339 338 341 335 334 334 336 337 333 330 329 328
343 346 348 348 349 350 353 356 355 354 356 355 356 356 355 353 354 355 354 352 357 355 355 353 353 351 344 336 339 338 333 339 337 339 339 338 337 332 334 334 335 329 329
342 346 348 349 349 352 354 356 359 358 359 358 357 357 356 354 354 351 352 354 356 352 350 352 351 351 345 337 340 339 332 341 341 338 336 337 337 336 337 330 332 333 332
342 342 347 349 349 352 354 359 360 361 361 360 357 359 358 355 352 349 354 356 353 354 354 354 352 349 343 339 339 337 338 338 339 334 336 338 333 333 332 332 331 330 331
343 343 347 348 350 351 355 358 361 361 362 362 360 356 359 356 352 355 356 354 353 354 352 351 348 347 344 340 338 340 337 339 335 340 335 337 336 334 332 332 331 329 332
343 344 345 348 350 351 357 357 363 363 363 364 363 361 357 357 356 353 353 355 353 355 352 349 348 349 348 338 340 339 337 340 337 335 333 334 335 335 335 335 334 331 329
342 345 345 348 351 352 355 358 361 364 365 363 364 363 361 357 356 355 350 357 351 348 349 350 347 350 348 342 340 339 336 337 339 337 336 333 333 333 335 333 333 332 331
344 345 346 348 351 352 355 357 361 364 365 366 365 364 362 360 357 357 353 355 355 350 350 349 349 350 348 343 341 340 337 338 336 335 334 334 334 335 333 333 334 332 334
342 346 346 348 352 353 353 357 363 364 365 366 366 365 364 363 361 357 358 356 355 353 351 349 348 349 349 345 341 341 339 336 339 335 335 334 332 335 333 333 334 336 335
346 347 346 350 352 353 353 356 361 366 366 367 366 366 365 365 364 360 359 360 354 354 352 348 347 348 347 347 343 341 340 338 339 336 336 335 335 332 334 335 336 336 334
344 346 347 350 351 353 354 354 358 364 366 368 367 366 365 365 365 364 359 362 362 358 354 351 346 346 347 346 344 343 342 336 338 338 339 338 334 333 336 336 335 334 333
346 344 348 347 350 352 353 354 356 358 364 366 366 365 365 365 365 365 364 360 362 360 359 353 350 349 348 347 344 342 341 336 338 338 338 337 336 336 336 335 335 334 328
349 346 347 347 347 349 351 353 355 357 360 364 365 364 364 364 365 365 364 364 360 361 359 357 354 351 350 346 343 342 341 337 340 338 337 337 334 335 336 337 334 333 334
344 346 346 353 347 349 350 352 354 356 358 361 363 363 362 364 363 364 363 364 363 362 361 359 356 353 350 345 342 342 340 340 339 338 338 339 335 335 336 336 333 332 331
337 342 347 347 356 350 350 351 353 355 356 357 361 362 363 362 364 364 363 364 364 363 362 361 357 353 349 343 340 339 339 340 340 340 338 339 337 335 334 333 334 334 332
330 332 338 348 352 354 351 350 351 353 353 354 356 360 361 364 365 364 364 364 364 362 360 358 354 347 344 342 339 335 337 339 340 338 337 337 335 332 333 332 331 331 331
329 328 338 337 353 354 353 351 350 352 351 352 355 358 360 362 365 364 364 364 363 359 356 353 350 346 341 338 336 335 335 335 335 335 335 334 331 333 332 331 332 330 328
341 332 339 343 352 355 354 352 351 351 353 351 359 361 363 367 365 364 364 360 357 356 353 352 350 343 339 337 338 337 337 336 333 332 333 332 330 332 333 332 329 328 329
344 362 350 354 355 358 358 357 354 354 356 362 368 370 367 363 364 362 359 357 353 352 353 350 344 341 339 340 340 339 339 336 335 336 336 334 335 333 332 330 328 325 323
358 362 363 365 368 362 362 366 368 363 366 370 366 361 361 361 358 354 351 350 351 347 344 343 343 343 342 342 341 341 340 335 336 336 334 333 332 330 328 328 326 322 319
357 360 362 361 363 366 366 367 367 367 368 364 359 356 355 353 352 351 351 350 348 347 345 344 343 343 343 342 341 340 339 336 335 334 333 332 329 327 326 324 323 320 319
358 361 361 364 364 364 365 364 365 365 360 357 355 353 353 353 351 348 348 348 347 347 346 346 344 341 342 342 340 339 338 336 335 333 328 325 324 323 323 322 322 321 321
341 358 360 361 362 364 363 362 361 359 354 353 352 353 350 344 342 340 338 341 342 343 344 342 340 340 341 340 339 337 333 330 329 329 327 326 326 326 326 325 325 322 322

GFSMW_925_thetae_012.txt.gz
Theta_e
347 348 347 348 349 352 354 355 355 351 350 352 354 351 351 350 348 354 351 350 352 351 350 349 350 351 351 349 346 342 337 337 338 338 336 338 337 333 334 330 333 334 334
348 347 347 348 349 352 354 355 354 352 352 352 352 350 350 350 347 354 352 349 351 350 349 349 350 351 350 349 346 343 333 337 339 334 337 335 339 335 330 329 333 335 334
347 347 347 348 350 352 353 353 354 354 353 353 349 351 351 350 354 354 352 351 350 351 351 352 349 348 350 350 345 343 333 338 339 337 338 336 336 338 332 328 329 329 329
345 346 348 348 349 351 352 352 353 354 355 355 353 353 353 354 355 354 352 352 352 351 353 350 348 347 349 347 345 339 333 337 337 339 334 336 338 334 337 330 329 328 327
344 344 347 348 348 350 352 352 351 354 355 356 354 354 353 352 352 352 352 353 352 354 352 352 350 349 348 342 341 338 339 338 336 338 337 334 334 333 333 332 332 328 328
343 343 345 347 348 349 351 352 351 352 354 356 356 356 355 354 352 352 353 354 354 353 353 352 352 352 348 341 338 337 336 338 337 338 338 338 335 334 333 328 330 331 330
343 343 344 345 346 347 351 353 353 352 354 357 357 356 355 355 353 352 352 355 354 354 354 354 352 350 349 342 335 339 338 337 339 337 336 336 334 333 332 330 328 327 331
342 343 343 345 345 347 351 353 354 354 355 355 356 355 355 354 353 352 352 352 353 355 354 351 352 349 349 344 336 338 335 334 337 338 334 336 335 332 332 331 330 326 329
340 342 344 345 346 347 350 353 356 355 356 356 355 355 355 355 355 354 355 351 352 353 352 351 353 351 349 344 335 336 337 335 337 334 337 335 336 335 335 335 333 329 326
340 341 342 345 347 347 351 354 356 356 357 357 356 355 356 356 356 355 353 356 355 354 352 353 353 351 348 345 339 337 337 335 338 335 335 333 332 332 334 334 333 332 330
342 340 341 345 347 348 352 355 356 356 358 359 358 358 357 355 358 357 355 353 354 352 352 353 351 349 347 347 341 337 337 335 337 337 337 336 333 333 334 333 333 334 333
341 341 341 343 346 349 352 354 357 357 358 359 359 359 359 358 356 356 355 355 354 355 353 354 352 349 348 348 344 341 338 336 335 336 338 337 333 334 334 335 333 335 335
337 338 341 343 345 349 351 354 357 359 359 360 360 361 360 360 359 357 356 354 354 353 353 349 350 350 349 349 346 342 339 338 336 337 337 334 334 335 333 334 333 334 335
337 338 342 343 346 349 351 354 356 360 360 361 361 361 362 361 360 358 356 356 355 355 355 352 350 349 348 349 347 344 341 339 339 336 336 336 335 334 334 332 335 335 335
340 339 343 344 347 350 350 353 356 359 361 362 363 362 362 362 362 360 358 357 356 356 356 354 352 350 349 348 348 346 343 340 340 338 337 338 337 338 337 333 335 335 334
340 342 343 346 348 349 350 352 355 360 361 362 363 363 363 363 363 363 361 359 358 359 359 355 352 350 349 347 347 346 345 342 341 339 335 337 337 337 336 333 335 334 335
341 343 344 347 347 350 351 351 355 359 362 362 363 363 363 363 363 363 363 362 359 359 360 358 355 352 350 348 347 346 346 343 342 339 333 336 337 337 336 334 333 333 333
334 343 344 344 347 350 351 352 352 356 361 362 363 364 363 363 362 363 363 362 362 359 359 359 359 357 353 351 349 347 344 343 341 338 334 337 338 338 335 334 333 333 331
330 330 339 344 345 347 350 352 352 354 356 359 361 362 363 362 362 362 362 361 362 360 360 360 358 356 337 351 349 343 342 342 341 338 337 338 339 337 333 334 333 330 329
326 327 330 342 350 346 348 350 351 353 354 356 358 361 362 361 361 361 361 361 362 361 361 361 358 341 343 349 348 345 340 340 340 339 340 340 338 336 334 332 330 330 329
333 329 326 329 342 350 347 347 350 352 353 355 356 358 361 361 360 362 361 362 361 361 360 356 356 349 352 349 347 342 337 335 337 338 337 335 335 334 332 332 331 331 330
339 351 329 328 334 343 349 347 348 350 351 353 354 354 358 359 361 362 361 361 360 357 352 351 350 349 350 347 342 339 337 334 335 336 335 332 334 334 332 331 330 329 326
352 356 354 348 356 347 350 349 348 348 349 350 353 355 358 360 361 360 358 355 354 351 350 348 346 345 344 341 338 338 337 336 337 336 335 335 334 332 331 329 328 326 323
340 339 344 355 358 359 353 350 349 349 352 359 362 361 359 357 357 355 354 350 349 347 345 344 342 342 340 339 339 339 338 337 336 335 335 333 332 330 328 327 325 323 320
334 333 332 331 329 354 363 361 360 363 363 360 359 356 353 353 348 348 347 347 347 349 346 344 344 341 342 342 341 341 340 340 338 334 333 331 328 326 325 323 322 321 320
333 329 328 327 328 330 337 363 363 360 357 354 354 351 340 335 336 338 341 346 347 346 345 344 343 341 341 341 341 340 339 338 335 332 330 327 325 324 324 323 323 323 322

GFSMW_925_thetae_015.txt.gz
Theta_e
349 349 348 347 348 349 350 351 351 352 352 352 353 352 354 353 351 351 350 350 351 350 350 350 348 349 348 349 348 344 339 335 337 338 336 337 335 334 333 334 335 333 334
351 349 349 348 347 349 351 351 351 352 351 352 352 352 353 352 351 349 352 351 350 351 351 351 348 349 350 350 347 344 338 335 338 333 335 333 337 332 330 333 332 332 335
352 351 348 348 347 349 352 352 352 352 351 351 351 352 351 350 350 350 349 352 351 352 350 350 349 349 350 350 348 343 340 335 337 336 336 334 335 335 331 332 333 331 331
348 348 348 346 347 348 351 352 353 352 352 351 350 351 351 350 351 350 348 353 352 351 351 350 350 349 349 348 349 344 338 336 338 338 335 336 338 332 331 329 328 328 328
347 347 346 346 347 348 350 352 353 353 352 350 351 351 350 349 349 349 349 352 352 351 350 350 351 348 346 348 348 344 337 334 337 339 335 334 333 335 332 328 329 328 327
346 346 346 346 347 348 350 352 352 353 352 351 351 352 351 351 351 349 351 353 352 352 351 352 352 349 348 347 345 342 338 336 336 337 338 335 334 332 331 327 328 328 329
344 344 344 345 346 348 350 351 350 353 353 353 353 352 352 352 352 350 351 351 352 352 353 353 352 351 350 349 342 339 336 334 336 336 337 337 334 333 333 330 327 327 330
341 342 343 343 346 347 349 350 350 351 354 354 353 353 353 352 352 353 351 350 351 352 354 353 353 352 351 349 343 337 336 337 336 337 336 336 334 332 331 330 329 325 327
341 342 342 342 344 346 347 350 350 350 353 354 354 354 354 353 353 353 352 351 350 352 354 352 353 353 352 350 346 338 337 337 333 337 337 334 335 334 333 332 331 327 325
339 341 341 342 343 345 346 349 351 350 350 352 354 354 354 354 354 353 353 352 350 352 351 352 353 352 351 349 347 339 336 335 334 334 333 336 334 335 334 334 333 332 329
339 339 340 341 342 344 345 348 351 351 351 351 353 353 354 354 354 354 353 351 351 352 351 351 354 350 351 350 347 340 336 336 334 336 334 334 333 332 332 334 333 333 331
340 338 338 339 342 344 345 348 350 352 351 352 353 353 353 354 354 354 353 351 353 353 354 353 353 351 351 352 349 343 340 336 335 333 336 335 336 335 333 333 334 333 333
338 338 338 337 341 344 345 348 350 352 352 353 354 354 354 353 354 354 354 353 353 354 353 353 352 351 352 351 349 345 344 339 336 333 333 335 336 336 333 334 335 333 334
338 337 336 336 341 344 346 348 351 352 353 354 355 355 355 355 354 354 354 354 354 354 354 353 353 352 352 351 349 346 346 342 339 335 334 334 335 334 333 334 332 332 333
335 336 338 339 340 343 346 349 351 353 353 354 356 356 356 356 356 355 354 354 354 354 353 354 353 353 352 351 349 347 347 345 342 338 337 335 335 335 335 334 335 334 335
332 333 338 339 340 342 346 348 351 353 355 355 356 356 357 358 358 357 356 355 354 354 354 353 352 351 350 349 348 348 346 346 342 341 339 338 336 336 337 336 337 335 334
328 333 334 335 340 343 346 348 351 352 356 356 357 357 357 359 359 358 358 356 355 355 354 353 352 352 352 352 350 349 347 345 343 343 340 338 338 335 337 337 337 335 333
328 333 335 336 340 344 346 347 350 353 356 357 358 359 359 359 359 360 359 358 356 356 355 354 354 353 353 353 352 349 341 340 343 344 343 341 339 334 335 337 336 334 334
325 330 337 339 342 344 347 348 349 352 356 357 358 359 360 360 360 360 360 360 359 356 356 355 356 356 354 355 354 350 337 341 343 344 343 341 339 334 337 337 334 333 333
322 328 336 340 342 344 347 348 349 352 356 358 358 359 360 360 360 360 360 360 360 357 356 357 357 357 356 356 353 342 345 342 344 343 341 340 338 338 339 337 334 333 330
329 330 325 335 341 344 347 348 349 350 353 356 358 359 360 361 360 360 360 361 360 359 358 357 356 357 356 354 350 341 345 345 343 341 340 339 339 339 336 335 333 332 330
346 351 350 345 347 335 343 347 348 350 350 353 354 358 359 361 360 360 360 360 360 359 358 356 352 352 354 352 345 349 346 344 340 338 337 337 337 334 333 333 331 331 330
333 333 333 337 337 356 349 343 345 348 350 351 352 354 357 359 359 359 360 360 360 358 354 349 345 345 348 349 349 346 343 340 337 335 335 334 333 334 333 331 330 329 327
332 330 329 328 327 332 345 349 352 350 346 349 351 353 355 358 359 359 360 360 358 356 352 348 345 341 344 348 343 342 340 337 335 335 335 334 334 332 330 329 327 326 324
330 329 328 327 327 330 336 337 339 349 346 347 349 351 354 358 359 358 359 358 354 352 348 345 344 342 341 343 341 339 337 336 335 336 334 332 331 330 327 326 325 323 321
332 331 331 329 330 336 342 344 343 338 346 353 356 357 357 341 336 337 337 346 346 347 346 339 337 344 344 341 339 339 338 337 336 334 332 331 331 329 325 323 322 321 321

GFSMW_925_thetae_018.txt.gz
Theta_e
348 348 348 349 348 350 350 350 350 349 348 347 349 349 352 352 348 351 349 350 349 350 350 349 349 348 347 348 348 345 341 334 337 337 336 336 334 334 334 337 335 332 334
349 349 348 348 348 349 349 350 350 350 351 350 349 350 351 351 352 351 348 348 349 349 350 350 350 349 349 348 349 345 340 333 337 333 334 339 337 332 331 334 334 333 332
350 349 348 347 347 348 348 349 350 350 351 351 350 350 351 351 353 352 350 350 350 350 350 350 351 349 348 349 350 346 341 333 337 335 334 337 341 333 330 333 334 333 330
350 349 348 348 347 347 348 349 349 350 350 351 351 350 351 351 351 352 351 349 350 350 350 351 351 349 349 348 349 348 343 333 336 337 335 336 336 338 338 329 331 329 328
351 350 349 348 348 346 347 349 350 350 350 350 351 350 350 350 350 350 350 349 349 350 350 350 350 349 350 347 347 347 344 336 336 337 335 333 335 334 332 332 328 328 327
349 348 349 349 348 347 346 348 350 350 350 350 351 350 349 349 349 349 348 348 349 350 352 350 350 350 350 347 345 348 344 338 333 337 337 333 332 331 332 332 329 329 328
348 347 346 347 348 346 346 348 350 351 351 350 350 350 349 349 349 350 348 349 349 351 351 351 351 351 351 349 347 346 343 338 334 334 336 337 336 333 331 331 328 330 330
347 347 346 345 346 346 346 348 350 350 351 350 350 350 350 349 350 350 349 349 346 347 350 350 351 352 352 350 349 346 342 336 334 334 335 336 336 333 332 331 329 330 328
343 344 345 345 345 346 346 348 349 350 351 351 350 350 350 350 350 350 350 350 348 348 348 349 351 352 352 351 350 347 341 336 336 335 336 335 335 334 331 331 329 328 331
338 341 342 343 344 345 346 347 349 349 350 351 351 351 351 351 351 351 351 351 351 350 348 350 352 353 352 352 351 348 344 338 336 335 334 337 335 335 334 334 333 332 328
337 338 340 341 342 343 345 347 349 349 349 351 352 352 352 352 351 351 352 351 351 351 351 349 351 352 352 352 351 350 346 340 336 335 333 334 333 334 334 334 333 333 331
336 337 338 339 340 341 343 345 348 349 349 349 352 352 352 352 352 352 352 351 352 352 351 349 351 351 351 352 351 350 347 342 337 334 334 334 333 333 332 331 332 333 332
335 336 336 337 339 341 342 344 346 348 349 349 350 352 352 352 352 352 351 352 352 351 351 350 350 351 350 352 351 350 349 346 340 337 334 333 335 334 335 333 333 333 333
330 331 335 336 338 340 342 343 345 347 349 349 349 350 352 352 352 352 352 351 351 351 351 351 351 352 353 352 351 350 350 348 344 341 337 333 334 335 335 334 332 334 333
329 334 335 336 336 340 342 343 344 347 349 350 350 350 351 351 351 352 352 352 351 351 352 351 352 352 352 352 351 350 351 350 347 343 341 337 334 333 335 334 333 333 332
329 333 335 336 338 340 342 343 345 347 349 350 350 351 352 352 352 352 352 352 352 352 352 351 351 352 351 351 351 351 350 349 346 343 342 340 337 335 335 336 335 334 334
326 331 333 336 337 339 342 344 345 348 349 350 351 352 353 353 354 353 352 352 352 352 352 351 351 351 352 352 351 352 352 350 345 343 344 344 341 338 337 336 337 337 337
322 326 328 332 333 337 340 343 345 348 351 351 351 353 354 354 354 355 354 353 352 352 352 351 351 351 351 351 351 351 351 348 346 345 346 345 344 342 338 337 336 337 336
319 322 326 329 333 335 339 342 346 349 351 352 352 353 354 355 355 356 356 355 354 353 353 352 351 351 351 352 351 350 348 346 345 346 342 341 343 343 341 337 336 336 334
320 324 328 334 335 337 341 344 346 349 350 353 354 354 355 355 356 357 356 356 356 354 354 352 352 353 352 352 352 351 347 344 344 338 338 342 344 343 340 336 337 335 333
346 325 329 329 332 340 344 345 346 348 350 352 354 355 356 357 356 357 357 358 357 356 355 354 352 353 353 351 352 350 346 345 342 342 345 343 342 340 338 338 338 336 334
346 346 345 347 349 340 344 345 345 347 349 352 354 355 356 357 357 358 358 358 359 359 357 355 354 353 352 352 353 352 348 349 338 345 345 342 339 338 338 336 335 334 332
332 330 330 333 338 347 345 344 347 348 346 349 352 356 356 357 358 359 359 359 359 359 357 355 355 352 347 353 353 351 348 341 346 346 341 338 338 336 334 333 332 332 331
330 328 327 328 329 335 337 336 337 350 354 347 347 351 355 357 359 359 359 359 360 359 357 357 354 348 343 348 348 346 345 345 343 337 335 335 333 332 332 332 331 330 329
329 329 328 327 329 336 338 338 335 337 339 353 349 346 351 355 358 359 359 359 359 359 358 356 349 344 341 338 340 343 342 339 335 334 334 333 333 331 330 329 328 327 324
336 338 339 339 337 338 334 333 335 335 335 337 349 348 348 352 357 346 346 358 359 359 357 351 345 343 340 339 336 339 342 338 334 334 330 330 330 331 328 326 324 323 323

GFSMW_925_thetae_021.txt.gz
Theta_e
349 349 349 349 350 351 352 352 351 350 350 349 348 347 347 347 349 349 347 350 350 350 351 352 348 348 350 349 348 347 344 339 339 339 340 340 337 335 339 340 339 337 339
351 350 349 350 350 351 351 352 352 351 350 349 348 348 348 349 352 351 349 350 349 349 349 350 352 349 351 348 349 346 343 338 339 339 339 340 338 336 334 338 337 337 334
352 351 350 349 350 350 352 352 352 351 351 349 350 351 352 353 353 353 353 351 348 348 348 349 352 350 351 351 350 348 344 342 340 336 338 339 338 339 336 336 336 336 334
352 351 351 350 350 351 351 351 352 352 353 352 351 351 351 351 352 352 353 353 349 349 349 349 350 350 352 352 351 349 346 342 339 340 338 338 341 339 340 335 335 333 332
353 353 352 350 350 350 351 351 351 351 352 352 352 353 352 351 352 352 353 353 352 350 350 349 350 351 352 351 352 348 347 343 339 339 339 339 339 340 339 340 334 333 332
352 352 351 350 351 350 350 350 351 351 351 352 353 353 353 352 352 352 352 353 353 352 350 350 350 350 352 350 351 347 347 344 338 339 340 338 337 337 339 340 337 335 333
353 353 354 353 352 351 350 349 351 352 352 352 352 353 352 353 352 352 352 351 352 352 352 349 351 352 350 350 350 346 347 345 340 335 339 340 338 337 336 336 338 337 335
352 353 355 354 353 352 351 350 350 352 352 352 352 352 352 353 353 352 351 352 352 352 353 350 352 350 350 350 350 348 347 345 341 335 335 339 340 337 336 336 336 337 336
351 352 354 353 353 353 352 351 350 351 352 352 352 352 352 352 352 352 351 352 352 352 353 348 350 350 350 351 351 349 348 345 340 337 335 337 339 337 335 334 334 334 335
346 349 351 352 351 351 352 351 351 351 352 352 352 353 352 352 352 352 352 352 352 350 352 350 353 352 350 352 352 350 349 346 341 339 339 336 338 338 337 335 334 333 334
341 344 348 349 350 349 350 351 350 351 353 353 353 353 353 352 352 352 352 351 352 351 352 351 350 353 351 352 352 351 349 347 343 340 338 338 337 337 337 337 337 336 335
342 343 343 345 347 349 349 349 350 351 352 353 353 353 353 353 353 353 353 352 351 351 351 352 351 353 354 353 352 351 350 348 345 344 340 338 337 338 337 336 337 336 336
341 343 342 343 346 347 348 349 349 350 351 352 353 354 354 354 354 353 353 353 352 352 353 353 353 354 354 353 351 351 352 349 347 345 341 336 336 337 336 336 335 335 336
339 343 344 347 346 345 346 347 348 349 350 351 353 354 354 354 354 354 354 354 353 353 352 352 353 354 354 353 351 351 352 351 348 347 343 341 337 335 336 338 337 336 336
334 337 340 348 350 347 346 346 347 349 350 352 352 353 355 355 355 355 354 354 354 353 352 353 353 353 353 352 353 351 351 351 349 347 345 341 341 336 333 337 338 337 337
332 334 339 344 346 347 347 346 347 348 350 352 352 352 354 355 355 355 355 355 354 354 354 353 353 353 352 352 349 349 352 351 350 349 347 344 343 340 335 333 335 335 337
336 337 337 342 346 344 346 346 347 348 350 351 352 353 353 354 355 355 355 355 355 354 354 354 354 354 353 351 347 350 352 351 350 350 348 346 343 342 339 335 334 335 335
333 336 332 338 344 342 342 345 346 348 350 351 353 353 353 354 355 355 355 356 356 355 355 354 354 354 353 351 347 349 350 352 351 350 349 347 345 344 341 341 338 337 337
334 333 329 330 338 341 343 346 348 350 351 352 353 354 354 355 355 356 355 355 356 356 355 355 355 354 354 351 349 348 350 351 351 351 349 347 346 345 344 340 341 340 340
328 329 330 333 337 339 340 346 348 350 353 353 353 354 355 355 356 356 357 356 356 356 355 356 355 354 354 353 351 350 350 350 351 349 348 345 346 344 343 341 342 341 339
333 329 336 344 344 344 342 348 348 352 351 352 354 355 355 356 357 357 357 357 357 357 356 356 355 355 352 354 352 350 350 351 348 348 345 345 342 338 343 342 343 339 339
347 343 350 351 350 347 349 350 352 351 353 354 355 357 357 357 357 358 359 359 358 358 358 357 356 355 355 352 354 351 350 350 348 347 344 345 342 343 342 340 340 337 337
347 352 351 348 348 350 352 353 353 351 352 354 356 357 358 359 358 359 360 360 359 358 358 357 356 354 353 354 351 351 351 349 347 346 344 343 344 342 339 337 338 337 335
337 336 339 343 344 343 344 346 347 354 354 354 356 358 358 360 360 359 360 360 360 359 359 358 357 356 355 352 349 350 347 346 342 341 339 342 340 338 337 337 335 334 333
336 338 343 344 342 342 341 340 340 340 343 350 354 353 356 358 360 361 361 361 360 359 359 359 358 357 348 341 346 344 337 338 340 338 337 336 333 331 332 331 331 331 329
342 344 345 345 343 339 338 339 340 340 340 342 342 344 348 351 355 358 361 360 361 360 359 359 358 354 347 345 345 339 341 341 338 337 335 333 332 332 331 330 329 328 326

GFSMW_925_thetae_024.txt.gz
Theta_e
350 348 349 349 350 351 353 353 353 353 354 353 352 349 347 346 346 346 349 352 354 356 357 355 352 351 352 351 350 350 348 342 338 338 338 339 338 336 337 336 334 334 336
352 350 350 350 349 351 352 354 353 354 355 353 350 348 346 346 347 347 350 353 355 357 357 353 353 352 352 352 352 348 346 343 337 339 338 340 338 336 336 336 335 334 332
354 352 351 349 349 350 353 354 355 354 355 352 351 350 348 348 348 349 352 354 356 357 358 354 351 354 353 352 354 351 349 344 339 341 340 339 339 338 337 338 336 336 334
354 353 351 350 349 350 352 354 355 356 356 354 350 350 349 350 350 351 350 352 356 356 356 357 356 355 353 354 354 352 350 350 341 339 339 341 343 340 341 338 337 335 335
354 354 353 349 348 350 351 354 356 357 356 356 351 352 352 351 351 351 350 353 355 357 355 357 356 355 353 355 356 354 353 349 344 337 340 340 339 340 340 342 338 337 335
353 354 352 349 348 349 352 353 356 358 357 356 356 355 355 353 352 353 352 353 353 354 356 356 354 355 356 356 357 356 353 351 346 338 339 339 338 338 338 338 339 337 336
353 354 355 353 350 350 351 353 355 358 358 357 357 357 356 356 355 356 355 353 352 352 352 357 357 356 357 356 357 357 353 353 348 345 337 338 339 338 337 335 336 336 336
353 353 355 354 353 351 353 353 355 358 358 357 357 358 358 356 356 356 355 355 352 352 352 355 356 357 356 357 357 357 355 352 350 346 339 337 339 340 338 336 336 338 336
353 354 353 353 354 354 354 355 356 359 358 357 358 358 358 357 355 355 357 356 355 353 354 355 357 356 357 357 357 356 355 352 351 347 344 338 336 339 337 337 335 335 337
351 352 353 352 353 354 354 355 356 358 358 358 358 358 357 358 357 357 357 357 355 356 354 357 356 356 357 357 358 355 355 354 351 346 344 342 335 338 337 336 335 334 334
345 349 350 351 351 353 355 356 356 357 357 358 359 358 357 357 358 358 358 358 357 357 357 357 357 355 357 357 358 357 354 355 353 348 345 344 339 336 337 337 336 335 334
341 343 344 348 350 351 353 354 356 356 356 356 359 360 359 358 357 359 358 358 358 357 358 358 358 356 356 357 358 358 354 355 354 351 348 346 342 341 338 338 337 336 336
341 344 343 345 348 350 352 352 353 355 355 357 358 358 358 359 359 360 359 359 359 359 357 358 359 358 356 356 357 358 357 355 355 353 351 348 343 342 337 338 336 337 337
338 340 342 343 345 347 351 354 351 352 353 354 356 358 360 360 360 360 359 359 360 360 359 359 360 358 357 356 356 357 357 356 356 355 353 350 346 342 341 339 339 337 336
335 337 343 346 349 348 350 354 353 351 351 354 355 358 360 361 360 360 361 360 360 360 360 359 360 359 358 356 356 356 356 356 356 356 355 352 349 345 343 340 339 338 339
331 331 334 343 345 347 349 349 353 351 352 355 356 357 360 361 361 361 361 361 361 361 361 360 360 360 358 355 353 355 356 356 357 356 356 354 349 345 342 339 337 339 340
332 333 335 338 341 340 345 349 351 351 353 355 358 358 360 361 362 362 362 362 362 361 361 361 361 361 360 355 353 352 355 357 356 356 356 355 352 347 345 339 335 335 337
332 333 333 333 333 337 337 345 349 353 353 357 358 359 360 361 362 362 362 362 362 361 362 362 361 361 361 358 354 352 352 356 356 355 356 356 354 351 347 346 340 338 337
333 333 332 332 334 335 337 341 349 352 353 358 359 359 359 359 360 362 363 363 362 362 362 362 362 361 361 359 357 353 352 353 356 356 357 356 356 354 349 348 347 344 341
333 333 331 332 333 335 338 343 348 350 355 357 357 358 359 360 361 362 363 362 362 362 361 361 361 362 361 360 357 355 353 352 353 355 356 355 355 354 350 347 349 348 345
338 335 334 334 336 340 341 342 347 350 353 355 355 357 359 360 361 361 362 362 362 360 362 362 362 362 360 361 359 356 354 353 353 351 354 356 352 352 350 347 347 346 345
343 345 339 339 344 348 348 347 354 351 353 354 355 358 360 359 359 362 363 362 362 362 362 362 362 361 362 360 360 357 354 354 353 353 352 353 352 348 347 344 344 343 343
350 350 346 351 353 354 354 355 354 353 354 355 356 358 360 360 359 362 363 363 363 361 362 361 362 361 361 361 358 357 356 352 355 353 353 352 350 348 344 339 342 343 340
348 348 351 352 354 358 359 360 359 357 358 359 360 360 361 362 361 360 361 361 361 363 361 361 362 361 360 360 359 354 354 353 353 355 352 348 345 341 339 340 338 340 339
344 347 348 349 349 348 347 346 347 350 358 359 359 360 360 361 361 362 360 360 361 360 362 361 361 362 361 360 358 349 344 345 346 348 344 339 335 334 336 336 337 337 337
347 348 348 348 346 345 347 348 348 349 348 347 346 347 349 351 356 357 360 359 359 359 361 361 361 360 360 359 358 349 350 347 339 340 335 336 337 337 335 335 335 336 336

GFSMW_925_thetae_027.txt.gz
Theta_e
349 348 348 348 349 350 353 354 354 354 354 354 353 351 349 348 346 345 345 348 352 355 357 355 354 353 353 353 351 350 347 340 339 338 338 338 337 337 337 336 334 335 337
351 349 348 348 349 350 352 356 356 357 356 355 353 351 349 346 346 346 347 351 354 357 355 355 354 354 353 353 353 351 349 340 338 343 339 343 338 336 336 336 335 334 333
354 352 350 349 349 350 353 356 357 357 357 355 354 352 350 348 348 348 348 352 355 356 357 356 354 354 355 351 355 352 349 347 337 342 342 342 350 338 337 337 337 336 334
354 353 351 350 349 350 352 356 358 358 358 357 354 352 350 348 347 348 348 351 354 355 357 356 354 355 353 351 354 352 351 345 341 338 340 343 346 350 347 338 337 338 336
353 354 353 349 348 349 351 354 359 358 357 358 356 353 352 347 348 349 350 350 354 356 355 356 355 355 356 353 353 354 352 349 347 339 339 339 337 339 344 343 341 338 336
352 354 352 350 348 348 349 353 359 360 359 359 356 357 353 349 350 351 352 352 352 356 356 355 357 356 356 355 357 356 355 353 346 341 340 341 340 341 340 341 341 339 337
351 354 355 353 349 349 350 353 359 363 362 361 359 358 357 353 357 357 352 351 351 350 354 355 357 356 357 356 356 358 356 355 352 347 340 340 340 340 339 338 338 338 338
350 353 354 354 351 350 352 354 359 363 363 362 361 359 359 357 355 355 353 353 351 350 350 357 356 357 357 357 357 357 357 354 354 351 343 340 341 341 340 339 338 340 338
348 353 353 354 353 351 354 355 358 363 364 363 363 362 361 359 357 355 355 357 355 352 353 356 358 358 358 358 358 356 358 355 355 352 349 342 338 340 340 339 338 337 341
348 352 353 354 354 352 353 356 358 363 364 362 363 363 364 363 359 359 360 357 357 356 356 355 356 358 358 358 358 356 356 357 355 352 349 345 338 337 340 338 337 336 335
346 351 353 352 354 354 353 355 358 361 364 363 363 362 363 362 363 361 362 361 360 361 356 359 358 358 359 359 359 357 355 358 357 353 350 348 343 339 338 338 337 336 336
343 349 351 351 351 353 354 355 356 357 363 362 364 363 363 362 363 363 361 362 362 361 363 360 361 360 359 359 360 360 354 357 358 356 352 349 348 344 340 339 339 337 337
341 345 349 350 351 351 354 355 357 357 357 361 362 365 364 364 362 363 363 362 363 363 362 362 363 362 360 359 360 361 360 358 358 357 356 352 349 347 340 338 339 339 339
341 343 343 344 348 350 354 357 356 356 357 358 359 362 365 364 364 363 364 364 364 364 363 362 363 363 362 360 360 361 361 360 358 358 358 356 352 349 346 344 340 340 339
339 340 341 344 347 352 356 356 354 355 356 359 360 361 364 365 365 365 364 365 364 365 364 364 363 365 364 361 361 360 361 362 361 359 359 358 355 351 348 344 343 339 340
333 335 337 340 346 347 352 354 358 355 354 359 360 361 363 365 366 366 366 367 365 366 365 365 364 365 365 361 358 360 360 361 362 361 360 358 356 352 348 345 344 342 342
331 333 334 334 340 343 345 349 355 356 355 357 361 360 363 365 367 368 367 367 367 367 367 366 366 365 365 362 358 357 359 361 362 362 361 360 356 354 350 346 344 342 341
333 333 333 334 334 335 336 344 346 356 358 359 359 362 362 366 367 368 368 368 368 367 367 367 367 366 365 364 361 357 356 359 360 361 361 361 357 355 353 350 345 342 340
333 333 332 332 334 334 334 337 346 352 359 360 362 361 363 365 367 368 368 368 368 368 367 367 367 367 366 365 363 360 356 358 358 360 361 360 360 360 353 352 352 347 343
336 336 332 333 334 334 335 336 339 347 358 361 362 363 364 365 367 368 368 368 368 368 367 367 367 367 367 366 364 363 358 357 359 359 360 359 359 360 357 352 353 352 348
345 340 342 341 337 337 338 342 343 347 352 356 359 364 364 366 366 366 367 369 369 367 368 367 367 367 367 367 365 363 361 359 358 359 359 360 357 360 358 355 354 353 351
345 339 342 345 341 339 343 349 352 350 354 356 359 363 364 364 364 367 368 368 369 369 368 368 367 367 367 366 366 365 362 361 358 358 357 358 359 357 358 356 353 353 352
349 348 349 347 348 354 354 353 356 354 356 360 362 364 365 365 364 367 368 368 367 365 365 365 366 366 365 367 366 364 363 362 359 358 358 355 356 356 356 355 351 351 349
350 348 351 354 356 361 360 361 364 360 358 360 361 362 363 364 364 363 365 364 363 364 364 362 364 362 363 363 365 364 363 362 360 357 357 354 353 356 354 353 349 346 346
347 351 353 355 355 355 354 354 356 362 362 363 363 363 363 363 365 365 361 362 363 362 362 363 361 361 362 362 363 363 362 354 350 353 353 347 343 344 342 344 345 343 343
351 353 353 352 351 352 352 353 353 354 355 361 362 361 360 362 363 362 364 361 360 360 360 360 359 360 361 360 359 361 361 358 352 349 347 344 341 340 338 339 339 341 343

GFSMW_925_thetae_030.txt.gz
Theta_e
350 350 349 348 349 351 352 351 352 353 354 354 354 354 351 351 348 347 346 349 352 355 356 355 353 353 352 353 351 349 346 338 339 336 338 336 336 337 338 335 334 338 341
351 352 350 349 349 351 354 353 353 353 356 355 355 353 353 351 349 346 348 351 350 355 354 354 354 354 353 354 353 352 348 338 337 344 342 346 340 336 336 335 335 335 334
352 352 352 350 349 353 355 357 356 358 357 357 357 354 353 351 348 348 348 348 352 353 355 354 352 354 353 350 353 353 350 346 337 340 345 347 347 342 337 335 335 335 335
354 352 353 351 350 353 356 359 359 359 358 357 357 356 354 352 351 349 349 350 350 356 358 355 355 353 355 353 350 354 349 347 343 337 339 341 344 349 346 338 337 337 336
354 353 352 351 351 351 357 360 361 360 361 356 359 356 354 353 349 350 350 349 351 352 355 358 355 354 353 354 352 354 348 353 344 339 338 339 339 340 346 349 343 338 337
355 355 352 351 351 352 355 359 361 361 360 360 355 359 355 353 351 349 350 354 357 354 355 358 357 355 353 355 352 352 354 350 350 345 343 340 341 342 342 346 344 342 338
354 357 356 354 352 353 355 357 362 362 360 361 358 357 358 351 354 352 350 355 353 358 357 355 359 356 354 356 355 354 356 351 351 348 343 341 343 342 341 339 343 344 338
351 356 357 355 353 352 353 356 362 363 362 361 362 357 361 357 350 358 354 352 354 353 357 354 357 357 357 354 358 357 355 357 351 353 341 343 341 341 341 340 341 345 341
347 354 357 356 354 352 353 355 360 363 363 361 363 361 357 362 355 354 357 356 352 354 352 355 354 355 356 358 354 358 358 357 355 353 351 338 341 341 341 340 339 340 348
347 353 356 357 354 352 353 354 359 363 364 364 362 363 361 360 360 353 356 355 357 351 355 358 356 358 359 360 358 360 356 357 358 355 353 346 337 338 340 340 339 337 337
348 351 356 356 356 353 353 354 356 362 365 365 364 364 364 360 359 360 357 359 354 360 353 362 360 359 360 360 360 359 358 358 357 357 354 350 341 338 340 340 339 337 336
349 350 353 356 357 355 354 355 356 360 364 366 366 365 364 365 363 359 360 360 363 355 361 357 359 361 360 360 361 361 358 359 360 357 356 355 348 341 341 343 339 338 337
346 349 353 355 357 357 356 355 356 358 363 365 366 366 365 365 365 364 359 361 361 364 360 363 361 361 361 361 362 361 361 357 361 361 358 355 352 349 340 340 342 339 339
347 350 352 355 356 357 358 357 356 357 359 364 366 366 366 365 365 364 364 361 363 363 363 363 364 364 363 362 362 362 362 361 358 360 361 358 353 351 348 339 338 342 340
348 351 352 355 357 357 358 359 358 357 358 359 364 365 365 366 365 365 365 365 363 363 364 364 364 364 365 364 363 362 362 363 362 360 361 360 358 353 350 347 343 338 342
342 344 346 348 353 361 360 359 359 360 359 359 361 363 364 365 367 366 366 366 366 365 365 366 365 365 365 365 363 362 362 363 363 363 360 361 360 358 353 350 346 342 340
334 336 341 347 350 348 359 361 359 359 361 361 362 362 363 365 366 368 367 367 367 367 367 367 367 366 365 365 364 363 362 362 363 363 363 362 361 359 357 353 350 345 344
337 341 335 340 338 339 344 351 359 359 359 360 361 365 365 366 367 368 368 368 368 368 368 368 368 367 367 365 365 364 362 361 362 362 362 362 361 360 358 354 350 349 345
339 339 335 335 336 339 341 346 349 361 362 360 362 361 366 367 368 369 369 369 370 369 369 368 369 369 368 367 366 365 362 360 361 362 362 363 362 361 359 355 351 348 347
348 350 345 344 340 341 337 341 350 357 361 361 362 363 362 366 367 369 370 370 370 370 370 370 369 369 369 368 367 366 363 360 359 360 362 362 362 362 361 357 354 352 349
349 346 345 347 347 346 341 349 346 350 359 360 361 362 365 364 366 367 370 371 371 371 370 370 370 369 369 369 369 368 365 364 361 360 360 360 361 362 362 360 356 355 353
349 345 347 345 345 345 343 346 353 348 349 353 361 364 365 366 367 368 370 371 370 370 370 370 370 369 369 369 369 368 368 365 364 363 360 359 360 360 361 361 358 356 355
353 351 352 353 353 351 357 361 359 357 354 362 363 362 367 368 365 369 370 370 370 370 370 370 369 370 369 368 368 368 367 367 366 364 363 361 359 359 359 360 359 356 355
354 348 352 357 365 366 366 364 365 361 360 366 367 366 369 369 368 368 369 369 369 369 369 368 368 368 367 366 367 366 367 367 366 365 364 363 361 357 356 357 358 356 354
355 358 359 358 359 358 358 357 358 362 364 363 365 367 367 367 369 368 365 369 367 366 367 367 366 365 365 357 356 358 360 358 362 362 361 360 358 358 352 348 347 350 353
349 353 356 354 356 355 355 356 357 358 361 367 366 365 364 365 365 367 366 364 363 362 360 357 357 354 349 349 353 354 356 357 358 356 357 359 359 353 353 351 347 348 351

GFSMW_925_thetae_033.txt.gz
Theta_e
347 347 348 347 347 348 347 348 350 349 347 348 349 348 346 349 350 347 349 346 345 347 352 353 353 350 351 351 348 342 345 336 339 338 338 334 336 338 338 342 340 342 341
348 348 347 347 348 350 350 348 351 350 349 349 348 352 351 348 351 346 349 347 348 350 352 351 353 351 352 351 348 351 348 339 338 344 341 337 337 338 334 336 339 341 342
349 348 347 347 349 351 350 350 348 351 349 349 348 349 353 352 351 348 347 351 348 351 353 353 352 354 353 352 350 351 346 340 339 340 344 337 337 339 336 335 333 336 339
348 348 347 347 349 352 351 350 350 351 352 350 354 353 351 354 353 349 346 352 350 350 352 354 352 354 352 351 348 349 348 347 338 338 342 342 344 337 338 337 334 336 335
348 349 348 348 348 352 353 351 352 352 356 354 354 353 354 353 352 350 347 347 348 348 352 355 354 352 354 355 353 352 352 349 347 338 339 339 339 342 342 337 338 337 336
347 347 349 348 348 352 355 355 354 356 356 355 356 356 356 354 353 350 347 349 350 349 350 357 357 353 352 353 352 351 352 349 351 344 344 338 339 340 340 341 341 338 338
342 349 349 348 349 353 356 358 358 359 359 355 356 357 356 355 351 351 350 349 353 351 351 352 358 355 353 352 354 351 353 349 351 348 343 341 339 340 339 343 341 340 340
348 350 349 348 349 350 355 360 359 359 360 359 355 354 359 356 352 352 350 349 352 354 353 352 356 357 355 352 354 353 353 354 347 349 344 340 341 343 341 339 341 336 338
351 350 349 349 348 351 354 358 361 359 360 360 359 355 355 360 356 350 354 355 354 353 354 355 354 357 356 353 354 356 354 355 355 348 345 341 339 340 342 340 339 339 337
348 351 349 349 349 349 353 355 361 360 359 359 359 358 354 355 361 354 349 355 353 353 354 353 357 354 356 355 353 357 359 356 357 355 350 339 339 340 342 341 339 338 337
352 353 351 350 350 349 353 355 358 361 361 360 359 359 357 355 359 360 353 349 357 356 351 354 355 355 356 356 355 353 355 358 357 357 355 352 341 336 339 342 339 339 337
350 354 352 352 351 350 352 354 356 361 361 361 359 360 360 359 355 360 360 348 354 354 357 353 358 357 355 354 357 357 356 358 357 358 357 355 352 345 334 340 340 338 337
349 352 353 353 351 350 350 352 354 359 361 362 362 361 361 362 359 357 357 360 351 352 352 357 361 360 358 357 358 357 358 358 358 356 357 356 354 351 348 337 343 340 338
347 351 352 353 352 351 350 351 352 355 361 362 363 363 362 362 362 360 358 356 360 358 358 355 357 362 360 358 358 357 356 357 357 357 360 357 356 353 351 349 339 342 340
346 349 352 353 353 352 351 351 352 354 356 362 363 364 364 363 363 363 363 361 356 358 360 360 363 359 362 361 360 359 358 358 359 356 356 360 359 356 353 350 347 339 342
344 344 348 352 353 354 353 352 353 354 355 359 363 364 364 364 364 364 363 364 363 358 359 363 360 362 363 363 361 360 360 360 360 360 358 357 360 360 358 353 350 344 337
331 336 340 344 350 355 355 355 355 354 355 356 360 363 364 364 364 364 364 363 363 364 361 360 363 361 362 363 364 363 362 361 361 360 360 359 358 360 360 357 353 351 349
335 334 331 332 338 352 357 356 357 357 356 357 358 359 363 364 364 365 364 365 364 364 365 364 362 364 363 363 363 364 364 362 361 361 361 360 359 359 360 359 356 352 351
344 344 344 346 343 338 347 358 359 359 360 358 359 359 362 363 364 364 366 365 365 365 365 365 365 365 365 365 365 364 365 362 362 361 361 362 361 360 359 359 356 353 351
345 345 345 342 347 345 343 353 359 359 359 361 364 363 362 363 364 364 365 366 366 366 366 366 367 366 366 366 366 366 365 362 361 361 361 361 361 361 361 360 358 355 352
348 345 345 344 344 347 342 344 350 357 359 357 357 360 362 365 366 365 365 367 367 367 367 368 368 368 368 367 368 368 367 364 363 362 361 360 359 361 362 362 359 358 356
350 351 350 351 349 344 343 347 355 352 355 358 360 360 359 361 364 367 368 368 369 369 369 369 369 369 369 369 368 368 368 367 365 364 363 362 360 359 359 361 362 361 357
353 355 355 354 367 364 363 360 362 357 357 354 358 359 360 362 364 366 368 370 370 370 370 369 369 369 369 368 368 369 368 368 368 366 365 364 363 362 360 359 359 361 360
346 350 355 358 359 357 357 357 360 363 364 357 369 365 365 365 367 366 368 371 371 369 369 369 368 368 367 367 368 366 366 367 368 367 367 366 365 364 362 360 358 357 354
341 345 347 353 356 356 356 356 356 358 361 365 371 368 367 368 368 366 370 368 368 367 367 367 367 366 363 357 354 356 355 356 357 357 357 357 360 359 360 358 354 352 352
340 341 345 349 353 352 351 350 354 355 357 364 365 367 367 368 368 367 359 364 365 363 362 362 362 345 338 334 337 338 341 340 340 347 354 355 357 360 360 360 359 354 349

GFSMW_925_thetae_036.txt.gz
Theta_e
347 348 347 346 346 346 346 345 345 345 349 346 346 346 344 345 347 349 348 347 343 345 353 350 352 349 349 348 347 343 341 339 337 336 335 335 337 337 338 340 342 342 340
349 348 348 347 347 346 347 346 346 344 346 345 343 345 344 344 346 350 348 347 345 344 349 351 351 351 350 349 348 346 344 336 339 338 336 332 335 338 338 341 341 342 341
348 348 348 348 348 347 347 347 346 345 345 344 344 345 343 343 345 350 348 348 346 346 347 349 351 351 351 350 348 348 347 336 339 342 339 334 333 335 337 342 340 341 341
348 347 347 348 347 348 347 348 348 346 346 346 346 346 347 350 348 349 349 347 348 349 349 350 350 350 353 352 349 348 346 343 339 339 343 342 340 332 334 334 338 341 340
348 347 345 346 347 348 348 348 349 349 349 348 347 346 349 351 352 351 350 347 349 350 350 350 351 350 353 352 350 348 346 348 338 336 341 340 342 340 337 334 336 337 335
348 347 347 346 347 348 349 349 351 350 349 349 349 348 348 349 351 352 352 348 350 350 350 350 351 352 352 352 352 350 350 349 349 342 338 338 338 339 340 336 337 336 337
348 347 347 346 347 349 349 350 350 353 351 351 351 350 350 350 348 351 351 348 350 351 351 350 352 356 354 351 352 352 350 349 350 346 344 339 337 338 338 339 339 338 338
346 347 347 346 346 350 350 349 351 352 353 352 352 352 352 351 350 352 352 350 347 349 349 349 351 355 356 353 351 353 350 351 348 349 346 341 341 340 343 340 340 333 337
347 346 347 347 347 350 352 351 351 351 355 354 354 355 354 353 352 353 351 351 349 349 349 349 350 351 356 355 353 351 352 351 352 348 348 344 340 340 341 340 339 338 335
347 345 346 347 347 349 352 353 352 352 354 355 354 354 356 355 354 354 353 350 351 350 350 352 352 352 354 357 354 352 353 353 352 353 348 345 341 339 340 342 340 339 337
347 343 346 347 347 348 351 355 355 354 355 357 356 354 353 353 358 356 354 351 351 355 353 354 353 353 353 355 356 353 352 355 355 354 354 350 341 338 339 340 341 340 338
346 345 347 347 347 348 350 354 357 356 356 357 357 357 356 353 353 357 358 354 351 349 356 353 354 354 355 355 356 354 353 355 359 356 355 355 353 348 336 338 339 341 339
346 348 348 347 347 347 349 353 357 358 357 357 357 357 357 356 354 353 356 358 356 352 349 357 355 353 355 356 355 355 354 353 353 356 356 355 355 354 351 338 337 338 340
349 348 348 347 348 347 348 352 353 358 358 358 357 356 357 357 356 354 353 356 358 356 352 350 355 358 356 356 356 354 354 354 354 354 355 355 356 356 354 352 345 337 339
349 349 350 349 348 348 348 351 352 356 358 358 358 358 357 358 358 358 356 353 355 356 357 352 351 355 357 360 358 356 355 354 356 355 355 356 356 355 355 354 353 349 345
351 351 351 350 350 349 348 350 351 354 358 359 359 359 359 358 358 359 359 357 356 354 355 357 357 355 356 357 359 360 358 356 356 356 355 354 355 355 356 358 357 356 351
350 352 351 350 350 350 349 349 350 352 356 358 359 360 360 361 360 360 360 360 360 358 355 354 357 358 358 359 359 360 359 358 358 357 357 357 356 355 355 356 358 358 357
337 334 342 347 351 351 350 349 350 351 352 355 359 360 361 361 362 361 361 361 361 362 361 358 356 358 358 357 359 361 361 360 359 359 359 358 358 357 356 356 356 357 357
340 340 341 338 348 352 352 351 350 351 352 352 354 359 361 362 362 362 362 362 362 361 361 362 360 358 358 360 360 360 362 361 361 361 360 360 359 359 358 357 357 356 356
340 338 338 344 342 343 353 353 352 352 352 352 354 354 359 361 362 362 362 363 362 362 362 362 362 362 362 360 361 362 361 360 360 360 361 361 360 360 360 359 358 357 356
348 349 353 348 341 341 345 353 354 355 355 354 354 355 356 358 361 362 362 362 363 363 363 363 363 363 364 364 364 364 364 362 362 361 361 361 361 360 360 360 360 359 358
349 355 359 358 358 351 350 357 356 356 356 357 358 358 358 358 359 361 361 362 363 364 364 364 365 365 365 366 366 366 366 366 364 363 363 363 362 361 361 360 359 360 361
342 346 352 354 356 356 357 356 357 361 358 357 358 359 361 363 363 362 362 362 364 364 364 365 365 366 367 367 367 367 367 367 367 366 365 365 364 363 363 362 361 360 358
338 342 345 352 352 353 354 355 355 357 361 361 358 359 358 360 362 363 364 365 365 366 366 367 367 367 367 368 367 367 368 368 368 368 367 367 366 365 364 362 361 360 358
337 340 343 347 350 350 350 349 350 352 355 359 365 367 364 363 363 364 364 367 367 367 367 367 367 367 366 364 363 364 362 359 359 359 357 357 356 356 357 359 359 359 357
337 339 342 347 349 349 348 348 349 352 353 355 361 366 367 366 365 362 353 359 367 368 368 367 366 356 358 350 350 351 350 346 342 346 347 348 350 352 355 357 357 354 350

GFSMW_925_thetae_039.txt.gz
Theta_e
347 347 347 346 345 345 343 343 344 344 346 346 344 347 347 346 348 349 349 346 350 353 348 349 348 348 348 347 348 342 339 337 338 337 335 337 336 339 341 341 341 341 338
347 346 346 347 345 345 344 342 343 344 345 347 346 348 347 345 345 348 349 347 349 351 352 348 349 349 349 349 348 343 338 338 337 335 333 330 335 337 339 340 342 341 340
349 347 345 345 346 345 345 343 343 343 344 346 347 347 346 345 344 345 348 348 347 346 350 350 350 349 350 348 348 347 342 337 340 338 336 331 332 333 338 339 341 341 341
347 346 346 346 345 345 345 345 344 344 344 346 347 346 345 345 344 343 346 348 347 346 347 348 348 350 349 350 350 347 347 336 339 341 342 338 335 330 332 335 340 340 340
348 347 346 346 346 345 345 345 345 344 344 346 346 346 345 343 343 342 343 349 347 347 346 348 350 350 350 352 351 348 349 346 338 338 342 342 340 336 333 331 334 337 339
349 347 347 347 348 347 346 346 346 345 345 345 345 344 345 345 343 344 344 348 349 347 348 348 350 350 350 352 351 349 347 347 343 338 336 340 340 339 338 333 334 335 336
348 347 347 347 348 347 346 346 346 346 346 345 345 345 345 344 342 344 346 349 349 348 348 349 351 351 351 351 351 351 349 348 349 347 341 338 338 338 339 338 337 336 336
345 347 345 345 347 347 347 346 348 347 347 346 347 347 347 345 346 345 346 350 351 350 347 348 349 350 351 354 352 352 352 349 349 349 346 342 341 336 338 338 338 334 335
343 346 346 345 345 346 347 347 348 348 347 347 348 348 348 347 347 347 347 346 350 351 347 347 349 349 350 354 355 351 351 350 350 348 348 346 342 341 341 342 339 337 333
342 345 346 346 345 346 347 348 348 349 349 349 349 349 349 349 349 349 349 347 351 350 348 347 349 349 349 351 355 354 351 351 351 350 350 348 347 342 340 340 341 339 336
344 345 345 346 346 346 348 348 348 348 350 351 350 350 351 350 350 350 349 349 350 350 350 348 348 350 349 350 352 355 354 351 350 351 351 351 348 345 344 340 340 341 339
345 346 345 344 346 346 348 349 348 348 349 351 351 351 352 352 352 351 351 350 351 351 350 350 350 350 352 351 351 353 355 353 351 351 353 352 353 352 347 342 340 339 340
346 346 345 344 345 346 347 350 350 350 349 351 352 352 352 352 353 354 354 353 352 352 351 351 354 353 353 353 353 353 354 355 353 351 351 353 354 353 352 352 349 338 338
346 347 345 343 345 346 346 349 352 352 351 351 353 354 354 353 352 352 353 354 354 353 353 352 349 352 354 353 353 353 354 355 354 353 352 351 353 354 352 352 352 351 346
346 346 345 343 345 346 346 349 352 354 353 353 354 355 355 355 354 353 352 352 353 352 351 353 353 350 352 355 355 353 353 355 355 354 353 353 352 351 351 352 352 352 352
343 344 345 344 345 345 346 347 352 355 355 355 355 355 355 355 355 355 354 353 353 353 353 353 353 353 351 350 353 355 356 355 355 355 354 353 353 353 352 351 352 353 352
342 343 345 345 345 346 346 347 350 354 356 355 355 356 355 355 355 355 355 354 353 352 353 353 353 352 352 352 351 353 356 357 357 357 356 355 354 354 354 354 354 353 354
341 344 346 346 346 346 346 346 350 351 355 356 356 356 356 355 355 356 357 357 356 354 353 353 353 353 353 352 352 352 355 356 356 357 356 357 356 356 356 356 355 355 355
337 341 346 347 347 347 347 347 349 350 353 355 356 357 357 357 358 357 357 357 358 358 357 356 355 353 354 354 354 355 357 357 358 357 358 357 357 357 357 357 356 356 356
345 337 342 348 349 348 347 347 348 348 350 353 355 356 357 358 358 359 359 359 359 359 359 359 360 359 357 356 356 356 356 356 356 357 358 358 358 358 359 358 357 356 357
355 353 344 339 339 349 348 348 348 348 349 350 351 354 357 358 359 359 359 360 360 360 360 360 360 361 361 360 360 359 358 357 357 357 358 358 359 360 360 360 359 358 359
346 352 353 353 353 347 350 350 353 352 350 350 351 351 353 357 358 360 361 360 361 361 361 360 361 361 361 361 362 362 361 361 360 360 361 361 361 361 361 360 360 360 360
341 346 350 350 352 354 355 354 355 360 354 354 354 352 352 354 355 358 359 360 360 360 361 361 361 361 362 363 363 363 363 364 363 362 363 364 363 363 363 362 362 361 359
339 342 347 347 346 348 349 350 352 356 358 358 358 356 357 356 355 356 358 358 359 360 361 361 362 363 363 364 365 365 365 365 365 365 365 365 365 365 364 363 363 360 359
334 337 341 345 345 347 347 349 349 349 354 357 359 364 361 357 359 360 360 360 360 361 361 362 363 363 365 365 365 366 366 366 366 365 362 360 358 356 354 352 354 357 355
328 333 336 340 344 345 346 348 349 349 350 353 354 360 364 361 356 350 347 354 362 364 364 365 365 364 365 365 362 360 358 357 356 354 351 347 345 347 348 348 345 342 337

GFSMW_925_thetae_042.txt.gz
Theta_e
344 346 346 345 345 345 344 344 341 339 340 343 343 343 344 345 346 346 346 346 347 350 351 348 347 345 347 345 345 342 337 339 337 337 336 336 336 339 340 340 340 340 338
345 346 347 345 344 343 344 344 343 341 341 342 343 343 344 346 346 347 348 348 346 349 352 349 348 346 347 347 347 343 337 337 337 334 332 336 336 336 339 340 341 341 340
346 346 346 346 345 343 342 343 344 342 342 342 345 344 345 347 345 346 347 348 347 348 349 352 348 348 348 348 348 344 339 337 339 335 334 336 338 332 336 337 339 341 340
347 345 346 346 345 345 344 343 343 343 342 342 344 345 345 346 345 344 346 347 347 347 347 347 351 350 349 349 348 346 345 336 339 340 340 335 334 337 338 335 339 340 339
347 346 345 345 345 345 344 344 344 343 343 343 343 344 346 347 345 344 344 347 347 346 347 346 347 349 350 349 350 349 345 345 337 339 341 341 336 334 332 337 333 334 335
347 346 346 345 344 345 344 344 344 343 343 343 343 344 345 346 345 344 343 343 345 346 346 347 347 350 350 349 351 351 347 346 344 337 338 340 340 338 337 335 335 333 335
348 347 346 345 345 344 344 344 344 343 343 343 344 345 344 345 345 343 342 342 343 347 346 346 347 349 350 350 350 351 349 346 345 345 342 337 338 338 338 337 336 336 336
349 348 347 346 345 345 345 344 344 344 344 344 344 345 345 345 344 342 343 340 340 344 347 347 347 348 349 350 351 351 350 351 348 347 347 346 339 339 337 337 336 339 335
349 348 348 347 346 346 346 345 345 344 344 344 344 345 345 344 344 343 344 341 341 344 347 348 347 347 348 350 351 353 351 350 351 348 347 347 347 343 339 337 340 338 341
345 345 346 346 346 346 346 345 345 345 344 345 345 345 345 345 344 344 345 344 343 344 347 349 349 347 348 349 350 352 354 352 350 350 350 349 347 347 344 341 340 340 337
343 341 343 346 345 346 347 346 345 345 345 345 345 346 346 345 345 345 346 346 346 346 346 349 349 347 347 348 350 351 352 354 352 350 351 350 350 349 347 346 343 339 339
342 340 340 345 345 344 346 346 346 346 347 346 346 346 347 347 347 347 347 347 347 347 345 349 350 349 348 348 349 349 350 352 354 352 350 349 350 350 351 351 348 344 341
342 341 340 343 345 344 345 346 346 346 347 348 347 347 348 348 348 348 348 348 348 348 348 348 349 349 349 349 349 351 350 351 352 353 353 351 349 351 351 351 351 350 348
340 341 342 343 345 345 345 347 346 347 347 348 349 348 349 349 349 349 349 349 349 348 349 349 349 349 349 351 351 352 353 352 352 352 353 353 352 350 350 351 351 351 351
340 343 344 344 344 345 345 347 347 347 347 348 350 349 350 350 350 350 351 350 350 350 350 350 350 350 349 348 351 353 352 352 353 353 353 353 353 352 351 351 350 349 351
328 341 344 344 344 344 345 347 348 348 348 348 350 351 350 350 350 350 350 351 351 351 352 352 352 350 350 350 348 348 353 354 353 353 351 351 352 353 352 352 351 352 351
324 329 343 344 343 344 345 346 349 350 350 349 350 351 352 352 351 351 350 350 351 351 352 352 352 351 350 348 349 349 348 351 353 353 354 354 355 354 353 353 353 353 353
336 334 343 343 342 344 345 345 349 352 352 351 352 352 353 353 353 353 353 352 351 351 352 352 352 352 350 350 347 348 351 350 350 350 352 353 354 353 354 354 355 354 355
338 338 341 342 342 344 345 345 349 353 354 353 353 353 353 353 353 353 354 353 353 352 351 351 352 352 352 351 351 350 351 352 352 353 352 353 353 353 354 354 355 355 355
348 340 342 343 343 344 344 347 349 351 354 354 354 354 354 354 353 354 354 354 355 354 354 353 353 352 353 352 352 352 352 351 352 353 354 355 355 356 356 356 356 356 356
351 345 345 344 344 345 344 347 348 349 350 353 354 354 355 355 355 355 354 355 355 356 357 357 356 356 356 356 356 356 354 354 354 354 355 355 356 357 357 358 357 357 358
347 350 350 349 343 345 345 346 347 348 348 350 353 354 355 356 356 356 357 357 357 357 358 358 358 358 358 359 359 360 359 358 355 355 356 357 358 359 359 358 359 359 359
339 345 345 347 348 349 347 350 354 351 348 348 350 351 354 355 356 357 358 358 358 359 358 359 359 359 359 360 360 360 361 361 358 359 359 359 360 361 362 362 362 361 359
334 337 343 343 344 347 350 352 354 355 352 352 349 349 350 352 355 356 358 358 359 359 359 359 359 359 360 360 361 361 362 361 361 361 360 359 360 361 362 361 360 357 356
328 335 337 340 341 345 347 348 348 353 356 358 359 354 353 351 351 353 355 357 358 359 358 359 360 360 360 361 362 362 364 364 364 362 358 357 356 355 354 352 351 353 353
324 332 338 338 340 343 346 348 348 346 347 352 354 360 357 354 354 351 347 352 355 357 358 359 360 360 362 363 364 364 364 364 363 356 353 351 347 346 345 345 342 341 337

GFSMW_925_thetae_045.txt.gz
Theta_e
341 343 344 346 348 348 347 346 346 346 345 344 344 343 341 343 344 344 346 346 346 347 349 347 346 346 348 345 344 343 341 342 341 341 340 339 339 343 343 343 343 344 343
343 344 345 346 347 348 347 347 346 345 342 344 344 343 344 346 349 347 346 346 346 347 350 348 346 346 347 345 346 344 342 341 339 340 340 341 340 340 342 343 344 344 344
344 346 346 347 346 347 347 347 346 344 342 343 345 342 344 345 347 349 349 347 347 346 349 350 348 347 346 345 345 345 339 341 342 336 340 340 340 341 340 341 342 345 344
345 345 346 347 346 346 347 347 346 345 344 342 345 344 345 346 348 349 349 346 347 346 348 349 348 347 349 347 349 345 343 339 342 342 341 335 340 340 340 339 341 341 343
348 347 346 346 346 346 346 346 346 345 345 345 344 346 346 347 348 348 347 346 347 347 347 347 346 346 349 347 349 348 346 342 341 343 345 345 342 337 339 341 340 339 339
350 349 346 346 347 346 346 345 345 345 344 345 345 345 347 347 348 348 348 348 350 349 347 347 347 347 350 350 351 349 347 348 345 341 342 344 344 343 342 341 343 342 341
351 350 349 347 347 347 347 347 345 345 345 346 346 346 345 346 346 347 348 347 348 350 349 346 347 349 348 349 349 351 351 349 350 346 342 341 341 342 343 342 343 342 343
352 351 349 349 348 348 349 347 347 346 345 345 345 345 344 347 347 347 347 347 347 347 349 344 345 346 347 349 349 352 353 353 352 351 347 349 346 341 341 341 341 343 344
352 351 350 349 349 348 348 348 348 347 346 346 346 346 346 346 347 346 346 347 346 347 349 343 346 346 347 348 350 353 354 352 352 354 354 351 350 348 345 342 341 343 346
353 352 351 349 349 348 348 348 347 348 347 346 346 347 347 346 346 347 346 346 346 343 347 345 347 349 348 348 350 354 355 356 355 353 354 353 350 350 348 347 344 343 343
352 352 352 351 349 348 348 348 347 348 348 347 347 347 348 347 347 348 348 347 343 344 342 344 346 349 350 349 351 352 354 356 356 356 355 354 354 352 351 349 347 346 344
350 351 351 350 350 350 349 349 348 348 348 347 347 347 347 347 348 347 348 348 344 344 345 345 345 348 350 351 352 354 354 355 356 356 356 355 354 354 354 353 352 349 348
348 349 349 351 352 351 350 350 349 348 348 348 348 348 348 348 348 348 348 348 345 345 346 348 346 350 349 351 350 349 354 355 355 355 357 357 356 356 353 354 353 352 352
346 348 347 350 350 350 351 350 350 349 349 349 349 349 349 349 349 349 349 350 346 346 347 348 349 351 351 352 352 353 354 355 356 356 356 356 357 357 357 356 356 355 354
338 348 348 349 351 351 350 350 350 349 349 350 350 350 350 350 350 351 351 350 350 348 347 349 350 352 352 351 353 354 355 356 356 357 357 357 356 355 354 356 356 356 355
337 340 347 350 351 350 350 349 350 350 350 351 351 351 351 351 351 352 352 352 351 351 352 353 353 353 352 350 349 348 354 356 357 357 357 356 353 351 351 350 351 354 356
351 348 338 350 350 349 350 350 350 350 350 351 352 352 352 352 352 353 353 353 353 352 353 353 353 354 353 350 347 347 350 352 354 356 357 357 356 355 354 356 354 353 353
349 351 347 340 348 347 348 349 350 351 351 351 352 353 353 353 353 353 354 354 355 355 354 354 354 354 354 351 350 349 348 351 353 353 353 354 354 354 355 355 355 356 356
346 352 350 333 345 347 349 350 352 352 352 352 352 353 354 354 354 354 354 353 353 354 355 355 356 355 354 352 350 350 351 352 353 353 354 354 354 354 352 353 353 354 356
352 350 343 335 346 348 348 351 353 354 354 353 353 354 355 355 356 356 356 355 354 355 354 355 355 356 356 354 351 351 351 352 353 354 355 354 353 354 353 354 355 357 358
350 348 344 348 348 348 349 352 354 356 354 354 354 355 356 356 356 357 357 357 357 356 356 356 356 356 355 355 353 352 352 353 354 355 355 356 356 355 354 354 356 358 359
346 351 350 349 349 349 350 353 355 355 356 357 357 357 357 356 357 357 357 357 358 358 358 359 359 358 358 357 356 355 355 354 356 358 359 359 358 357 357 357 357 358 358
345 348 352 352 351 350 351 353 353 354 356 357 358 358 358 358 358 358 358 358 359 358 359 359 360 360 361 361 360 358 358 358 354 358 360 360 359 359 358 359 361 360 359
338 345 348 350 352 353 355 356 357 353 354 356 357 358 359 359 358 359 359 359 360 360 360 360 361 361 362 362 362 360 359 359 358 358 356 357 357 358 359 360 361 360 357
323 338 344 347 348 350 349 349 352 358 355 354 355 356 357 357 359 359 358 360 360 360 361 361 362 362 363 363 363 363 361 360 361 360 355 354 354 353 354 354 352 352 353
321 324 334 344 344 344 344 344 344 348 356 361 358 354 353 354 357 349 346 355 358 358 359 360 361 361 362 362 361 361 362 363 363 357 352 351 351 350 348 346 345 344 342

GFSMW_925_thetae_048.txt.gz
Theta_e
345 343 343 343 343 344 346 345 346 346 346 344 343 345 347 347 349 349 352 354 353 354 356 351 349 350 347 348 349 345 347 342 342 339 336 337 340 343 342 341 340 341 340
347 344 343 344 345 345 346 347 346 348 348 343 342 344 346 346 348 351 354 354 354 355 354 352 350 352 350 347 347 349 343 342 341 339 338 340 340 340 341 341 341 341 341
348 347 345 345 345 347 347 348 348 348 348 342 343 346 347 349 351 352 351 353 354 355 355 351 352 349 350 349 349 349 346 342 343 344 342 341 347 340 340 342 341 342 341
347 347 347 346 346 347 348 348 349 349 348 345 342 345 347 346 346 349 349 352 355 354 355 352 352 351 351 351 350 350 345 346 342 342 341 342 343 343 345 340 341 342 342
348 348 348 347 346 346 348 349 350 350 347 347 343 344 344 341 344 347 350 352 356 355 354 353 352 352 350 352 353 353 350 342 343 342 342 343 343 343 342 343 342 341 340
350 348 347 348 348 347 347 349 350 351 349 347 347 345 343 341 344 347 348 349 350 353 355 356 356 352 351 354 353 353 354 350 346 343 344 344 345 344 344 343 344 343 342
353 351 349 348 349 349 347 347 350 353 351 349 350 347 346 346 347 350 348 347 346 348 351 356 357 355 355 355 354 353 355 354 350 351 342 342 342 343 344 344 343 344 343
353 353 352 349 349 349 348 348 349 352 352 350 351 351 349 348 348 350 349 348 346 346 347 355 355 356 356 356 356 355 354 354 354 354 351 346 345 345 342 342 343 344 344
353 354 353 351 349 350 350 350 351 351 352 350 351 353 351 350 349 349 350 349 349 347 348 350 353 353 354 356 356 353 356 355 355 355 355 353 347 348 346 345 344 343 347
353 354 353 352 350 350 350 350 350 352 352 350 350 351 351 351 350 350 351 351 350 351 348 351 351 351 354 355 356 354 355 356 356 353 354 355 348 349 349 348 346 345 345
352 353 353 352 351 350 350 351 351 351 352 352 351 350 350 350 352 352 352 353 353 352 353 351 350 352 355 355 356 355 354 357 357 356 355 356 356 352 349 348 348 347 346
349 352 352 352 352 351 350 350 351 351 352 352 353 351 351 351 351 353 352 353 354 354 354 353 352 352 352 355 357 356 353 356 356 356 356 356 354 356 355 352 351 348 347
345 350 351 352 352 352 351 350 350 350 351 351 351 351 351 351 351 353 353 354 354 355 354 354 354 353 352 355 356 356 356 355 356 357 356 357 357 357 355 354 352 352 354
342 345 349 351 352 352 355 353 351 350 350 351 351 352 352 352 352 352 353 354 354 355 355 354 354 354 353 352 354 355 356 356 356 357 357 357 358 359 360 359 359 358 357
338 345 347 350 355 355 356 355 352 352 351 352 351 353 354 353 353 354 354 354 355 356 356 355 355 355 353 351 352 353 353 355 356 356 358 358 358 359 359 359 358 358 358
338 336 343 347 351 352 356 357 356 354 353 355 354 354 356 355 355 355 356 356 356 356 357 355 355 356 354 349 349 350 351 353 355 357 357 358 358 358 357 356 353 353 358
345 347 344 343 346 349 353 355 357 355 354 356 356 356 357 358 357 357 358 357 357 357 357 357 356 356 356 352 350 349 349 350 353 355 356 355 352 354 356 357 357 356 354
349 349 349 348 342 345 348 352 353 356 356 358 358 358 359 359 359 359 359 359 358 358 358 357 357 357 357 356 354 351 351 351 352 352 353 354 354 353 355 356 356 356 356
350 351 350 349 349 343 345 350 352 355 357 358 359 359 359 359 359 359 359 359 359 359 358 358 358 359 358 356 354 353 353 353 354 354 354 355 355 355 355 355 354 354 354
348 350 352 354 352 351 344 348 352 354 358 358 359 359 360 360 360 360 360 360 359 359 359 359 359 359 360 359 356 354 354 353 353 354 356 355 354 355 355 355 354 355 355
346 351 353 354 352 349 344 352 354 355 357 356 356 358 359 360 360 361 361 360 359 358 359 359 359 359 359 360 359 356 355 353 352 352 351 352 353 354 354 353 355 357 359
349 354 351 347 345 342 349 357 358 356 357 357 357 359 360 359 359 361 362 361 360 360 361 360 360 359 360 359 359 358 356 354 354 353 353 358 359 359 358 357 356 356 355
339 353 354 351 349 350 350 355 358 357 357 358 360 360 360 360 360 362 363 362 362 361 361 361 360 359 359 361 359 357 356 355 354 357 360 361 362 361 360 359 359 357 355
325 342 352 357 357 353 353 354 357 359 359 360 361 361 362 361 360 362 362 361 361 361 360 360 360 360 360 362 364 361 359 357 356 354 357 359 360 361 361 361 359 359 360
324 327 340 349 350 351 353 358 359 358 360 361 361 362 362 361 362 362 357 361 360 360 361 361 361 362 362 363 364 365 364 360 356 358 359 359 359 360 360 357 357 356 354
324 326 328 337 343 344 347 349 354 360 356 358 359 360 360 362 362 362 354 353 348 356 360 360 362 361 363 362 364 364 364 363 361 355 360 360 358 356 355 353 350 349 349

GFSMW_925_thetae_051.txt.gz
Theta_e
348 346 345 344 343 343 343 345 346 347 347 347 348 347 347 347 348 349 353 354 352 353 355 351 352 351 347 349 347 344 344 341 339 339 336 337 338 341 339 339 339 339 340
349 347 346 345 343 343 343 345 347 349 347 346 346 347 347 347 347 347 352 354 354 354 350 352 352 351 351 351 349 347 342 340 339 342 338 344 342 341 342 339 340 340 340
351 349 347 345 344 344 344 346 348 350 349 345 344 345 347 347 347 351 352 353 355 355 354 352 353 352 354 349 350 350 347 343 339 343 343 350 348 343 340 342 341 342 341
350 349 348 346 344 345 345 347 348 350 350 347 342 345 347 346 345 348 348 352 354 355 354 354 354 352 351 353 350 351 347 346 342 340 341 342 343 352 348 340 341 341 341
349 350 348 347 346 345 347 347 350 351 349 349 344 345 347 345 345 344 352 351 355 355 355 354 354 355 352 353 354 354 350 343 347 342 341 343 342 342 345 350 342 342 340
350 349 347 347 347 346 347 348 352 353 352 351 345 347 345 345 342 344 350 349 351 353 354 355 356 355 353 355 354 354 353 351 346 346 344 344 344 345 343 344 345 343 343
351 351 350 349 349 348 348 350 353 356 354 353 349 349 348 345 347 348 346 346 346 347 351 355 356 355 355 355 356 356 354 353 350 350 345 343 343 343 343 343 343 343 343
351 351 351 349 351 350 350 350 354 357 356 353 351 349 349 345 342 345 347 346 345 345 354 357 355 357 357 355 356 355 354 353 353 353 351 348 344 345 344 343 344 346 345
353 352 351 350 351 351 352 351 354 357 356 352 352 352 350 345 343 341 347 352 347 346 347 353 355 354 354 356 355 353 355 356 357 354 354 353 348 347 346 345 345 345 349
353 353 353 351 350 351 352 352 353 356 357 353 354 353 354 353 348 349 353 350 350 348 350 349 351 354 353 354 355 352 355 355 354 352 354 354 351 348 349 348 346 345 345
351 352 353 352 351 351 351 352 352 354 355 355 355 352 352 352 352 354 353 353 353 353 352 353 352 352 352 354 356 354 354 355 354 356 354 355 355 353 348 348 348 347 347
347 351 352 353 353 352 351 352 352 352 354 354 356 354 353 352 352 352 354 355 356 355 355 356 354 352 352 355 356 356 351 356 356 356 355 355 355 357 356 355 352 349 349
343 350 351 353 353 353 353 352 352 351 352 355 356 355 353 354 352 354 354 355 356 357 356 357 357 354 353 354 357 357 356 354 354 355 356 356 356 357 356 356 352 351 354
344 346 351 351 352 354 356 355 352 351 350 352 353 355 356 355 354 353 355 355 357 358 358 358 358 356 355 354 354 356 357 356 355 355 356 356 357 358 360 359 359 358 357
340 344 348 355 359 356 358 357 354 353 351 352 352 355 357 355 355 354 356 357 358 358 359 359 358 357 356 354 353 355 357 357 357 356 356 356 357 357 359 359 359 358 359
337 339 344 347 354 358 359 359 357 355 353 354 353 353 356 356 356 355 357 358 359 360 360 360 360 358 356 352 351 352 354 355 357 358 358 357 357 357 357 358 358 357 360
337 340 338 344 346 349 356 357 359 356 356 357 355 356 358 358 358 358 359 360 360 361 362 361 361 360 358 353 351 349 350 353 355 355 358 358 353 355 358 360 359 357 355
344 345 346 344 342 345 348 353 356 359 359 358 361 357 360 361 360 361 361 361 361 361 362 363 362 361 361 357 354 351 349 350 352 355 356 357 356 355 356 358 357 359 361
349 349 348 348 347 344 344 351 354 361 360 362 361 361 361 362 363 363 363 363 363 363 363 363 363 363 362 358 355 355 352 352 354 355 354 355 357 358 357 354 356 357 357
347 349 350 350 351 350 347 346 353 357 362 362 362 362 362 363 364 364 364 365 364 364 362 363 363 364 364 362 359 356 356 354 355 356 357 356 355 356 357 358 358 360 360
348 349 352 352 353 353 351 350 351 357 359 361 362 364 363 365 365 365 365 366 365 362 364 363 363 363 362 364 361 358 357 355 353 353 350 351 353 353 353 352 355 357 357
340 346 357 357 356 355 357 357 355 355 358 361 362 364 365 364 363 366 366 366 366 365 366 365 365 362 364 362 363 362 359 357 356 352 346 347 348 349 352 353 354 356 355
335 339 354 358 350 351 356 360 353 359 360 361 362 363 365 365 363 366 367 366 366 363 363 364 362 360 359 362 361 360 360 359 357 355 352 351 353 361 360 359 360 359 357
327 331 344 361 360 359 352 352 363 360 363 364 363 364 365 366 364 364 365 363 362 363 360 360 358 356 353 352 356 359 358 358 358 357 355 356 359 361 363 362 362 360 361
325 327 333 342 346 351 356 360 360 361 362 364 365 364 363 363 364 365 363 363 357 358 360 355 352 351 352 351 353 357 362 358 356 357 357 357 359 361 362 362 363 363 360
324 325 328 332 333 335 337 341 354 362 362 364 363 364 361 363 364 356 352 356 353 354 355 356 357 360 357 358 360 362 366 364 360 357 360 362 362 362 363 362 360 357 355

GFSMW_925_thetae_057.txt.gz
Theta_e
347 345 343 344 345 343 342 346 349 348 346 347 347 349 349 349 349 351 353 350 352 351 347 347 347 347 345 345 344 342 341 343 340 340 341 341 342 341 342 340 342 341 341
348 345 343 345 347 344 342 345 347 348 349 349 346 349 348 349 348 349 351 352 351 350 348 348 349 350 346 350 347 349 344 345 339 342 345 340 338 339 341 341 340 340 341
347 346 343 343 346 348 344 346 348 348 347 349 345 349 347 347 347 351 351 352 352 352 352 351 351 347 349 349 349 347 347 343 341 341 345 339 342 344 341 340 341 339 340
346 345 344 344 344 346 347 345 350 348 347 346 346 349 352 352 349 348 352 353 352 349 354 352 350 348 350 350 345 346 348 344 343 340 342 343 343 342 341 342 342 340 342
347 346 344 343 344 346 346 347 349 348 347 349 345 347 349 349 349 349 352 351 351 352 353 352 354 350 351 349 350 351 351 348 349 341 343 340 340 342 346 342 343 341 341
348 346 345 345 346 346 347 348 350 349 346 346 348 346 347 348 350 351 350 352 353 353 355 353 350 350 351 351 351 354 349 346 347 347 344 342 344 347 346 344 345 343 342
348 348 346 345 345 347 347 349 351 353 348 346 349 346 345 346 347 348 353 353 352 354 355 355 353 353 350 352 348 353 352 349 348 347 347 348 348 346 345 345 346 346 344
343 348 347 346 346 347 347 349 349 352 353 348 345 349 344 344 348 351 355 353 354 352 351 354 353 350 351 352 351 352 349 350 348 349 349 345 347 346 348 344 343 342 346
351 348 349 347 347 347 347 348 349 349 353 351 346 346 350 343 344 347 351 352 353 352 349 353 353 351 352 350 353 351 349 355 353 348 346 343 347 349 350 345 344 345 343
352 350 349 349 347 347 347 348 350 350 352 353 350 346 349 347 342 343 346 349 344 346 350 353 354 353 352 354 354 354 353 351 354 352 354 351 341 343 353 350 348 348 346
351 350 348 349 346 348 347 349 352 351 351 351 353 349 347 350 347 344 343 345 347 349 348 354 353 355 354 354 355 354 353 353 351 355 353 354 355 349 351 354 352 349 348
350 349 346 346 346 347 348 349 351 353 353 353 352 354 349 347 350 348 342 343 343 347 356 354 352 353 354 354 355 355 354 354 354 354 353 355 357 354 353 351 351 353 354
349 340 344 348 347 345 348 350 351 354 355 355 353 354 353 348 349 347 346 340 339 342 346 355 356 355 354 352 352 354 352 353 353 355 354 352 351 357 357 355 357 357 356
346 342 342 343 343 345 345 350 351 353 355 356 356 354 353 353 347 347 344 348 346 345 347 350 355 352 352 353 353 354 353 353 351 355 358 356 355 356 354 355 356 355 355
343 342 341 339 348 344 348 351 352 351 355 357 357 356 355 353 353 349 348 341 353 347 355 355 355 357 353 354 353 353 354 356 354 351 351 357 357 354 356 357 357 358 359
326 327 331 334 348 344 343 340 349 353 352 357 358 358 356 355 354 354 353 351 343 358 351 353 356 357 358 355 355 353 354 358 358 357 356 352 356 357 356 356 357 358 359
319 327 330 344 345 341 340 339 342 353 353 353 358 358 357 356 355 354 353 355 352 349 359 357 357 357 356 358 357 356 353 354 356 358 358 357 355 355 357 357 356 356 355
325 341 337 348 345 347 346 348 349 351 354 354 355 357 357 357 357 356 354 354 356 353 352 357 359 359 358 358 359 358 356 355 353 353 358 358 357 357 358 357 357 356 355
323 336 329 339 350 346 345 346 342 339 347 354 354 356 357 357 358 357 357 355 356 357 355 357 359 360 360 359 359 360 357 355 354 353 353 353 355 355 356 355 355 358 360
321 333 330 339 342 350 338 337 339 342 343 345 356 356 356 358 358 358 357 358 355 356 358 357 358 360 360 361 360 360 359 355 352 353 353 354 355 355 357 359 357 356 354
320 333 340 342 345 349 352 348 340 341 348 354 357 358 356 357 358 359 358 357 358 357 357 359 359 360 362 362 361 361 361 356 353 352 352 351 350 350 349 349 350 354 353
323 336 337 338 342 350 349 354 353 353 353 360 359 357 358 357 359 359 359 358 358 358 358 360 360 360 362 363 363 361 361 360 356 354 354 353 353 352 352 351 352 351 352
330 332 331 333 340 343 342 349 353 358 356 356 361 361 361 358 360 360 359 359 359 359 360 361 361 361 362 363 363 363 361 361 361 357 356 356 357 357 356 355 353 355 355
326 327 329 334 335 333 335 342 347 352 356 361 361 360 363 362 359 363 361 362 362 362 362 362 362 363 363 364 365 365 364 363 363 361 358 357 357 356 354 354 354 352 351
325 325 326 327 327 327 331 335 337 343 350 357 363 364 362 365 362 364 364 364 364 363 363 363 363 363 364 363 364 365 365 365 363 363 357 358 358 357 356 356 360 360 354
323 323 323 324 324 323 325 328 333 335 342 352 361 365 362 365 365 364 361 366 366 365 365 364 364 364 363 364 363 363 365 364 362 359 356 356 357 357 356 356 357 360 361

GFSMW_925_thetae_063.txt.gz
Theta_e
343 341 344 344 344 345 345 345 347 348 347 347 346 347 348 347 348 346 347 348 346 347 346 347 344 346 343 342 341 340 342 342 342 341 341 342 342 342 344 343 343 343 341
344 342 343 347 347 345 345 344 345 347 348 346 345 346 349 348 347 348 348 349 348 345 346 345 344 344 345 345 343 341 346 343 340 339 339 333 336 342 341 343 342 341 343
347 343 344 347 347 345 344 344 345 345 348 347 346 347 348 348 348 349 349 351 349 348 347 347 345 346 343 345 344 342 344 339 340 340 339 333 334 338 341 340 340 341 341
346 344 342 345 347 345 344 344 342 344 348 349 344 347 348 348 348 349 349 351 351 350 347 343 343 348 346 347 344 344 343 338 340 341 343 342 342 335 336 340 340 340 340
347 344 341 343 345 344 344 344 343 344 346 347 345 345 347 347 347 348 348 351 351 350 349 349 350 348 347 348 347 346 346 341 342 340 342 341 340 342 339 338 340 341 340
348 345 343 343 343 343 344 345 345 344 345 345 344 343 345 348 347 347 347 349 351 351 350 350 349 348 348 349 345 346 348 346 347 345 342 341 342 344 344 339 339 339 340
346 347 342 343 342 342 344 346 346 346 345 345 345 342 342 347 349 348 346 349 350 351 351 351 350 349 347 349 347 347 347 346 346 346 344 344 347 346 345 341 342 341 343
346 346 341 344 342 342 343 347 347 346 346 346 345 343 342 345 348 348 349 347 349 350 351 351 351 350 346 348 348 347 348 347 346 347 348 347 347 348 351 346 341 337 340
348 347 342 342 343 343 343 346 347 346 346 346 345 344 343 342 346 347 347 349 347 350 349 350 351 352 350 347 351 348 348 350 346 345 346 346 346 346 347 353 345 342 338
348 344 344 341 343 344 343 345 346 345 345 345 345 344 344 342 343 345 346 347 349 351 351 350 350 353 353 350 350 350 349 349 347 346 345 344 343 345 344 350 352 348 344
342 344 343 343 342 343 344 345 346 346 346 346 345 345 344 343 341 344 345 345 350 352 352 351 351 351 353 352 350 350 350 349 347 351 352 350 348 350 352 348 351 351 353
344 348 347 345 343 343 343 344 346 347 346 346 345 345 344 344 343 341 342 344 344 348 352 352 352 351 352 352 350 350 350 351 350 351 351 350 351 351 354 353 352 353 350
344 341 340 341 340 343 344 344 344 345 347 346 346 345 344 344 343 342 341 342 343 343 345 347 351 352 350 351 351 350 351 351 351 351 353 352 351 353 353 354 355 354 354
335 335 336 339 337 337 343 345 345 345 345 347 348 347 345 344 344 341 341 340 341 341 342 343 347 350 348 350 351 351 350 351 352 352 351 352 352 353 353 351 352 353 352
323 325 332 334 340 343 343 338 344 345 346 345 347 348 348 346 344 344 342 339 339 340 340 343 343 348 354 353 351 350 351 351 351 352 352 350 350 351 354 354 353 354 355
319 322 321 322 330 341 344 342 337 344 346 347 346 347 348 348 347 345 344 343 340 339 340 341 343 343 345 352 352 350 352 352 351 351 350 350 349 350 349 353 356 356 356
314 315 318 320 319 334 337 344 342 340 346 348 347 347 348 348 349 348 346 344 344 343 342 340 341 343 343 342 348 352 352 351 351 350 350 350 348 349 352 351 351 351 354
312 312 313 315 316 326 338 343 343 342 343 350 350 349 349 348 349 350 349 347 345 345 344 343 342 341 343 340 339 343 351 352 351 351 350 350 350 349 352 353 353 354 353
311 311 312 313 318 328 340 340 343 343 344 342 348 352 352 352 350 350 350 349 347 346 346 344 343 344 343 343 340 342 352 353 353 352 352 351 351 351 350 353 353 353 354
310 310 311 314 323 326 334 340 343 342 344 344 344 346 352 353 353 352 351 350 350 349 348 347 345 344 345 345 344 344 351 354 354 354 353 351 350 351 352 352 352 352 352
309 309 310 315 323 325 334 337 342 344 346 345 340 338 342 348 354 354 353 352 351 351 351 351 349 346 347 348 348 348 349 350 352 351 351 350 346 348 351 352 353 353 351
308 308 310 312 320 318 329 334 338 338 341 347 348 344 341 340 341 347 354 353 353 351 351 351 352 351 349 348 350 351 352 352 352 352 351 349 348 345 347 350 350 351 352
307 308 309 312 319 322 322 336 336 333 335 337 340 342 344 350 345 341 348 354 354 353 352 352 352 352 353 352 351 351 352 352 355 353 353 353 351 349 350 351 351 351 351
307 308 310 313 318 324 325 327 330 332 332 332 334 337 341 345 352 353 352 351 354 355 354 354 353 352 353 354 353 354 354 355 354 355 355 355 355 355 354 354 354 352 352
310 310 312 313 318 324 327 326 329 329 329 330 331 333 337 343 352 355 355 354 354 355 355 354 354 353 352 353 355 355 355 355 356 356 354 354 355 355 355 354 354 354 354
309 311 311 313 317 324 325 326 329 327 325 326 330 331 332 337 346 354 355 355 355 355 355 355 355 355 355 354 354 355 356 356 356 355 353 352 353 353 353 353 352 354 355

GFSMW_925_thetae_066.txt.gz
Theta_e
341 343 341 342 343 344 344 345 346 348 345 345 348 348 346 347 347 347 346 347 346 346 346 346 344 343 343 342 340 341 342 342 341 341 340 341 342 341 341 342 343 342 343
340 340 342 340 342 344 344 345 345 347 347 347 347 347 347 347 347 347 346 347 348 345 346 347 345 345 343 343 342 340 344 342 340 338 338 337 336 339 341 341 341 342 341
342 340 343 342 343 344 344 344 344 345 348 347 346 346 347 347 347 347 347 348 348 347 345 346 345 343 344 345 344 341 343 340 339 339 338 338 339 337 340 340 340 340 340
343 341 342 345 345 344 344 343 344 343 347 347 346 346 346 348 348 347 348 348 350 349 348 346 346 345 345 343 342 343 345 338 339 340 342 341 340 341 343 339 339 340 340
344 343 342 346 345 344 344 343 343 343 346 347 346 345 347 347 347 347 348 348 350 350 347 345 343 346 346 346 345 345 346 340 339 341 340 340 339 341 340 344 340 340 340
344 344 342 345 346 345 344 343 343 343 345 347 348 345 346 346 346 347 347 348 350 350 350 349 347 346 347 347 345 345 346 345 343 344 341 340 342 342 342 342 341 339 340
347 345 341 342 344 344 344 343 343 343 344 345 348 346 344 346 346 345 346 346 348 349 349 350 350 347 348 347 348 343 346 347 345 346 344 343 347 346 345 340 341 342 343
348 347 342 341 342 343 343 344 344 343 342 343 346 347 344 344 345 345 345 345 346 347 348 349 349 349 348 348 348 346 347 347 345 345 347 346 346 347 348 350 341 344 340
347 346 344 342 342 342 342 344 344 344 343 343 344 345 344 343 344 346 346 347 348 347 348 349 348 349 350 348 348 348 346 346 346 345 346 346 346 346 345 350 346 341 347
343 344 344 342 342 341 341 344 344 344 343 343 344 344 343 343 341 345 347 347 347 348 347 348 349 348 350 350 349 348 350 347 347 348 346 345 344 344 345 345 352 349 344
347 345 345 341 342 342 341 343 345 345 344 345 345 345 344 344 342 342 345 346 346 347 348 349 351 350 349 348 351 349 348 349 349 348 348 348 347 347 350 351 350 350 351
345 346 344 343 341 342 342 342 344 345 344 344 345 345 344 344 344 341 341 344 345 345 349 351 351 351 350 350 349 350 348 348 349 349 349 350 351 351 350 353 352 352 352
337 337 339 342 342 342 342 343 344 345 345 344 344 345 344 344 344 344 341 341 343 345 344 346 351 351 351 352 351 352 350 349 349 350 350 350 351 350 351 353 352 354 354
321 324 328 332 340 341 341 343 343 344 346 345 345 344 344 344 344 343 342 342 340 341 344 344 344 346 347 349 350 349 351 350 349 349 350 351 351 352 352 352 352 351 352
317 318 319 320 320 328 340 343 341 343 344 345 346 345 344 344 344 343 343 342 342 340 339 343 342 343 343 346 349 349 350 351 350 349 348 349 350 350 350 350 353 353 353
313 314 315 316 317 320 325 337 341 340 343 344 344 346 346 345 344 344 343 343 343 341 341 339 339 340 342 342 345 349 352 351 351 350 350 350 349 349 349 349 350 352 355
312 311 312 313 313 316 321 334 341 342 340 342 344 345 346 347 346 346 344 344 343 343 342 341 340 339 339 341 342 342 347 352 351 350 350 350 349 349 349 347 348 351 350
309 309 309 311 311 312 321 337 339 341 343 342 345 345 345 346 347 347 346 345 344 343 343 343 342 340 338 337 338 340 342 343 349 351 351 351 350 349 349 349 349 349 351
307 308 308 309 310 312 321 328 337 336 342 344 343 348 346 346 346 347 348 347 345 344 343 344 343 343 342 340 336 337 341 342 341 342 344 348 350 350 350 351 350 351 349
306 307 307 308 309 310 317 324 329 334 338 344 346 343 347 349 348 347 348 348 348 346 345 345 345 345 345 345 346 344 343 344 343 343 342 344 349 350 349 351 350 352 350
306 307 307 308 308 309 312 322 324 328 337 336 341 344 339 341 351 350 349 349 349 348 347 346 346 346 347 346 347 346 345 346 345 345 346 345 341 347 348 347 348 348 347
308 308 307 307 307 309 311 318 325 320 335 333 332 335 342 343 340 348 353 351 350 349 349 349 348 348 348 348 348 348 347 346 347 346 347 347 346 342 341 345 343 343 348
309 307 307 307 308 309 311 315 322 328 331 330 331 331 333 338 343 346 341 353 353 352 351 350 350 351 350 349 350 350 350 349 347 348 347 347 346 347 348 347 347 347 349
309 308 308 308 309 310 311 313 318 326 327 329 331 332 332 336 338 343 348 344 350 353 352 351 351 351 351 351 351 350 349 350 350 350 350 351 351 351 351 352 352 352 351
307 308 308 308 309 311 312 312 315 324 326 327 329 330 331 332 335 341 346 350 347 349 353 353 353 352 352 352 352 352 351 351 351 350 349 351 351 352 352 352 353 353 353
306 307 307 307 307 309 311 312 314 322 323 323 324 327 330 331 332 335 340 348 353 354 351 353 354 353 353 352 352 352 353 353 353 349 349 350 351 351 351 352 353 351 351

GFSMW_925_thetae_069.txt.gz
Theta_e
347 348 346 347 346 344 344 345 347 347 346 346 346 349 349 349 347 347 346 345 346 346 346 345 343 344 343 342 341 344 346 346 342 344 344 344 344 345 345 345 346 347 347
348 346 347 346 346 344 345 346 348 346 347 347 348 349 350 349 350 347 346 346 347 346 346 345 344 343 343 341 340 341 348 346 342 344 344 342 341 342 343 344 344 345 345
348 347 346 345 345 345 346 346 347 346 347 348 347 347 347 347 349 348 347 348 348 345 344 346 344 345 345 348 343 342 343 345 343 340 344 343 344 344 344 345 343 340 343
347 346 345 345 345 346 346 347 346 346 348 347 348 349 349 350 350 350 350 350 349 348 346 346 345 344 345 347 346 346 345 340 344 343 344 342 344 346 346 344 344 343 343
348 346 345 345 344 345 346 347 347 347 348 348 348 349 350 349 350 351 349 349 350 349 348 345 346 345 348 344 343 343 343 341 344 344 345 345 345 347 348 347 346 345 344
348 347 345 345 345 345 346 346 346 345 347 346 347 347 350 350 350 350 351 352 353 348 349 347 345 345 348 346 348 344 345 345 345 347 345 345 347 348 348 348 349 348 347
350 348 347 345 346 346 346 346 347 347 347 347 348 346 349 348 347 347 350 352 352 353 351 349 348 346 346 346 347 344 344 347 349 346 348 347 350 350 351 348 347 347 348
351 349 347 346 347 347 347 347 347 347 347 348 348 346 348 349 348 349 349 350 350 351 350 348 347 348 348 347 347 350 349 348 349 345 348 351 351 351 352 353 348 348 347
353 350 347 346 347 347 347 347 348 348 347 347 348 348 348 348 348 348 346 349 347 350 347 348 348 348 349 349 347 351 347 348 349 351 347 350 351 350 350 351 350 349 350
352 351 348 346 346 347 347 347 348 348 347 347 347 347 347 348 348 346 345 347 345 347 350 348 349 348 349 350 348 350 350 347 350 351 351 348 350 349 350 351 352 352 352
348 350 349 347 346 346 346 346 347 348 348 347 347 346 346 347 347 347 345 346 345 347 348 347 349 350 349 350 350 351 351 352 353 350 352 353 352 350 351 352 353 353 352
343 347 348 346 346 345 345 345 346 347 347 347 347 347 345 345 347 346 345 344 347 346 346 347 349 353 352 352 352 348 353 353 353 353 353 352 352 355 355 353 356 354 355
321 325 327 330 343 346 345 344 345 346 347 346 346 347 347 347 347 347 344 343 344 347 348 346 350 351 352 351 350 351 349 354 353 353 354 353 354 355 354 355 355 355 356
315 316 317 318 322 329 340 345 345 345 346 346 345 346 345 346 347 348 347 344 342 342 347 347 346 349 352 353 354 353 355 356 355 354 354 354 354 355 357 356 356 356 356
314 314 314 314 315 317 326 336 342 343 345 346 347 347 347 345 344 345 347 346 346 344 341 346 348 348 351 352 353 354 354 354 355 355 355 353 352 350 352 353 354 356 357
313 312 312 311 312 313 315 327 335 340 343 343 347 347 348 348 347 346 344 347 347 345 345 346 346 348 348 347 346 346 354 355 355 355 355 354 349 347 347 348 348 351 355
312 312 311 310 310 311 311 320 330 338 342 344 343 346 348 349 348 347 347 347 347 347 347 346 346 344 344 345 344 343 349 353 355 355 355 355 353 350 353 351 348 348 347
311 311 310 311 311 310 310 313 322 328 337 346 344 345 347 348 349 349 348 347 347 347 347 348 347 345 344 341 339 339 342 350 352 353 353 354 354 355 353 354 354 354 353
308 308 309 310 311 311 310 310 315 323 326 339 346 347 347 348 349 350 350 349 349 348 347 348 348 347 345 343 340 338 343 346 350 350 351 352 352 346 343 350 354 354 354
307 307 309 311 311 311 311 310 312 317 324 328 337 343 347 346 351 350 350 350 351 349 349 348 348 348 347 345 344 343 344 344 345 347 349 348 346 345 339 341 352 354 352
306 307 309 311 311 311 311 311 312 313 318 323 336 336 339 344 344 347 353 352 352 351 351 350 349 348 348 347 346 347 345 346 347 346 345 344 344 338 338 337 348 351 349
306 307 309 310 310 311 311 312 313 312 315 321 331 332 334 338 343 345 345 352 352 352 353 352 352 351 350 347 347 349 348 347 348 350 349 348 344 341 339 338 338 342 346
306 307 308 310 310 310 311 312 313 313 313 318 328 329 331 335 338 343 346 346 348 353 353 354 354 354 354 352 350 348 351 349 346 349 350 349 348 345 344 343 343 342 346
304 305 306 308 308 309 309 310 311 313 314 314 322 326 328 332 335 337 342 345 346 349 353 354 354 354 355 355 354 351 348 349 347 346 348 349 348 347 347 348 347 348 348
302 303 304 306 308 308 308 308 309 311 314 314 319 325 325 329 333 335 337 344 348 348 348 351 353 353 354 354 354 355 352 349 347 346 348 350 350 350 351 351 351 351 350
303 304 304 305 305 305 306 307 308 311 315 316 318 323 323 326 330 333 334 334 335 341 348 350 350 352 353 353 354 353 352 351 350 347 351 352 352 352 351 352 353 352 352

GFSMW_925_thetae_072.txt.gz
Theta_e
347 346 349 349 349 346 343 345 346 349 348 349 348 349 350 350 350 351 352 352 352 352 350 349 348 349 346 348 350 347 347 343 344 342 341 341 344 342 342 343 343 344 345
349 347 349 349 348 345 342 345 346 350 349 346 347 348 349 350 351 351 352 351 352 350 351 351 350 348 345 349 349 349 343 343 344 342 342 341 342 342 341 342 342 343 343
350 350 350 349 346 345 343 345 348 350 349 346 349 352 352 352 349 353 352 352 354 352 352 353 348 351 348 345 349 348 349 341 344 347 343 344 344 343 341 343 341 344 342
351 350 349 349 346 345 345 346 349 350 350 351 349 351 349 348 349 350 351 353 353 352 352 353 353 353 348 349 349 349 348 344 340 342 344 349 348 347 345 341 342 342 342
349 351 349 348 347 346 346 347 350 351 351 352 349 351 351 348 350 350 351 353 354 352 352 353 353 353 350 351 351 353 350 344 340 341 344 347 348 351 346 344 341 341 341
350 349 348 348 347 347 347 348 350 353 352 354 354 352 351 351 348 350 351 350 353 352 353 352 354 353 352 352 350 353 351 349 346 343 346 345 348 347 346 345 344 344 344
353 351 350 348 347 346 347 348 350 352 353 353 353 353 353 353 352 351 347 351 352 350 353 351 349 350 349 351 350 354 351 352 348 350 346 346 349 350 349 346 345 346 346
353 352 350 349 348 347 348 349 350 352 352 352 353 354 353 351 351 350 347 350 350 351 352 352 351 352 352 351 351 350 348 349 351 352 352 348 349 350 350 350 348 346 345
354 352 350 349 349 349 349 350 350 353 353 352 352 354 354 352 349 349 351 349 349 350 354 352 351 351 352 353 353 351 351 351 352 350 351 350 350 350 350 350 350 349 349
354 353 351 350 349 349 349 350 350 352 353 352 352 352 353 353 352 352 352 350 349 352 352 355 354 352 352 353 355 350 352 352 350 348 351 353 348 350 350 349 350 350 349
348 347 352 350 350 350 350 350 350 351 353 352 352 352 352 352 353 352 352 352 351 352 354 354 354 354 353 354 356 353 352 355 353 350 351 353 353 349 348 350 350 350 350
329 330 330 330 341 349 349 350 350 350 351 351 352 352 352 351 350 352 351 352 352 352 354 354 353 354 354 355 356 353 351 352 352 353 352 352 350 354 353 351 351 349 351
318 318 317 319 323 334 340 349 349 349 349 351 351 351 352 351 351 350 351 350 351 351 352 354 354 353 353 357 357 354 353 355 354 354 353 354 352 352 349 353 350 350 352
316 315 315 316 316 319 324 337 346 349 349 350 350 350 350 350 351 351 351 351 351 351 351 353 354 354 351 353 355 356 354 354 354 355 355 353 353 354 355 354 355 355 354
316 316 314 313 314 314 315 323 334 341 346 349 350 350 350 351 351 351 352 352 352 351 351 350 351 353 354 351 353 356 356 356 355 356 357 355 352 353 355 354 354 355 355
317 315 314 314 313 314 313 315 318 332 336 347 348 350 351 351 352 352 351 352 352 352 352 351 349 349 349 349 351 354 356 356 356 356 357 356 354 352 349 346 345 349 355
317 317 315 313 314 314 315 313 314 323 327 333 347 348 349 351 352 353 353 352 351 351 352 352 351 350 349 345 348 348 350 351 354 355 355 356 353 354 354 353 348 348 348
315 315 314 314 315 315 314 314 314 315 321 326 336 346 346 348 351 352 352 353 353 353 353 353 353 352 351 349 345 345 349 349 350 352 354 355 352 352 355 354 353 353 353
312 312 312 313 315 316 315 315 314 314 315 320 324 335 337 349 350 350 352 352 352 353 353 353 353 353 353 351 348 345 346 345 348 350 351 354 354 354 352 353 352 352 352
311 311 311 312 314 316 316 316 317 316 315 314 318 323 335 336 345 348 350 350 351 352 353 353 353 354 354 353 351 347 347 347 345 345 349 351 352 353 353 355 353 352 349
310 310 311 312 313 314 315 316 317 318 318 316 316 318 329 333 331 340 348 349 352 351 353 353 353 354 354 354 353 351 348 348 348 347 344 343 345 347 347 352 353 352 347
310 310 310 311 312 313 314 315 316 316 317 318 317 316 320 331 329 336 339 348 349 353 354 354 355 355 355 354 353 352 350 348 349 350 349 349 348 346 345 345 344 347 347
307 307 307 307 308 310 312 313 314 314 315 315 317 318 317 322 328 331 337 338 347 349 354 354 354 355 355 356 355 353 351 349 347 350 352 352 352 351 350 347 345 344 345
307 306 306 306 307 308 309 311 312 312 313 313 315 317 318 319 324 327 329 334 338 344 348 352 355 354 355 356 357 356 353 351 348 347 347 350 351 351 351 350 348 346 347
307 306 306 306 306 306 307 308 308 309 310 312 313 316 318 319 322 325 327 331 335 340 344 349 351 354 355 355 356 357 358 356 351 348 350 351 351 352 352 351 350 350 349
306 306 306 305 305 305 306 306 306 306 308 310 312 315 318 319 320 322 324 326 331 333 332 335 345 348 352 352 353 354 354 354 354 350 351 353 354 354 354 352 351 351 351

GFSMW_925_thetae_075.txt.gz
Theta_e
347 347 344 347 347 346 345 346 347 349 348 348 347 347 348 350 349 350 353 352 353 351 352 349 349 352 347 348 348 347 346 344 343 346 342 341 342 342 340 342 342 343 345
348 347 345 349 348 347 345 346 347 351 349 348 348 347 347 348 349 352 352 352 352 352 351 350 347 348 348 350 348 347 346 342 343 347 345 344 342 341 341 341 341 343 343
349 348 348 349 349 346 344 346 347 351 350 347 349 350 351 351 353 353 350 352 352 352 352 354 350 346 350 346 349 348 348 346 340 343 345 351 349 342 343 342 342 343 342
349 348 348 349 349 345 342 345 347 351 350 348 347 350 349 349 347 350 350 352 353 353 353 351 352 350 348 347 346 345 351 343 341 341 342 349 350 357 342 340 341 341 342
350 350 350 349 348 344 344 347 350 351 349 350 352 351 351 348 349 350 354 354 354 353 352 353 353 353 352 347 351 352 350 343 343 342 343 346 344 346 349 343 341 341 341
352 349 349 349 348 344 344 348 352 353 353 353 353 353 352 352 351 349 353 351 350 351 352 353 354 354 354 351 350 351 351 350 347 347 343 346 346 349 344 343 345 343 344
352 352 350 349 348 347 344 347 353 355 355 354 355 354 354 353 356 353 350 350 351 348 353 354 355 353 353 351 351 352 352 349 347 344 349 345 347 350 346 347 346 346 345
353 351 351 350 349 348 345 346 351 355 356 355 356 356 356 352 350 352 349 349 351 350 354 354 353 353 353 353 352 352 349 348 349 348 351 351 347 348 348 349 348 346 346
353 353 350 351 349 349 346 346 351 355 356 355 356 357 357 355 349 350 352 351 350 350 355 353 353 353 353 353 353 351 348 351 350 350 349 349 349 346 348 347 347 350 352
347 344 348 351 350 349 348 346 349 354 356 355 356 356 356 357 355 351 352 350 350 351 352 354 353 353 352 353 354 351 352 351 350 347 348 349 350 348 347 347 348 348 349
337 339 335 340 345 347 350 349 349 351 355 355 355 355 356 356 356 354 353 353 351 353 353 356 355 355 354 353 354 355 353 353 352 351 350 354 352 351 347 346 347 348 349
322 328 327 329 330 335 340 349 350 350 352 353 355 355 355 355 355 356 354 354 354 352 352 355 355 355 355 355 355 354 350 353 353 352 351 351 351 354 351 352 350 350 352
321 319 321 319 321 326 336 340 346 350 350 351 353 354 354 355 355 354 355 354 354 354 351 354 354 354 354 355 356 355 354 354 353 353 352 352 353 352 352 352 349 350 353
319 319 317 317 317 318 322 330 335 344 348 350 352 353 355 355 355 355 354 355 354 354 353 352 354 356 353 353 356 356 356 355 355 355 353 353 353 354 354 354 354 352 353
318 318 318 317 317 318 317 317 325 333 338 344 351 353 354 355 354 354 355 355 355 354 354 353 353 354 354 351 353 354 354 355 356 355 355 354 353 353 354 354 354 352 355
319 318 317 317 317 317 318 317 319 323 330 334 343 352 353 353 355 355 355 355 355 355 355 354 353 352 351 349 350 352 354 354 356 356 357 357 354 352 351 352 352 353 357
319 319 318 317 318 318 317 318 318 318 321 324 331 338 347 352 351 354 354 355 356 356 357 356 355 354 353 348 347 350 350 354 357 356 357 356 351 353 355 353 346 341 341
319 319 318 317 317 318 318 318 319 319 318 320 321 325 331 342 348 351 352 354 355 355 355 356 357 357 356 353 349 346 348 351 351 353 356 356 355 355 357 356 356 356 354
317 316 316 316 317 319 319 318 320 321 321 319 319 317 325 333 338 342 350 353 354 354 355 355 356 357 358 356 353 350 347 347 351 352 351 353 356 357 352 355 357 356 356
315 315 315 315 316 318 318 319 320 320 322 321 321 320 319 326 335 336 337 345 352 355 355 355 355 356 357 358 356 354 351 349 349 350 351 350 351 353 356 355 355 357 356
314 313 314 315 316 316 317 318 319 320 321 321 321 322 322 320 326 332 334 339 344 350 354 355 355 354 355 357 356 356 354 352 351 350 350 349 348 345 349 352 356 357 357
312 312 312 312 312 313 314 316 317 318 318 319 319 320 321 323 320 324 331 333 339 342 354 355 355 354 354 355 356 356 355 354 353 352 350 349 348 346 344 344 345 346 352
311 311 311 311 311 311 312 313 314 315 316 317 317 318 319 321 323 322 327 330 334 337 340 352 353 354 354 353 356 355 355 354 353 353 352 351 351 351 350 347 345 345 347
311 310 310 311 311 310 311 310 311 312 312 313 314 315 317 318 320 322 321 324 326 332 335 343 347 352 354 354 355 356 356 355 353 352 351 350 351 351 352 352 352 350 347
310 309 309 309 310 310 309 309 310 310 310 311 311 312 315 316 318 320 322 322 324 329 332 335 341 341 340 354 353 352 350 354 353 351 353 352 351 351 352 354 354 355 353
309 308 308 308 309 308 308 308 307 307 308 308 309 311 312 314 316 319 322 322 323 323 323 325 328 330 332 333 334 346 348 349 352 354 353 354 355 356 355 356 356 356 355

GFSMW_925_thetae_078.txt.gz
Theta_e
347 347 344 343 342 346 346 346 351 348 350 347 349 348 350 349 349 350 353 352 349 352 350 352 346 353 348 344 347 346 345 346 345 344 345 343 339 341 342 344 345 343 346
347 347 345 346 346 347 347 348 351 349 349 347 349 348 350 350 349 351 353 354 352 349 351 350 345 350 350 348 349 348 347 345 343 346 347 347 345 342 341 342 342 344 343
349 348 346 349 347 348 347 349 350 351 348 350 347 351 348 350 347 348 352 352 353 351 353 350 351 346 351 346 347 347 347 345 339 340 348 352 352 346 340 341 342 342 343
348 347 350 350 349 347 348 349 351 351 347 350 349 348 351 351 351 353 353 353 351 352 353 352 353 350 348 349 346 347 345 344 346 340 341 346 346 358 351 343 341 344 342
350 349 347 350 350 349 347 350 349 354 348 349 350 350 349 349 349 352 352 352 353 349 351 349 351 351 349 344 348 349 348 349 349 345 345 342 350 349 356 350 342 342 342
351 350 347 349 350 348 343 349 350 354 353 348 351 351 351 349 347 351 343 353 351 352 351 350 351 353 349 352 341 349 350 349 347 343 348 349 347 348 353 351 345 345 343
354 351 349 350 351 346 345 351 354 356 354 350 353 355 354 353 350 347 348 353 352 352 351 352 354 350 351 350 352 349 350 348 346 352 345 352 346 349 349 350 349 349 344
353 354 350 351 350 346 348 353 356 357 356 356 355 352 353 353 353 349 353 350 347 350 351 351 353 353 351 352 351 352 349 350 342 345 347 349 349 349 347 350 350 357 351
347 350 352 352 350 348 348 352 357 358 358 357 357 356 354 352 353 348 347 352 350 350 351 351 353 352 352 352 352 348 349 344 347 352 344 345 348 349 345 346 347 349 359
342 343 345 348 347 351 347 352 357 359 358 358 358 359 358 356 352 353 351 355 353 350 343 349 352 352 353 352 352 353 349 351 349 346 350 341 342 349 351 347 347 347 348
332 337 334 336 343 347 348 348 357 358 359 359 358 358 359 359 356 354 354 349 353 354 349 342 350 353 352 352 353 350 351 350 347 351 352 349 351 345 352 353 351 347 349
325 328 328 327 329 336 340 342 347 350 358 358 358 358 359 358 359 357 355 354 352 353 353 351 353 352 354 354 352 352 354 352 353 348 348 351 353 350 349 349 350 349 349
321 324 325 324 324 324 331 336 338 342 346 353 358 358 358 358 359 358 357 356 356 355 354 351 355 354 353 353 353 352 353 351 353 354 353 350 352 352 351 351 354 352 354
322 322 323 321 322 321 323 327 334 342 339 344 351 355 358 357 357 357 357 356 356 357 355 353 355 352 354 354 354 353 353 353 353 353 353 354 353 353 352 352 352 352 354
321 322 322 321 320 321 321 321 323 328 333 337 343 347 344 356 357 355 355 356 356 356 357 356 354 355 353 355 353 355 354 351 350 353 355 355 356 354 354 354 355 355 353
321 320 321 320 320 320 321 321 319 322 325 329 334 339 346 348 353 353 354 355 355 355 356 357 356 355 357 353 352 352 356 356 356 352 352 356 354 356 352 352 353 354 354
322 321 320 320 321 320 320 321 321 320 320 320 321 328 336 342 348 353 355 355 355 355 356 357 358 357 355 353 348 349 352 355 357 355 353 354 354 356 354 352 351 348 344
321 320 319 319 320 321 321 321 322 323 323 322 322 321 321 331 338 344 347 352 353 354 355 357 358 359 358 356 352 350 348 351 351 352 356 355 354 352 355 358 358 355 352
319 318 318 318 319 321 321 321 322 323 325 325 324 324 322 319 328 339 338 340 348 352 353 353 355 358 359 359 357 355 352 350 349 352 351 351 356 356 353 350 353 359 359
317 317 317 317 319 319 319 320 322 322 324 323 323 323 324 325 323 322 331 333 338 343 350 352 353 354 356 359 359 357 356 354 352 350 349 351 352 349 354 359 356 355 353
315 315 315 316 316 316 316 318 320 321 321 321 321 322 322 323 324 323 322 331 333 336 342 347 351 352 354 355 357 358 358 356 355 354 353 352 351 349 349 348 351 357 356
314 313 314 314 314 314 315 316 317 317 317 318 319 320 320 321 322 323 326 322 327 333 339 340 344 351 354 355 354 355 356 357 357 356 355 354 354 351 351 350 347 345 349
313 313 313 313 313 313 313 314 314 313 314 315 316 316 317 317 319 321 324 327 325 331 334 338 339 344 352 354 353 354 353 354 356 356 356 355 353 353 352 351 349 347 345
312 312 311 311 312 312 312 312 311 312 312 313 313 314 314 314 315 317 320 322 324 323 326 330 337 343 347 346 352 352 352 351 351 352 355 355 355 354 352 352 352 352 348
311 311 310 310 311 311 310 310 310 310 309 309 310 311 312 313 315 316 318 321 322 324 325 326 328 329 331 337 335 339 337 337 344 350 350 353 353 353 352 352 352 353 353
311 310 310 309 309 309 309 308 308 307 307 307 307 308 308 310 311 312 314 315 317 318 321 323 322 322 322 323 325 326 327 330 331 341 350 352 355 356 357 355 353 353 355

GFSMW_925_thetae_081.txt.gz
Theta_e
345 345 342 343 342 345 345 349 349 347 347 344 350 348 350 345 348 349 348 349 348 350 349 349 349 349 347 346 345 348 346 346 343 344 345 345 345 344 344 343 345 344 345
344 345 343 344 344 346 345 347 346 348 347 343 349 349 349 349 349 349 350 350 348 351 350 347 349 344 347 349 347 348 347 346 344 344 348 344 342 341 342 344 344 344 346
346 344 343 343 346 346 345 347 348 348 348 343 347 350 349 349 348 349 350 352 350 349 350 348 349 348 348 348 348 346 345 349 339 340 348 347 349 344 340 342 343 342 343
346 345 345 347 347 347 346 346 350 348 346 350 351 350 349 349 347 346 351 352 352 350 352 351 351 348 350 346 348 350 347 349 348 344 345 345 347 347 341 341 340 343 344
347 346 348 348 348 347 348 346 349 349 344 349 351 350 347 349 351 350 352 352 351 351 352 351 352 348 345 346 347 349 347 347 349 346 351 346 351 350 351 339 340 341 342
349 345 347 348 348 348 349 347 350 351 348 346 350 351 349 348 347 351 350 351 351 348 347 348 351 347 344 344 346 350 349 344 346 348 346 353 347 347 351 344 341 342 342
349 346 347 350 350 348 349 350 349 353 350 346 349 349 351 348 341 348 348 350 351 352 351 349 351 348 348 349 345 350 349 344 343 350 345 348 350 350 350 352 348 344 346
350 350 348 349 349 348 349 350 347 351 352 352 348 348 349 348 351 348 347 350 350 351 351 351 351 351 343 350 348 349 348 348 339 341 342 342 346 349 350 349 349 349 352
349 350 348 348 349 347 347 350 349 349 353 351 348 350 351 351 350 348 347 350 345 348 351 352 350 350 349 350 352 349 344 349 348 343 351 343 341 345 350 351 348 348 349
345 344 341 342 347 348 348 352 352 351 353 354 353 352 351 351 351 353 351 352 350 349 350 348 349 352 352 350 351 350 348 348 344 347 347 348 345 340 344 352 352 350 349
331 335 336 337 343 343 346 350 351 352 349 352 353 353 353 352 349 351 350 353 351 350 349 349 346 349 351 353 351 349 351 350 346 347 352 350 350 349 343 344 349 350 351
327 327 327 329 334 339 342 343 344 346 348 352 352 351 355 355 352 350 349 355 351 352 349 345 348 352 351 353 351 351 347 350 350 348 348 349 351 353 351 351 347 352 352
323 325 324 324 327 331 339 339 343 346 344 347 349 353 355 356 353 353 352 354 353 351 353 351 346 350 350 352 353 350 352 352 351 350 350 346 349 347 349 350 348 351 350
321 323 323 325 323 325 328 329 333 341 341 338 344 348 351 353 353 354 356 353 354 354 352 353 352 353 352 354 354 352 351 351 353 351 354 353 351 351 351 349 348 349 350
322 321 322 323 324 322 320 328 330 335 336 340 341 342 344 345 349 350 353 356 356 356 356 354 354 355 353 352 354 354 352 351 351 351 352 352 355 354 354 352 352 351 352
322 322 322 322 321 322 322 319 323 327 327 332 335 343 342 336 338 338 343 353 354 355 355 355 355 353 356 353 351 353 352 353 352 350 349 352 352 355 357 354 353 353 352
319 319 320 322 321 321 323 322 323 321 319 320 329 337 338 339 341 343 344 349 353 354 354 355 357 355 354 354 356 354 354 352 354 353 353 353 351 349 352 351 354 353 351
319 318 320 321 321 321 321 323 324 325 325 325 325 323 323 325 328 339 341 342 346 351 354 354 354 355 357 357 353 351 352 352 354 356 356 355 353 352 351 353 355 355 353
317 317 318 321 319 319 321 322 322 324 323 323 323 324 325 326 323 320 326 334 335 340 346 351 352 353 354 354 357 358 354 353 351 350 351 353 353 354 355 353 354 356 355
316 316 317 316 315 316 317 319 321 321 321 321 321 321 322 321 322 326 326 323 326 332 334 341 346 351 352 353 354 355 354 355 354 353 352 350 349 351 353 353 355 357 356
314 315 314 314 314 314 315 316 316 315 315 316 316 317 318 319 320 320 320 321 325 323 324 327 332 338 346 351 352 353 355 355 354 354 354 353 353 351 349 348 350 351 348
313 314 314 314 313 313 313 314 313 313 313 313 314 314 315 314 315 316 318 320 321 326 324 328 331 334 337 344 348 349 350 354 354 355 354 355 354 354 353 352 351 350 349
313 312 311 312 313 312 312 312 312 311 310 311 312 311 311 312 312 313 314 317 319 321 323 324 325 330 338 338 348 353 354 355 355 354 354 353 354 355 355 353 352 351 350
311 310 310 311 311 311 310 310 310 309 308 308 308 308 310 310 310 311 312 315 318 319 321 324 326 327 325 326 343 338 345 346 338 333 345 350 351 353 355 355 355 354 351
310 310 310 309 309 309 309 308 307 306 306 306 306 306 305 306 307 308 310 311 312 313 313 314 316 318 321 323 323 322 322 323 324 324 326 330 346 350 351 352 353 353 352
310 310 309 309 308 308 307 307 306 305 304 304 304 304 304 303 305 305 306 308 309 310 311 312 314 316 317 320 323 322 323 322 323 327 330 335 343 351 353 353 353 353 353

GFSMW_925_thetae_084.txt.gz
Theta_e
341 342 348 349 349 347 346 346 345 344 346 349 347 347 347 347 347 347 345 346 345 349 346 345 346 345 346 347 347 345 345 345 343 343 344 345 344 344 344 344 344 344 344
342 340 344 347 347 348 348 345 342 344 344 348 349 348 348 345 347 348 348 346 347 347 349 346 346 346 346 346 348 348 346 345 344 345 345 340 341 341 343 344 343 345 345
345 340 342 343 346 345 349 347 346 346 345 345 348 349 349 348 348 347 348 348 348 347 349 342 347 346 348 348 348 345 345 345 342 343 346 343 343 341 341 344 344 345 344
345 342 342 343 345 344 346 349 347 346 346 344 346 350 349 348 348 348 349 350 350 350 346 349 347 346 345 346 347 350 347 345 346 345 347 347 348 340 337 342 343 340 344
346 344 341 344 345 345 345 347 346 346 346 347 345 349 349 349 348 346 347 350 351 349 351 345 347 348 348 347 348 349 346 347 345 348 351 350 352 349 344 337 340 342 343
346 346 344 345 345 346 346 347 348 347 347 349 350 350 349 347 349 347 349 350 352 349 347 349 349 348 346 346 346 349 348 347 346 347 349 349 347 349 349 342 338 339 341
348 345 346 347 346 347 347 348 349 348 347 345 348 350 350 348 349 350 349 351 350 350 350 349 349 349 342 344 345 347 350 346 342 346 344 347 349 349 350 349 345 343 343
349 346 346 347 347 347 348 348 349 348 348 347 346 349 351 348 345 347 349 349 350 349 351 350 350 349 347 344 347 348 348 347 343 342 343 345 343 345 351 350 348 345 348
348 349 346 348 348 347 349 348 348 348 347 347 346 348 349 348 346 349 348 346 350 349 350 350 349 349 350 347 347 347 348 345 348 346 344 349 342 341 346 352 351 347 344
338 343 343 345 348 347 348 349 348 348 348 348 348 348 348 348 344 347 348 344 349 347 349 350 350 348 346 345 349 348 348 347 345 344 346 347 347 347 344 344 349 352 348
334 333 337 342 346 347 347 349 349 348 348 350 350 349 346 348 348 345 350 350 350 349 349 350 350 348 347 351 352 351 349 347 348 344 347 347 350 349 350 348 346 348 350
329 330 329 334 341 342 345 347 346 346 347 347 349 349 347 346 349 350 352 351 352 350 349 349 348 346 349 350 353 351 349 348 350 347 345 347 349 350 352 349 348 349 352
325 325 327 328 331 336 340 345 344 342 343 342 346 347 347 347 347 349 349 350 351 351 349 350 344 342 348 350 351 352 350 348 347 352 349 349 348 347 346 345 348 347 348
323 324 325 325 327 329 333 340 343 344 344 342 342 342 346 347 348 350 349 348 349 352 350 350 350 346 344 349 350 351 352 350 350 351 350 350 351 350 349 349 350 349 349
321 322 324 324 323 326 328 331 338 341 340 341 342 340 343 342 342 346 346 347 351 351 350 351 351 352 351 351 350 353 354 351 350 350 350 350 351 352 351 353 353 352 351
321 322 322 323 323 322 324 327 330 333 336 339 341 341 342 339 340 338 340 339 339 350 351 352 353 354 354 355 354 352 352 353 353 351 350 349 351 351 351 354 355 356 353
321 321 321 321 322 323 323 321 320 320 326 330 334 337 339 339 339 341 341 338 337 346 351 352 353 353 353 354 352 354 353 352 353 353 352 351 350 349 349 350 354 354 353
319 319 320 320 321 322 324 325 325 326 325 326 325 326 329 334 337 333 335 336 339 341 344 350 352 353 353 353 353 354 353 354 353 352 353 354 353 352 352 351 350 349 352
315 317 317 316 317 319 322 324 322 321 321 321 322 322 321 321 323 326 326 324 329 331 333 338 343 350 352 353 352 353 354 354 353 352 352 351 351 354 355 355 353 353 352
315 314 315 315 315 316 318 317 315 315 315 316 316 317 317 318 319 319 318 319 322 325 322 321 326 333 342 346 350 352 351 352 353 352 352 353 352 351 349 350 352 354 353
314 314 314 314 314 314 314 313 313 313 313 313 313 313 313 314 314 314 313 314 316 318 321 323 322 325 330 332 338 345 350 351 352 352 351 351 352 352 352 353 351 350 349
313 313 313 313 312 312 312 311 311 310 310 310 310 310 310 311 312 313 314 316 317 319 320 322 324 325 326 330 341 340 346 348 350 351 352 353 354 353 354 353 353 353 352
311 312 312 312 312 310 310 309 308 308 308 307 306 307 308 308 308 309 310 311 311 313 314 315 315 317 318 321 324 331 327 335 345 342 341 337 343 350 352 353 354 354 354
310 310 310 310 309 309 308 307 306 306 305 305 305 304 304 304 304 305 307 308 309 310 309 310 310 312 313 316 317 318 318 323 323 323 322 323 324 328 331 338 347 351 353
309 310 310 309 308 307 307 306 305 305 303 303 303 303 302 303 303 304 305 305 306 307 308 308 309 310 310 313 314 315 317 319 320 321 322 322 323 327 329 334 342 349 349
310 309 308 308 307 307 306 305 305 304 302 302 303 302 302 302 302 302 302 302 303 303 304 304 305 306 307 307 312 317 318 319 320 319 320 322 324 329 332 335 341 349 351

GFSMW_925_thetae_087.txt.gz
Theta_e
345 346 347 348 348 348 348 347 344 344 343 347 347 346 346 347 346 346 346 348 346 346 347 345 347 346 346 346 345 344 345 345 344 343 344 343 344 344 344 344 343 344 343
345 348 348 348 347 347 348 348 347 347 346 345 346 346 346 346 347 346 346 346 346 344 347 343 345 344 346 346 345 348 346 345 345 344 344 338 339 341 342 344 344 343 344
344 347 348 348 347 347 347 348 346 345 347 347 347 347 348 346 345 347 348 347 346 346 348 347 344 346 345 345 346 345 345 344 344 344 343 341 339 339 340 342 342 343 343
341 345 347 347 346 346 346 346 344 342 345 347 348 347 347 348 347 348 347 348 349 348 348 344 347 346 346 347 347 348 347 345 346 346 346 346 347 337 335 341 342 343 342
340 343 345 346 345 346 346 345 343 344 343 343 347 347 348 347 347 347 347 348 350 348 347 347 346 347 347 346 345 347 347 346 346 348 349 349 349 348 340 336 339 339 341
343 342 343 343 344 345 348 347 345 345 345 344 344 345 347 348 348 347 345 349 351 349 346 347 342 345 347 345 346 348 346 346 347 346 348 348 348 349 348 342 338 336 340
345 342 343 343 344 345 348 348 348 346 345 346 346 347 349 348 347 348 347 348 350 350 350 349 347 346 346 346 345 347 348 346 343 345 344 345 347 348 350 347 345 340 341
345 345 343 344 344 345 347 347 347 346 347 347 349 348 347 349 348 348 348 348 348 349 350 350 349 348 348 342 345 344 347 347 345 343 342 347 343 344 351 349 347 343 345
347 346 345 345 345 345 346 348 347 347 347 346 345 348 348 350 348 345 347 348 348 348 348 349 350 349 348 348 345 346 347 345 345 346 345 345 346 344 342 347 351 345 342
338 341 344 347 346 346 347 347 349 349 348 347 347 345 347 348 348 346 348 347 345 348 349 349 350 349 348 349 347 348 347 347 345 346 344 345 346 348 348 344 348 350 348
336 336 336 345 347 346 347 348 348 349 349 348 348 348 347 348 347 347 346 348 345 347 348 347 349 350 348 347 344 348 349 349 345 347 346 346 348 349 350 350 347 349 351
331 332 333 336 343 346 347 347 348 346 346 347 349 350 350 349 347 346 347 346 350 350 349 348 349 350 348 348 348 351 350 349 347 347 348 342 345 348 350 351 348 347 347
327 329 331 332 334 340 344 346 345 344 344 344 345 347 347 349 349 348 349 347 349 350 349 349 349 349 346 347 348 350 351 351 349 346 347 351 347 347 347 347 345 346 347
326 326 327 328 332 335 338 340 342 344 343 344 341 341 343 344 344 345 347 349 349 350 351 350 349 349 344 342 347 349 349 350 350 349 348 349 349 349 349 349 349 350 350
324 325 325 325 327 331 333 338 338 341 343 343 342 343 340 340 341 340 341 341 343 348 349 350 351 350 349 346 346 347 349 350 350 350 349 349 349 349 351 353 351 352 353
322 322 323 323 324 327 329 331 334 336 339 339 339 338 337 340 339 341 339 338 340 339 343 348 350 350 351 350 350 351 351 351 352 351 351 352 350 349 348 351 351 351 353
322 322 322 322 323 322 322 323 326 330 331 331 332 334 336 337 338 338 337 339 339 338 340 344 348 349 351 352 352 352 352 353 353 352 351 351 352 352 350 349 348 349 349
321 320 320 319 322 323 324 325 325 324 324 323 324 324 324 325 330 330 333 332 335 337 336 337 340 342 347 349 351 351 352 352 352 353 353 353 351 351 352 352 352 352 351
316 315 316 318 320 322 321 320 319 318 318 317 318 318 319 320 320 321 320 322 325 324 330 326 327 327 332 341 345 348 349 350 352 352 352 352 351 351 351 350 349 350 353
314 314 315 317 318 316 317 316 314 314 313 313 313 314 314 315 314 314 315 315 315 317 320 321 321 322 326 331 334 337 342 347 349 350 350 351 351 351 350 351 351 351 350
313 313 314 314 313 313 314 312 311 310 310 311 311 310 311 312 312 312 314 315 316 317 319 321 323 323 327 323 338 336 337 341 347 348 348 349 350 351 352 352 351 351 351
312 312 312 311 311 311 311 310 309 308 308 308 307 308 308 309 309 310 311 311 312 314 315 315 316 318 318 317 318 321 319 321 330 333 335 339 341 343 346 351 352 352 352
312 312 312 310 310 310 310 308 306 307 306 305 305 305 305 304 305 306 307 308 309 309 309 309 310 311 313 314 316 317 318 319 319 320 322 322 323 323 323 326 333 338 342
311 311 310 309 309 308 308 307 305 304 303 303 303 303 303 303 303 304 304 305 305 306 306 306 306 306 307 308 309 310 312 315 317 318 320 321 322 323 322 322 322 324 326
310 310 309 308 307 307 306 305 304 303 302 302 302 302 302 302 302 302 302 302 302 303 303 304 304 305 305 305 305 306 308 310 312 315 318 320 320 321 322 323 325 328 331
309 308 308 308 307 306 306 305 303 302 301 302 302 302 302 302 302 301 300 301 300 301 302 303 303 303 303 304 304 305 305 309 312 314 316 317 318 319 321 322 323 324 327

GFSMW_925_thetae_090.txt.gz
Theta_e
345 343 344 346 347 348 348 347 348 347 345 345 346 345 346 346 346 346 346 346 345 344 345 345 345 345 346 345 345 344 344 345 344 343 344 342 343 343 343 343 343 343 343
344 345 346 347 347 348 348 347 347 345 346 346 345 345 345 346 346 346 346 347 345 345 345 344 346 344 345 345 345 346 345 344 343 342 342 344 340 339 340 341 342 343 343
345 346 346 347 347 347 347 348 344 343 343 347 346 345 345 345 346 346 347 345 347 345 344 345 343 344 345 345 345 345 345 343 345 343 342 346 346 338 339 341 341 342 342
346 347 346 346 346 346 346 348 345 346 345 345 345 346 346 347 345 345 347 347 347 346 346 347 343 346 347 346 346 347 346 345 346 346 345 345 347 345 342 339 341 341 340
345 347 347 347 346 346 346 347 347 346 346 346 346 347 346 346 346 346 347 347 349 348 346 346 346 345 344 344 345 347 346 345 345 348 347 347 346 347 341 346 338 339 340
342 347 347 347 346 345 345 346 347 345 344 346 347 347 346 347 347 347 346 346 349 348 347 346 346 346 346 345 344 348 345 345 346 344 347 347 348 348 347 345 342 336 339
341 345 346 346 345 344 346 346 345 345 343 343 344 345 346 347 348 347 346 345 348 350 347 346 347 343 347 345 345 346 347 344 343 343 344 344 345 350 348 346 345 341 341
342 343 344 345 345 345 346 347 346 344 344 344 344 344 345 348 348 347 348 346 348 349 346 348 347 345 346 345 345 345 346 347 345 344 342 346 344 341 345 349 348 348 344
346 344 343 344 344 344 345 347 347 345 345 345 346 347 347 347 348 347 346 347 348 348 348 349 348 348 348 348 344 345 345 346 344 343 344 343 345 347 344 345 349 345 350
342 344 344 343 343 344 344 347 347 347 346 345 347 348 348 348 348 347 346 345 347 347 347 348 348 347 347 348 348 346 346 346 347 344 344 343 343 346 349 347 346 348 347
338 338 338 345 344 344 344 346 348 348 346 345 346 345 346 347 348 348 347 346 347 345 345 346 348 349 348 348 348 346 347 348 347 345 344 345 345 346 348 350 348 347 350
334 335 336 340 345 345 346 347 347 347 347 346 347 347 348 347 348 348 347 347 346 346 347 347 346 347 349 350 348 344 345 347 348 346 346 347 344 345 347 349 350 348 346
331 332 334 335 339 345 347 345 346 346 346 346 344 345 348 349 349 348 346 345 347 348 348 347 347 348 349 348 348 347 347 348 347 348 348 346 348 346 345 345 346 346 346
329 329 330 332 334 340 342 343 343 343 342 343 342 341 341 342 344 345 345 346 346 348 348 348 348 349 348 346 346 343 347 348 348 348 348 348 347 348 348 348 347 348 348
327 328 328 329 331 334 338 341 341 342 343 342 343 342 341 339 340 339 341 342 341 343 346 348 348 350 349 349 347 344 345 346 348 349 349 349 349 348 347 348 350 351 351
324 325 325 326 328 329 331 334 337 338 340 340 340 339 340 340 339 339 338 338 339 339 340 344 346 347 349 350 349 348 349 350 350 350 351 351 351 351 350 349 349 349 351
322 323 323 323 323 323 326 328 330 333 334 334 334 334 336 336 336 336 335 337 336 336 336 337 340 343 346 347 348 350 351 352 352 352 353 352 351 351 351 351 350 350 350
321 320 319 321 323 324 322 322 323 323 323 321 322 323 325 327 326 326 329 329 331 330 331 330 330 331 332 335 340 345 347 349 351 352 351 352 351 351 351 350 350 350 350
317 317 319 321 322 320 319 319 317 317 317 315 315 316 317 317 317 317 318 318 320 321 323 326 325 325 331 335 338 338 340 345 348 349 350 351 352 351 351 350 349 349 349
316 317 317 317 318 316 317 316 313 313 312 312 312 312 313 313 313 313 314 315 317 319 320 323 324 326 323 331 327 333 335 339 342 345 346 348 349 350 350 350 350 349 350
315 315 316 315 314 314 315 312 310 309 309 309 309 310 310 310 310 311 312 313 314 315 317 318 318 318 320 318 322 319 319 318 325 334 339 342 340 338 342 345 348 350 351
312 313 312 311 312 312 312 309 308 307 306 306 307 307 307 307 307 308 309 310 310 311 311 312 312 313 314 313 313 314 315 315 316 317 319 321 323 324 326 326 328 327 329
311 311 310 310 310 309 309 308 306 305 305 304 304 303 304 304 304 305 305 306 306 307 306 307 306 307 307 308 309 309 309 311 313 314 316 318 320 321 322 324 324 323 323
310 310 309 309 308 308 307 306 305 303 303 303 303 302 302 302 302 302 302 303 303 303 303 304 304 304 305 305 304 305 305 306 307 309 311 313 316 318 320 321 321 322 323
310 310 309 308 307 306 306 305 304 301 301 302 302 302 302 302 301 300 300 301 301 301 302 302 302 302 302 302 302 303 303 304 304 307 308 310 312 314 316 318 319 320 321
310 309 309 309 307 306 305 304 302 301 301 302 302 302 301 301 300 300 300 300 300 300 300 300 300 300 301 301 301 300 301 302 303 305 307 310 312 314 316 317 319 320 321

GFSMW_925_thetae_093.txt.gz
Theta_e
347 347 347 348 348 349 349 349 349 346 346 347 349 349 348 347 347 343 345 345 344 342 344 345 344 345 349 346 346 346 348 348 345 347 347 346 345 347 346 346 347 346 347
349 346 347 348 348 349 350 350 349 347 346 348 349 349 348 348 348 346 346 346 345 344 345 344 345 344 347 345 345 345 348 347 344 347 348 347 344 344 343 343 344 345 346
349 348 347 348 348 349 350 350 347 346 345 347 346 345 345 346 348 347 347 345 345 345 344 344 344 343 346 349 346 345 345 348 349 346 348 350 348 346 342 344 345 342 346
349 348 348 348 348 348 349 350 346 346 344 346 348 345 348 347 349 350 349 348 346 345 345 347 344 345 346 345 348 348 347 348 351 351 349 348 352 351 346 344 344 341 344
348 349 348 349 348 348 349 349 347 345 344 344 347 348 346 350 349 348 347 347 346 346 346 347 343 346 345 346 346 347 346 349 351 352 352 352 350 352 352 347 345 344 343
346 348 347 348 348 348 348 348 349 345 346 345 345 346 347 345 349 349 350 350 352 352 346 346 346 346 345 345 345 346 345 346 347 350 351 352 352 353 353 352 352 347 345
346 349 348 348 348 348 347 346 349 350 346 347 349 347 347 347 347 347 350 349 351 351 349 345 346 346 346 346 345 346 346 344 347 343 349 349 350 353 353 353 352 348 348
345 348 349 347 345 345 347 346 348 349 349 346 346 346 346 349 350 348 350 350 348 348 346 345 344 346 345 346 345 347 350 348 349 345 342 350 350 348 350 353 353 352 350
345 347 349 348 347 345 346 348 348 349 348 348 347 345 344 344 349 347 347 348 347 351 349 345 345 346 347 347 346 347 347 347 347 350 346 346 348 351 350 351 353 352 353
346 346 347 348 348 345 345 346 346 349 348 347 347 344 344 344 347 347 346 344 346 348 348 348 348 346 347 348 348 349 346 346 350 349 344 346 347 347 352 353 351 352 352
344 344 346 346 346 345 344 344 344 348 348 346 345 345 345 345 346 348 347 347 346 346 346 347 347 348 347 347 347 347 349 347 351 347 348 349 346 349 351 353 352 352 352
340 340 343 346 346 345 344 344 344 348 347 346 345 344 346 345 344 346 347 347 347 347 347 346 346 347 346 347 348 348 350 348 346 351 350 349 349 351 351 351 355 353 354
337 337 339 342 347 346 346 344 344 347 346 345 345 344 344 345 346 347 347 347 345 344 344 346 347 347 347 348 350 350 349 347 349 348 351 351 352 352 349 350 349 348 351
336 335 336 336 339 346 347 347 345 345 345 345 345 344 343 344 346 347 347 346 346 347 347 347 348 347 347 347 347 348 347 346 346 346 345 346 351 352 352 352 353 351 351
334 333 333 333 334 338 343 344 344 343 343 343 343 341 340 341 343 344 342 341 342 343 346 348 349 348 349 349 348 347 347 348 347 350 349 351 348 349 350 351 351 350 349
331 330 329 330 330 332 335 339 341 342 342 342 342 341 341 340 339 339 340 340 340 341 343 345 347 348 349 348 348 349 349 350 352 353 350 349 348 350 350 350 350 349 351
329 327 326 325 325 328 330 331 333 336 336 335 336 336 337 337 338 337 336 336 335 335 335 336 340 341 340 344 346 347 349 351 351 350 351 349 351 352 350 349 350 350 350
328 327 326 324 322 323 324 325 325 327 329 325 325 327 330 328 330 331 333 332 330 332 331 332 332 333 331 336 339 341 344 347 350 351 352 353 350 350 351 350 353 352 350
325 325 325 323 319 321 321 321 319 318 317 317 317 318 318 318 318 319 319 320 324 326 329 327 333 328 325 328 337 338 339 342 344 346 348 348 350 352 350 350 353 354 354
321 321 320 318 317 316 317 317 315 314 312 312 312 312 313 314 314 315 316 317 322 325 326 324 323 319 319 319 322 329 326 330 335 341 345 345 338 342 344 344 347 352 353
319 318 319 317 315 314 314 313 312 310 309 309 309 310 310 310 311 312 312 313 316 317 319 318 317 315 315 314 315 315 319 318 320 323 326 327 327 331 329 331 332 336 337
319 319 318 317 315 314 313 311 310 308 307 307 308 307 307 308 308 309 309 310 311 311 313 314 313 311 310 309 309 308 310 310 313 314 316 316 319 320 322 322 322 323 323
317 316 315 314 312 312 312 311 309 308 307 307 307 307 306 306 306 307 308 309 308 309 308 309 309 309 309 308 305 305 305 306 307 308 308 310 313 316 320 321 320 322 328
315 314 314 313 311 310 310 309 307 306 306 306 306 305 306 305 305 305 305 306 306 306 307 307 306 305 306 305 304 304 304 305 306 306 307 309 312 315 315 318 321 324 326
314 313 313 313 311 309 308 307 305 305 305 305 305 305 305 305 304 303 304 304 303 304 305 304 304 304 304 301 300 300 300 301 302 304 310 311 313 314 315 317 318 320 321
313 313 313 312 310 309 307 306 304 304 304 304 304 304 304 304 303 303 302 299 301 300 299 299 300 302 299 297 297 298 299 300 301 307 308 309 310 310 311 312 314 316 318

GFSMW_925_thetae_096.txt.gz
Theta_e
346 346 346 347 347 346 348 350 350 352 352 351 349 349 349 350 348 350 352 352 352 351 352 349 351 351 351 352 352 348 350 345 345 345 343 342 344 345 345 345 346 346 346
347 347 347 347 348 349 348 349 351 353 352 351 350 349 349 350 350 350 352 352 351 352 352 351 350 351 350 352 353 353 347 345 348 345 345 345 342 342 343 344 344 347 345
349 349 348 348 348 350 351 351 351 353 352 351 351 349 352 351 351 352 352 351 352 351 353 352 351 351 352 349 352 352 352 345 349 352 349 347 346 343 341 344 344 347 346
349 349 348 349 348 349 351 352 352 353 353 353 350 349 350 350 349 351 351 351 352 350 351 353 352 353 350 351 353 351 351 354 348 349 351 354 355 348 345 342 342 345 345
348 349 349 349 349 349 351 352 353 353 351 352 351 349 347 349 348 351 353 353 353 352 351 353 353 354 350 354 354 354 354 350 350 348 351 354 353 355 348 344 342 343 344
348 348 348 349 350 349 350 351 353 354 352 352 352 352 351 348 349 351 351 352 352 353 352 353 353 354 352 352 352 355 354 354 353 352 352 351 351 351 349 347 346 344 345
348 348 350 350 350 350 350 351 353 353 352 352 351 352 351 350 350 350 348 351 351 350 353 353 352 352 353 352 351 350 353 353 351 353 350 351 351 353 353 350 348 346 346
348 348 350 348 350 351 351 350 352 353 353 352 353 353 353 347 349 350 350 349 351 350 352 350 350 352 352 353 354 350 349 350 350 352 353 349 350 351 352 353 352 349 347
351 349 350 350 351 350 350 348 346 351 353 352 352 352 353 352 349 350 349 350 349 353 351 350 349 350 351 352 353 349 352 353 352 351 352 350 348 349 350 352 353 352 352
353 351 349 351 349 347 344 343 351 349 352 351 351 350 348 348 348 350 349 350 353 354 351 351 350 350 350 352 353 350 351 353 352 349 350 350 346 348 348 349 349 351 351
353 351 351 351 351 348 344 343 346 347 352 351 351 349 349 349 349 348 349 350 352 354 351 350 350 351 350 350 351 351 351 353 351 352 351 351 350 347 346 348 349 348 348
347 348 350 350 351 350 346 344 344 344 344 351 349 347 349 349 349 349 349 351 350 350 351 353 351 349 351 352 352 351 351 352 351 349 350 351 347 349 348 347 348 348 349
343 344 347 348 349 347 346 345 345 346 349 347 348 348 345 347 348 350 349 350 351 350 349 350 350 350 352 351 351 353 353 351 350 350 349 350 349 350 346 346 346 344 345
341 340 341 346 347 348 349 348 347 345 345 345 344 343 343 344 344 349 350 351 352 351 349 350 350 350 354 353 353 353 354 352 351 350 350 349 349 351 352 352 351 351 351
343 339 337 338 338 345 350 349 349 348 348 345 344 344 344 344 343 346 350 351 351 352 352 353 354 354 354 352 354 352 352 352 351 351 351 351 350 350 349 350 350 352 351
341 338 334 335 334 335 341 347 347 346 347 344 344 342 345 342 344 344 347 348 348 349 351 352 353 353 352 350 348 348 352 353 353 353 354 353 352 350 348 349 350 350 352
339 336 333 332 332 330 334 336 339 343 343 342 340 341 340 340 339 339 339 342 343 344 344 346 349 343 340 340 345 346 350 353 354 354 353 353 348 350 351 351 350 348 349
333 333 329 328 325 325 329 330 334 336 336 335 334 334 334 334 334 336 336 336 337 341 341 341 341 331 327 335 338 340 346 351 353 353 353 354 353 353 351 352 351 351 352
335 331 329 325 322 322 322 322 321 323 324 323 324 326 326 326 328 331 333 334 335 337 338 339 335 326 324 331 336 340 344 348 350 349 349 349 348 347 348 349 353 353 353
332 332 326 321 319 317 318 318 315 314 315 316 316 317 319 319 320 322 322 326 328 333 334 334 327 321 319 321 327 330 331 335 339 345 341 339 336 339 341 342 343 348 350
328 326 324 322 319 316 317 314 314 313 312 312 312 312 312 313 315 316 317 322 325 328 328 327 325 321 319 315 316 322 323 321 326 331 331 329 322 322 322 325 329 335 330
325 323 321 317 315 316 318 314 312 311 310 310 310 311 313 312 314 316 316 318 320 321 323 323 320 318 316 310 308 308 310 310 314 315 317 316 318 320 320 322 324 322 323
324 323 323 322 320 317 315 314 312 312 312 311 311 311 312 313 314 314 313 314 315 315 315 316 316 315 314 312 308 307 305 307 310 312 307 307 308 310 314 322 318 320 330
323 322 321 320 318 317 316 315 313 313 312 312 312 311 312 312 311 311 311 312 312 312 313 313 313 311 311 307 304 303 306 307 309 307 311 312 314 316 317 318 320 321 323
322 321 320 319 318 316 315 313 311 311 311 311 310 310 310 310 310 309 309 310 306 307 310 310 310 310 310 303 299 299 300 302 303 306 312 313 314 314 315 316 316 318 319
321 320 320 318 317 315 313 311 310 309 309 309 309 309 309 309 309 308 305 303 302 301 301 301 305 304 300 298 298 299 299 300 304 310 310 310 311 312 312 313 314 314 315

GFSMW_925_thetae_099.txt.gz
Theta_e
343 344 344 344 345 347 347 347 349 350 352 351 348 348 348 347 347 351 351 352 351 352 353 350 350 350 350 351 348 349 350 343 342 349 343 342 344 346 345 347 348 348 346
346 345 344 344 344 346 347 349 350 354 353 351 350 349 348 348 347 351 351 352 351 353 352 352 351 352 350 352 352 353 351 342 344 347 346 344 344 344 344 345 346 348 345
347 346 345 344 345 347 347 349 350 354 352 352 350 354 352 351 351 352 351 352 352 352 354 354 353 351 353 351 352 349 350 347 343 350 352 352 353 343 344 345 346 347 345
345 347 346 346 345 349 350 350 350 353 353 351 350 350 349 347 351 351 351 353 352 351 352 353 353 355 351 353 353 349 352 348 345 344 348 351 354 357 346 342 345 345 346
347 349 346 346 345 348 350 351 352 352 353 352 353 351 351 349 350 351 352 351 353 352 350 352 353 354 352 352 355 354 355 348 352 346 347 352 348 348 349 349 343 345 344
348 349 345 347 347 348 351 351 354 353 353 353 353 353 352 352 350 349 351 350 353 352 352 353 353 354 355 355 353 354 354 356 354 354 349 349 351 351 349 347 346 346 345
347 348 348 348 349 349 351 352 355 355 354 354 352 351 352 353 352 353 349 349 350 351 355 353 353 353 355 354 353 354 355 354 354 355 352 346 349 349 350 349 348 345 346
348 347 349 349 350 350 350 352 355 355 354 353 353 352 351 349 349 352 352 350 350 349 355 354 353 353 354 353 352 350 350 350 351 352 354 353 348 349 349 350 349 354 345
349 349 349 351 353 352 352 353 356 355 354 353 353 354 353 352 352 353 353 353 353 353 353 351 351 351 352 353 353 350 350 353 354 353 353 351 348 346 349 350 349 349 354
352 350 353 352 350 349 355 350 350 351 354 354 353 353 353 352 350 351 352 352 352 354 354 351 351 351 351 352 354 351 349 351 352 350 349 352 348 347 346 347 348 348 348
354 356 353 352 354 353 352 348 353 351 351 354 353 353 352 350 351 350 349 351 352 354 353 354 353 352 352 352 353 352 352 355 352 352 354 351 352 349 347 348 348 347 347
356 354 352 354 353 352 347 348 344 347 347 352 350 353 350 351 351 350 350 349 352 353 354 354 354 354 353 353 354 354 351 353 352 351 350 351 349 350 349 347 346 347 348
354 354 354 355 355 351 349 348 347 344 343 343 346 351 351 351 352 351 351 350 350 353 352 353 352 352 352 354 355 355 354 352 352 351 351 350 350 349 348 349 348 347 346
348 349 351 352 352 352 352 350 349 346 344 347 347 346 346 345 344 344 348 350 350 351 352 352 353 353 353 350 354 354 354 353 351 351 351 351 350 351 350 350 351 349 348
347 344 345 345 348 352 351 350 348 348 349 349 348 347 342 342 344 344 345 347 351 351 351 351 352 353 352 352 352 354 354 355 354 353 353 352 351 350 351 351 351 352 352
347 344 339 339 339 343 352 351 351 349 348 350 349 348 348 349 348 347 343 348 349 350 352 352 354 353 351 346 349 350 353 353 354 353 353 353 353 352 350 346 345 348 352
344 342 340 337 335 333 338 344 349 349 350 348 348 347 346 346 346 346 344 346 346 347 349 350 350 346 346 345 346 346 346 352 353 354 353 354 350 350 353 353 351 350 348
341 340 336 331 328 328 331 334 339 340 340 339 340 341 340 340 340 342 340 338 341 345 345 346 342 333 328 336 339 340 343 350 353 353 354 354 354 350 350 350 350 352 352
339 338 333 329 324 325 326 326 328 329 329 331 330 333 335 336 336 337 341 340 341 343 344 343 339 332 325 331 336 340 345 349 350 348 347 348 343 343 344 345 351 352 352
336 334 329 324 322 320 323 323 320 321 321 321 322 325 324 326 329 332 333 334 337 340 340 336 334 326 323 324 329 332 332 340 339 348 342 336 332 333 335 337 340 347 349
334 330 326 322 319 318 317 316 315 314 314 314 315 315 318 319 321 322 321 327 330 335 335 334 330 326 323 320 316 322 323 324 327 328 328 328 328 323 323 323 324 334 330
330 330 328 325 320 318 316 314 314 313 311 312 312 312 313 315 318 320 321 322 324 328 330 330 328 325 321 314 312 308 310 311 315 319 320 321 319 318 313 315 322 324 321
329 326 324 322 320 321 321 315 312 311 310 310 310 311 313 314 316 318 318 318 319 321 323 322 322 321 319 317 312 307 306 308 309 316 311 308 311 313 315 318 317 321 325
328 326 326 324 322 319 318 317 317 316 315 315 315 312 312 313 314 314 316 316 316 317 317 317 317 317 316 312 307 306 307 309 310 309 311 314 315 317 317 320 321 321 321
327 326 324 324 322 321 320 318 316 315 315 315 314 314 314 312 315 314 312 312 311 310 310 315 315 315 315 308 302 300 301 302 305 308 315 315 316 316 317 317 317 318 318
326 325 324 324 322 321 319 317 315 315 315 314 314 313 313 313 313 312 308 307 304 303 306 305 308 306 304 301 299 299 301 302 307 312 312 313 313 313 313 313 314 315 315

GFSMW_925_thetae_102.txt.gz
Theta_e
341 342 345 346 346 346 346 346 346 348 347 351 350 348 347 349 351 348 351 353 351 351 354 351 346 351 350 346 347 350 352 346 345 348 344 343 345 347 346 348 349 348 351
343 343 345 345 346 347 347 345 352 351 350 349 350 350 348 349 350 353 350 350 351 350 353 352 353 348 352 349 351 351 353 344 344 348 353 355 348 346 346 346 348 348 345
345 347 346 344 346 348 350 348 349 353 349 351 350 350 348 350 350 350 352 351 350 351 352 354 349 352 352 352 351 351 355 352 344 342 354 357 354 346 344 344 347 345 346
347 347 345 345 345 348 349 353 350 352 352 351 351 351 350 346 350 350 350 351 351 350 350 352 351 351 342 346 354 351 350 355 351 343 347 345 350 358 356 345 346 348 347
347 345 345 344 346 346 347 349 352 353 351 351 350 350 350 350 352 350 350 350 352 351 351 351 352 352 351 351 347 354 353 354 355 355 349 346 353 349 351 355 345 346 346
343 345 345 344 349 349 350 352 353 352 353 352 352 350 352 351 351 346 349 351 352 352 351 350 352 352 344 345 354 353 352 354 351 353 356 347 344 342 339 354 351 350 344
347 347 347 347 349 352 351 353 355 355 354 352 352 352 352 353 353 347 350 349 350 350 352 352 351 352 352 353 353 353 354 354 353 354 353 347 342 342 347 355 347 350 349
350 348 348 346 352 353 355 356 355 356 355 352 352 350 351 352 351 353 352 347 350 347 351 351 351 352 352 351 351 351 347 353 352 352 352 351 353 349 349 351 343 351 347
348 350 347 348 349 348 352 345 356 355 356 354 353 353 354 351 352 352 355 354 350 347 349 352 352 350 353 349 352 349 350 351 349 350 354 348 348 350 349 348 348 351 348
348 347 347 345 339 340 346 354 355 355 353 354 354 354 354 353 352 353 354 352 351 345 340 345 351 351 350 350 350 352 352 351 346 352 353 351 351 350 349 351 348 352 349
353 350 347 350 343 340 350 357 355 355 355 354 354 353 354 353 352 351 350 351 352 348 350 352 352 351 350 350 351 351 350 351 351 349 350 351 351 347 346 346 343 347 348
352 348 349 350 353 354 355 354 350 348 349 353 354 354 349 350 351 350 350 350 351 352 352 353 352 353 352 352 353 353 352 352 353 352 351 351 348 351 351 350 351 350 349
357 355 355 357 357 355 353 354 351 349 349 352 349 348 352 352 352 350 345 349 351 350 353 353 352 349 351 352 352 351 353 352 352 352 352 351 351 349 349 348 348 349 348
357 359 358 357 355 355 352 349 349 348 346 344 344 344 347 346 350 347 348 350 350 349 351 350 351 351 353 353 353 354 352 352 353 352 351 351 352 350 351 350 350 350 350
351 354 351 351 354 355 353 352 351 350 348 346 347 347 345 345 342 343 343 343 343 348 350 350 350 352 351 352 351 350 352 351 353 353 353 353 352 351 351 351 351 349 348
349 346 345 347 344 349 353 352 350 349 349 349 348 348 349 347 344 344 343 344 344 346 348 347 350 352 349 346 348 348 350 351 352 352 352 352 352 352 351 349 349 346 345
346 345 342 340 337 336 343 345 353 350 350 350 350 348 348 349 349 347 346 345 344 344 344 348 349 347 343 343 344 346 348 347 348 350 351 350 352 351 350 351 349 349 350
343 341 338 334 329 331 335 340 347 347 347 347 348 347 347 345 345 344 344 341 343 344 345 346 339 336 331 335 338 339 343 344 349 352 354 355 351 347 346 347 348 350 347
341 338 335 330 325 327 330 334 336 336 335 335 338 339 340 340 340 341 343 342 340 340 343 343 338 336 330 331 334 338 339 348 350 344 345 346 342 339 340 340 343 348 350
335 332 328 326 323 322 326 327 326 328 326 326 327 330 334 335 335 334 335 337 339 342 341 339 335 328 329 326 329 332 332 335 333 342 338 330 329 327 327 327 327 333 340
333 329 325 323 320 321 323 321 321 320 321 323 324 323 324 325 326 327 327 330 333 337 337 334 332 328 325 320 317 321 326 326 326 325 324 327 326 322 319 317 319 324 326
332 329 325 321 320 319 319 317 316 314 314 314 314 315 316 317 319 323 324 325 328 332 333 332 331 328 324 318 314 310 310 312 314 318 319 315 313 312 313 313 315 317 318
332 330 327 323 320 318 317 316 315 315 314 313 313 312 313 314 316 318 317 317 321 323 326 328 327 324 320 316 313 309 307 309 310 312 312 309 313 315 319 319 320 321 322
330 328 326 325 323 323 323 316 312 311 312 312 313 310 311 313 314 316 317 317 319 318 318 318 318 320 319 316 313 306 304 308 310 309 310 315 316 317 317 319 320 319 319
330 328 327 326 324 322 319 320 320 319 319 318 317 317 317 313 314 313 312 313 313 313 312 314 315 315 313 312 312 304 302 302 303 309 314 316 315 315 315 315 314 316 315
329 328 327 326 324 324 322 320 319 318 318 316 316 314 315 314 316 314 310 309 310 307 307 308 310 310 309 306 302 301 301 304 307 312 314 314 314 313 312 312 311 311 310

GFSMW_925_thetae_105.txt.gz
Theta_e
340 345 345 345 343 345 346 348 347 346 347 348 349 348 348 348 349 349 350 350 350 351 353 351 340 343 350 350 350 351 352 347 346 349 345 346 345 345 347 349 349 348 348
340 344 346 346 343 344 347 348 347 347 348 349 349 348 349 349 349 349 350 353 349 350 353 351 349 349 348 352 349 350 355 350 344 349 352 343 344 345 347 348 349 349 349
342 344 346 346 346 347 347 348 347 346 347 349 349 348 349 349 349 352 350 350 349 349 351 350 349 350 348 350 351 354 354 354 352 348 352 349 349 346 345 346 347 347 346
343 343 345 346 347 346 344 347 348 346 346 349 350 347 348 348 349 348 349 351 350 350 350 350 346 348 345 336 351 353 353 353 353 353 351 348 352 349 344 344 346 344 346
345 343 343 346 347 348 346 345 348 345 347 348 350 350 348 346 349 348 348 347 351 352 350 351 352 351 345 348 351 351 353 352 353 353 350 348 346 346 347 346 344 346 347
348 345 345 345 349 350 351 348 348 347 352 352 350 349 350 350 350 349 349 350 349 349 352 349 351 352 349 348 349 354 354 354 353 352 350 344 342 341 347 344 342 340 343
347 346 344 344 346 348 353 353 350 350 352 351 349 349 352 350 350 345 347 350 350 349 351 350 351 349 348 342 346 351 352 353 353 352 350 348 349 342 341 348 348 338 340
348 348 342 345 347 349 351 351 355 351 352 353 353 352 351 349 351 351 351 346 348 345 348 349 351 349 351 352 351 347 348 350 352 350 354 351 346 351 349 347 340 337 342
348 348 348 347 349 351 354 354 354 353 353 351 352 349 352 351 351 352 351 350 346 340 348 349 350 351 352 351 351 350 348 349 349 349 350 352 352 351 350 350 348 349 344
346 347 349 347 350 350 353 355 354 353 353 353 352 353 353 351 353 352 349 351 349 345 349 348 350 349 350 350 348 351 351 351 350 342 353 352 350 350 344 345 344 348 348
344 347 348 347 344 346 348 350 353 354 354 355 352 351 350 349 352 351 351 351 349 347 339 342 349 349 351 349 351 350 349 348 350 348 350 349 347 350 350 349 351 349 350
342 347 347 345 345 341 345 338 340 352 354 354 353 351 341 352 350 350 350 350 349 350 350 350 351 352 352 351 351 352 352 353 351 350 351 350 349 347 350 349 349 349 348
346 347 347 346 345 344 344 345 343 353 351 353 351 350 349 344 351 350 349 348 349 352 353 353 351 350 350 351 351 352 351 350 351 351 351 351 351 352 349 348 347 350 350
348 347 346 346 345 346 352 352 352 352 351 350 348 347 347 348 349 350 349 344 348 349 349 350 351 350 350 352 352 351 350 350 350 351 352 351 350 350 350 350 349 351 349
353 349 347 350 348 352 352 351 349 348 347 345 343 343 344 345 344 345 345 345 344 343 347 350 351 351 349 347 349 348 349 349 350 352 351 351 351 351 350 349 350 351 348
348 347 345 346 346 350 350 350 350 350 348 344 345 346 345 345 344 341 342 343 343 343 344 346 348 348 347 346 345 346 348 350 351 350 349 350 351 351 350 349 349 348 348
343 343 341 337 337 341 348 350 350 349 348 347 348 348 348 347 348 347 346 346 343 342 343 343 343 344 341 340 342 342 345 347 347 349 349 350 349 349 348 347 348 347 348
342 337 334 331 332 336 342 348 351 350 350 351 350 348 348 346 345 344 343 341 344 344 343 343 339 337 333 335 337 340 343 345 350 349 350 349 348 344 342 343 344 348 350
337 333 330 327 328 331 335 340 344 345 346 344 345 345 344 342 342 342 343 341 340 342 343 340 339 335 332 331 333 335 345 348 343 342 343 339 332 330 330 332 332 337 343
330 328 327 325 327 328 332 335 332 334 332 333 335 338 338 337 337 337 339 339 339 342 341 336 337 333 332 328 329 331 330 333 335 337 334 329 326 323 322 322 322 325 327
327 326 325 323 324 326 328 327 327 326 327 329 330 331 332 332 331 330 332 334 337 338 336 335 332 328 324 321 320 320 321 324 324 323 324 324 324 320 316 317 319 318 317
326 323 321 320 321 324 327 323 323 322 322 324 323 322 324 325 325 325 326 328 333 334 334 332 331 328 323 319 316 311 312 310 312 316 318 316 310 312 315 318 319 320 322
327 324 322 321 320 320 321 318 315 315 314 314 314 315 315 315 317 315 317 316 324 326 327 328 328 327 322 317 316 312 307 309 310 311 309 309 315 317 318 318 321 321 323
328 324 322 320 319 318 317 317 315 314 312 312 312 312 312 314 316 317 318 318 318 318 319 319 319 322 315 315 314 310 303 303 305 305 314 316 317 318 316 316 316 315 314
327 326 325 323 322 323 319 312 311 311 313 313 312 312 311 313 313 313 313 314 313 312 312 314 314 316 314 311 312 310 304 302 304 313 314 314 314 314 313 311 311 310 310
329 328 326 324 322 319 319 320 320 320 320 318 317 316 316 315 313 313 311 312 312 311 308 308 311 311 310 308 305 303 301 303 306 313 314 314 313 312 311 310 309 308 308

GFSMW_925_thetae_108.txt.gz
Theta_e
340 345 347 346 345 345 346 343 345 348 347 348 348 346 347 349 348 350 348 349 350 350 351 348 339 346 347 350 350 351 349 344 346 348 346 345 343 345 345 349 349 347 348
341 345 345 345 346 346 346 344 345 346 346 347 347 347 348 349 348 348 350 349 349 349 349 349 345 345 347 349 351 353 352 352 353 349 348 340 344 344 346 346 349 349 348
344 344 343 343 345 347 347 347 344 345 347 348 348 348 348 348 348 350 350 350 349 350 349 348 348 347 346 348 351 352 353 351 350 350 351 345 344 345 344 346 347 348 348
344 344 343 342 346 346 345 346 345 347 349 348 348 348 348 348 348 348 348 349 347 349 350 349 344 347 344 337 349 350 353 351 350 351 350 348 348 346 343 345 346 346 345
344 344 344 343 346 347 346 346 347 347 347 348 347 347 347 347 348 348 348 349 349 351 349 349 349 348 346 348 348 350 350 352 350 349 345 345 344 344 344 342 338 345 345
343 343 344 344 345 348 348 347 347 346 344 348 349 349 347 346 348 348 348 347 347 350 353 351 351 347 345 347 348 352 352 352 350 350 344 343 340 343 345 340 338 339 338
346 343 342 345 346 347 348 347 348 346 345 349 350 348 348 349 349 349 346 349 348 349 350 350 351 348 346 343 340 351 350 351 349 351 352 348 348 339 341 347 346 337 337
346 345 343 345 347 349 348 347 348 346 350 351 349 349 350 350 348 345 346 350 349 348 348 348 350 350 348 351 350 350 347 350 349 349 350 351 352 350 349 347 342 337 339
348 346 343 346 347 349 351 349 348 348 351 350 348 350 350 349 350 350 351 349 347 346 347 349 347 350 348 349 350 351 349 349 350 348 345 350 352 349 348 348 345 348 344
346 346 346 348 349 350 351 354 350 349 351 350 352 351 349 350 350 351 349 350 348 346 342 349 348 349 349 351 351 350 349 350 350 349 347 351 349 350 350 349 349 349 346
345 347 347 350 350 351 352 351 353 352 351 351 352 350 351 352 352 351 348 347 348 347 346 349 344 348 349 351 351 349 350 349 348 348 348 348 350 347 349 349 350 348 350
344 347 346 346 346 346 341 342 349 352 352 352 351 352 352 351 351 352 351 351 348 348 345 343 349 350 350 351 350 349 350 348 350 349 349 349 351 348 349 348 347 347 348
345 346 346 343 344 343 342 339 347 347 349 350 350 350 348 345 350 350 350 349 349 349 350 351 350 350 351 351 351 351 351 351 350 350 350 350 350 350 350 349 348 348 349
347 346 345 344 344 344 344 344 345 345 348 347 349 349 348 345 347 348 348 348 349 348 348 350 352 351 350 349 349 350 348 348 349 349 350 350 351 351 349 349 350 349 350
346 346 346 344 344 345 347 344 346 348 346 348 348 348 347 346 346 346 347 346 345 346 346 349 349 351 350 347 343 345 346 348 343 348 349 349 349 348 347 348 348 349 350
347 346 345 346 346 346 346 348 350 349 349 346 344 344 344 345 344 343 342 342 343 343 344 344 348 349 347 345 345 343 345 348 349 348 347 344 343 348 347 346 347 349 348
348 345 342 344 346 346 345 341 345 348 346 345 344 345 344 345 345 344 344 344 344 343 343 344 344 341 340 339 340 342 344 346 348 347 347 347 347 347 346 345 347 347 346
340 338 333 333 336 339 345 346 348 348 347 347 346 347 347 347 346 345 344 343 343 344 342 337 333 331 332 336 337 339 342 342 346 347 347 346 343 339 339 340 343 347 345
335 332 331 331 331 333 336 343 348 348 349 349 349 348 347 345 344 342 339 340 343 342 341 338 336 335 334 332 333 340 345 344 342 343 339 333 329 328 329 328 330 334 333
329 327 328 328 330 333 337 338 336 341 341 343 345 345 344 342 341 341 340 340 341 342 340 338 336 333 333 330 330 331 335 338 335 332 331 330 328 325 325 325 323 320 319
326 326 326 325 326 329 332 333 331 331 332 334 337 338 338 338 336 336 337 337 341 340 337 335 332 328 323 321 319 320 325 327 326 325 325 323 320 317 314 313 315 317 322
324 324 324 323 325 327 329 327 327 326 329 330 331 329 328 328 328 330 331 336 337 335 333 331 326 322 319 317 317 315 310 312 315 317 318 315 311 315 319 319 319 320 322
323 323 322 321 321 323 325 323 320 321 322 322 321 321 319 320 318 323 323 328 331 333 332 331 327 322 317 316 312 304 305 308 309 310 308 310 315 316 318 320 320 320 317
323 322 320 319 318 320 320 319 315 314 314 313 314 313 315 316 317 317 318 318 320 321 321 320 324 322 316 315 313 312 307 302 303 306 316 317 317 316 314 314 313 312 311
323 324 324 322 321 319 316 315 313 312 311 311 310 310 312 313 314 313 314 314 315 315 315 315 316 321 316 314 311 309 308 303 308 315 315 313 312 311 310 310 309 308 307
325 325 324 322 322 321 316 313 313 317 317 316 314 314 313 312 311 312 312 312 312 311 310 308 311 311 310 306 305 302 302 302 308 313 313 312 310 309 308 308 306 306 305

GFSMW_925_thetae_111.txt.gz
Theta_e
344 346 346 344 345 344 344 345 345 346 346 347 347 347 347 347 347 348 348 349 348 346 347 347 342 347 349 349 352 350 348 347 347 347 346 345 344 343 345 345 347 348 348
344 347 346 345 345 343 343 343 344 347 346 346 346 347 347 348 347 349 348 349 347 349 347 347 346 345 348 348 350 351 349 351 350 349 344 339 343 344 344 345 346 347 349
345 347 345 345 344 342 342 343 346 346 346 347 346 346 348 348 348 347 348 348 348 348 349 346 347 345 346 348 349 351 349 351 350 351 349 344 342 342 344 345 345 346 347
344 346 344 344 344 344 345 342 347 345 346 346 347 346 347 348 348 348 348 349 350 344 349 348 346 345 344 347 349 348 350 349 350 347 347 347 348 344 341 344 345 345 346
344 345 343 343 344 346 346 344 345 346 347 347 347 346 347 347 347 346 347 348 349 347 347 347 343 348 345 347 349 349 348 349 348 344 345 344 343 342 343 340 339 343 346
343 343 342 342 345 346 347 346 345 346 348 347 347 347 346 347 347 347 348 347 348 349 349 349 349 349 346 347 347 350 351 349 349 347 346 345 340 341 343 339 337 340 339
344 343 341 341 346 347 347 346 346 346 348 347 346 347 347 347 346 347 347 347 347 347 349 351 350 349 347 345 342 350 349 350 349 350 348 348 342 341 344 346 344 339 336
343 343 343 342 345 347 347 347 347 347 346 345 347 348 348 346 346 348 348 346 348 346 348 349 350 349 347 347 345 349 347 349 350 348 350 350 349 348 347 346 343 340 341
347 344 343 343 344 345 347 347 346 346 346 345 348 349 348 348 349 348 345 346 349 349 347 348 348 350 348 349 350 350 348 348 348 349 345 350 349 348 346 347 345 346 341
348 345 342 344 345 346 346 346 346 346 345 345 350 348 348 350 349 349 349 349 348 346 345 347 348 349 349 348 349 351 350 349 349 349 344 350 348 349 349 349 348 348 347
348 347 344 346 346 347 348 347 347 347 347 348 350 348 349 349 350 350 350 348 349 347 345 344 349 348 349 349 350 349 349 350 348 346 348 347 349 348 348 348 349 347 348
346 346 347 348 347 348 349 350 350 349 348 349 350 351 351 350 351 351 350 347 347 347 344 344 348 342 347 350 350 350 350 350 348 347 347 348 349 350 349 349 347 346 348
346 346 346 347 347 347 348 350 350 351 350 351 349 348 347 348 348 350 350 350 350 348 348 348 348 350 351 351 351 350 350 350 351 350 349 349 350 350 349 349 348 347 348
346 346 345 343 344 344 343 343 341 344 348 349 348 348 347 345 342 346 346 347 347 348 348 349 350 351 350 349 349 348 349 349 348 349 349 349 349 350 349 348 347 349 349
347 347 345 343 343 344 343 343 342 344 345 346 347 344 343 347 345 343 345 347 346 346 346 348 349 349 349 349 347 344 346 347 347 345 347 347 345 345 345 343 343 345 348
345 344 345 344 343 344 345 343 344 345 346 345 347 344 344 346 346 345 346 345 344 344 343 344 346 346 347 347 345 344 343 345 346 345 347 347 345 344 346 346 345 346 348
346 345 344 344 344 344 347 348 347 346 347 346 346 345 346 345 345 343 342 341 342 342 343 344 344 344 342 341 339 340 342 345 346 347 347 346 344 345 345 344 346 346 346
340 339 336 340 342 344 345 344 343 344 346 345 344 344 343 343 344 345 345 344 344 343 343 341 336 332 332 335 336 337 340 340 345 345 347 345 344 341 338 338 342 344 339
333 332 331 332 335 335 336 342 343 342 343 345 344 345 345 346 346 344 342 342 343 342 339 334 331 332 331 331 335 342 343 344 342 339 335 332 330 328 325 326 329 331 322
327 329 328 330 331 331 333 339 340 340 340 338 344 346 347 346 344 341 339 341 342 339 334 332 331 330 331 331 330 334 340 338 335 330 327 327 325 325 326 325 323 322 321
325 327 327 325 326 329 332 332 331 329 331 336 338 343 343 340 340 340 339 340 341 338 333 331 328 323 320 318 319 324 329 331 331 329 326 323 322 318 316 315 315 319 322
324 324 324 323 326 328 330 326 325 326 329 332 332 333 333 332 333 334 334 338 340 336 332 329 322 318 315 316 314 313 311 317 322 321 320 316 312 314 317 318 320 322 319
323 324 323 322 322 325 326 325 321 324 324 327 327 327 328 327 328 328 329 335 334 332 330 327 324 321 318 315 310 304 304 308 309 310 308 308 315 317 319 319 319 317 316
323 323 323 321 320 321 321 320 318 317 318 318 317 317 319 318 318 319 320 327 328 328 328 326 326 324 320 317 314 313 309 303 303 307 315 316 315 316 314 313 312 311 310
321 321 319 318 317 317 317 316 315 314 313 312 312 312 313 313 314 314 315 316 316 318 317 316 317 323 321 318 314 311 308 303 310 313 314 313 312 311 310 309 308 307 307
321 322 322 322 321 317 313 311 311 312 313 311 311 312 311 311 311 311 311 311 311 311 310 310 312 316 317 316 310 305 303 302 312 314 312 310 310 309 307 307 306 305 305

GFSMW_925_thetae_114.txt.gz
Theta_e
343 344 344 343 344 344 346 347 348 348 346 346 345 346 346 346 344 346 346 346 347 344 347 344 344 347 348 351 349 347 349 348 346 347 345 345 344 343 343 343 345 347 348
343 344 344 343 344 346 346 346 346 347 346 345 345 346 345 346 346 347 347 347 347 346 346 345 344 347 346 350 350 349 349 349 347 348 341 344 342 344 343 344 344 345 345
345 344 344 344 344 344 345 345 346 345 345 345 345 346 346 346 347 348 347 348 347 346 348 347 346 345 346 348 349 349 349 349 349 349 347 348 347 342 344 345 345 345 346
344 345 345 343 343 344 343 344 346 346 345 345 345 346 347 347 347 346 345 347 348 347 348 348 346 345 344 348 348 349 348 348 348 346 345 346 347 348 347 344 345 345 345
343 346 344 344 344 343 343 343 344 345 346 346 345 345 346 347 346 347 347 348 349 346 348 348 345 346 341 347 349 347 347 347 345 343 344 344 342 341 344 348 341 340 342
342 345 345 344 343 343 343 343 343 346 346 346 346 346 345 346 347 347 346 347 347 348 347 348 346 348 345 346 348 349 349 347 347 346 346 345 341 341 342 343 339 341 341
342 344 344 342 342 344 344 345 344 346 346 347 347 346 346 346 346 346 346 347 347 347 348 349 348 349 347 346 344 349 349 350 348 349 347 347 339 342 346 345 343 340 339
342 344 343 341 343 344 345 346 344 345 346 347 347 346 346 346 346 346 346 347 347 347 346 348 350 349 349 345 343 348 347 348 349 347 348 348 347 347 346 345 343 348 344
344 343 341 341 343 344 345 346 345 345 345 346 347 347 348 347 346 346 348 346 345 347 347 347 349 350 349 348 348 350 347 347 347 347 347 349 349 348 346 346 344 345 350
345 343 342 341 342 345 344 345 345 345 345 346 345 345 347 348 348 348 348 347 347 348 347 346 347 349 349 348 348 349 350 349 348 348 343 348 348 348 349 349 348 347 346
347 344 343 342 342 343 345 345 346 345 345 345 345 346 349 347 349 348 348 348 348 347 346 346 344 348 348 348 348 349 349 349 348 347 347 347 347 347 347 348 348 347 347
344 345 343 344 343 344 345 346 346 346 345 345 345 347 348 348 349 349 350 348 347 346 346 345 346 348 344 347 348 349 349 349 349 348 346 347 348 349 348 348 348 347 346
345 345 345 345 345 346 346 346 346 346 345 346 346 349 348 349 349 350 349 348 347 347 347 345 342 345 346 348 349 349 349 349 349 349 349 348 349 349 349 349 348 348 346
346 347 346 346 346 346 347 348 347 347 347 347 348 348 349 349 348 342 341 343 346 347 347 347 349 349 350 349 350 349 347 347 348 350 349 349 349 348 350 348 347 347 348
346 346 345 344 345 345 345 346 347 347 348 349 349 348 346 346 344 344 343 342 343 345 345 345 346 346 348 348 348 347 345 346 346 348 348 348 348 347 345 344 344 344 344
345 345 344 343 343 343 343 343 342 341 345 348 348 347 343 342 343 343 345 342 342 345 345 344 344 345 346 346 347 346 344 342 344 346 346 347 346 345 344 344 345 344 345
345 344 342 343 343 343 343 343 343 341 343 345 345 345 344 345 344 344 344 345 344 343 342 342 342 343 343 342 342 340 340 342 344 346 346 345 344 343 340 343 343 344 343
343 339 338 339 340 343 346 346 345 344 344 344 344 345 345 344 344 345 344 343 342 342 342 342 342 338 334 335 336 335 337 338 339 343 340 342 343 340 338 338 342 341 335
333 332 332 333 334 337 341 344 344 344 344 344 345 345 345 344 344 344 343 343 343 343 340 336 331 328 330 332 336 338 339 340 339 341 339 338 335 334 328 328 334 328 326
328 328 328 329 331 332 337 342 343 344 343 344 344 344 344 344 343 343 340 341 342 340 333 328 327 328 327 329 331 335 340 338 331 325 325 326 324 324 323 323 323 321 322
326 327 326 325 327 329 332 331 334 332 336 340 336 338 343 344 342 339 339 341 339 336 332 330 327 324 320 319 321 327 332 331 331 330 327 325 323 320 319 318 317 318 322
325 325 324 324 326 327 329 325 325 328 330 331 336 334 335 332 336 337 338 339 338 334 330 328 321 318 317 317 314 313 313 319 324 323 322 320 315 314 316 317 319 321 319
323 324 323 321 322 325 326 325 324 327 328 328 328 329 333 328 328 331 334 338 335 332 328 324 322 320 319 314 309 305 304 306 309 311 310 308 312 316 318 319 319 317 316
322 322 322 320 318 319 320 319 320 321 321 319 318 319 320 322 324 324 329 331 331 330 328 326 325 323 320 316 314 312 308 304 303 305 311 313 315 317 316 314 312 311 310
321 320 317 317 317 318 317 315 315 314 314 313 313 313 314 314 314 315 315 319 323 323 323 320 320 322 321 319 315 311 308 302 309 314 315 313 312 310 310 309 309 308 307
320 320 319 318 315 315 313 311 311 311 309 309 310 310 310 310 311 311 311 312 312 312 312 312 313 317 318 318 315 307 305 303 310 312 311 311 310 308 307 307 306 305 304

GFSMW_925_thetae_117.txt.gz
Theta_e
346 346 347 346 346 346 346 346 347 346 347 349 349 349 346 349 347 344 345 344 346 346 346 344 344 346 350 350 348 350 354 353 348 351 349 349 347 347 344 345 348 349 351
347 346 346 346 346 346 347 347 346 347 346 348 348 348 349 349 348 347 346 346 345 344 346 345 343 346 347 350 348 349 353 353 351 352 348 349 348 348 348 345 345 349 348
348 348 347 346 346 346 347 347 348 348 348 347 346 345 346 345 348 349 348 346 345 347 347 346 345 345 345 352 349 349 350 353 350 349 352 351 350 350 349 350 348 346 349
346 348 347 346 346 346 347 348 348 348 346 346 348 346 348 349 348 346 348 349 347 345 346 346 346 345 344 348 351 351 350 351 353 350 349 348 354 352 351 349 349 348 349
345 347 347 346 346 346 346 347 348 347 348 346 347 346 345 349 347 348 345 348 347 347 347 348 346 346 342 347 348 348 347 350 349 350 350 350 348 348 350 350 348 346 345
344 345 345 346 346 346 346 345 347 347 346 346 345 345 344 345 349 346 350 349 350 349 345 347 346 345 346 344 350 348 348 349 346 348 349 350 349 348 348 349 350 349 349
344 346 348 347 346 346 346 346 346 348 348 348 348 346 345 345 345 345 347 348 347 347 348 346 347 347 347 345 346 348 349 351 353 347 351 349 344 346 351 351 351 350 349
343 345 347 346 346 346 347 346 346 347 349 349 348 346 346 349 349 349 348 350 350 350 347 347 347 347 348 347 345 347 352 350 353 349 348 354 349 348 351 351 349 351 351
344 345 346 346 346 346 346 346 346 347 349 349 350 349 347 347 349 346 346 349 347 350 346 347 347 348 350 348 347 349 349 348 349 350 347 351 354 350 350 349 348 349 349
344 345 346 345 346 347 347 347 347 347 348 349 350 349 350 347 347 346 347 347 346 345 348 348 346 348 350 350 349 350 352 350 351 350 348 346 352 352 352 351 350 350 350
345 345 345 344 345 347 347 348 349 349 348 349 349 349 349 348 348 348 349 348 347 348 347 346 346 347 349 349 349 348 349 351 352 350 348 351 351 350 351 351 352 351 351
346 345 344 343 344 346 347 348 349 349 349 349 350 346 345 348 349 349 350 348 348 347 348 346 345 347 349 348 349 351 350 350 350 349 349 351 350 351 347 351 351 351 351
347 347 344 344 345 345 346 348 348 349 349 349 350 348 345 348 351 350 349 349 348 347 347 346 344 348 348 347 350 349 351 351 350 351 352 352 351 351 348 347 349 351 350
348 349 347 344 345 346 348 348 348 346 348 349 350 350 350 351 351 350 348 345 344 345 347 347 347 348 349 353 351 348 348 348 350 347 351 352 351 350 351 347 348 349 347
348 349 350 349 346 346 347 349 347 346 349 348 350 351 347 349 350 348 343 341 341 344 344 346 345 348 348 348 348 348 349 349 350 350 347 348 347 347 347 346 346 343 343
349 349 349 347 345 345 346 347 349 347 347 350 351 348 348 348 348 344 343 342 343 342 344 345 344 344 344 345 345 345 345 344 345 349 351 347 345 344 344 344 342 344 345
348 348 347 345 344 344 343 344 344 344 345 348 348 347 347 346 343 343 344 344 344 343 344 344 344 342 340 343 342 342 340 340 343 346 351 344 344 343 343 342 342 342 342
343 344 344 342 342 344 344 344 342 341 342 343 342 346 345 343 342 343 344 344 343 344 344 343 342 342 341 341 336 336 337 339 339 340 344 344 340 339 340 337 339 337 330
334 333 334 336 337 341 345 344 344 344 344 343 344 344 344 344 344 342 344 344 343 343 342 342 340 336 333 332 335 337 336 337 337 336 338 340 340 338 335 332 337 327 326
331 330 329 330 333 336 341 343 345 345 344 344 344 344 344 344 343 343 343 342 342 342 339 332 324 325 325 330 332 336 336 334 328 327 327 329 326 326 324 323 328 328 328
329 327 327 327 328 331 335 339 339 340 341 342 341 340 340 342 342 342 342 341 339 334 324 321 321 325 324 323 325 329 332 332 331 329 325 322 324 323 322 321 320 326 325
328 328 327 324 326 327 329 327 328 332 336 336 336 336 337 338 338 338 338 338 335 327 325 321 320 320 318 319 315 314 315 320 326 327 322 323 320 316 317 317 317 319 321
327 326 324 323 322 325 327 324 324 327 327 326 327 328 332 334 335 335 335 335 333 331 325 322 319 317 316 311 309 307 304 305 311 311 311 309 311 315 318 319 319 317 316
327 326 324 320 319 318 320 321 322 325 326 323 322 324 327 328 328 330 327 330 329 328 326 324 322 321 319 315 313 312 309 307 309 308 310 312 315 317 317 314 315 313 312
323 322 323 321 319 317 315 314 314 315 316 315 314 314 315 319 319 318 319 323 324 327 326 325 325 324 321 319 316 313 309 304 305 313 314 314 313 312 311 311 311 309 309
322 321 319 317 316 315 314 312 311 312 313 313 313 311 310 310 310 310 311 312 312 312 312 313 314 317 319 319 317 314 308 307 306 313 315 315 314 314 313 312 309 307 307

GFSMW_925_thetae_120.txt.gz
Theta_e
346 347 347 346 345 345 346 348 349 350 350 350 349 348 348 349 348 348 351 351 352 353 354 349 350 353 353 355 356 354 355 351 353 349 348 348 347 346 347 348 348 349 349
347 347 348 347 346 346 347 349 349 350 352 350 350 349 347 348 348 348 350 350 353 353 353 353 350 354 352 357 357 356 351 351 353 350 347 347 345 344 346 348 349 350 350
347 348 348 348 347 347 347 348 350 350 350 350 350 350 351 349 350 350 349 350 351 352 354 353 352 354 351 352 357 357 355 350 354 357 352 348 348 347 348 350 350 353 351
346 347 348 348 347 347 348 347 349 351 349 350 350 350 347 347 349 350 349 350 351 351 353 353 353 354 351 353 354 355 357 354 352 352 352 355 356 350 350 349 349 350 351
345 347 347 347 347 348 348 348 350 352 351 353 351 348 347 347 348 349 351 350 352 352 350 354 354 353 349 352 356 356 358 354 351 350 352 353 350 352 350 349 349 348 348
346 346 346 347 347 347 348 348 350 352 350 353 348 350 348 349 349 349 349 349 349 350 353 353 354 353 352 352 353 356 356 357 355 352 352 350 349 348 349 348 349 349 348
347 347 348 347 348 348 348 349 349 351 351 353 351 348 348 349 348 348 348 349 349 350 351 353 353 352 354 353 352 356 356 355 355 356 352 352 349 349 350 349 347 348 348
348 347 347 347 348 348 348 349 349 350 350 351 349 350 349 349 348 348 349 348 349 349 349 350 351 351 353 353 354 350 351 351 353 355 355 351 351 350 351 351 349 348 346
347 348 346 347 348 349 349 349 349 350 349 349 351 352 352 351 350 351 351 349 350 350 351 352 352 351 351 351 352 350 351 353 354 352 354 352 347 350 348 349 349 347 346
347 349 347 348 349 349 349 349 349 349 349 349 350 351 351 352 352 352 353 352 352 352 353 354 353 353 353 353 354 351 352 353 351 350 350 353 348 350 350 349 348 348 347
348 348 347 348 349 349 349 350 350 349 349 349 350 350 350 351 352 352 354 354 355 355 355 355 355 354 353 354 355 354 352 353 352 352 352 352 352 350 347 347 347 347 348
348 346 348 348 349 349 349 351 350 350 350 349 350 352 351 352 351 352 352 354 354 354 355 355 354 353 354 354 354 354 351 352 352 351 351 351 349 351 352 349 349 349 350
349 348 348 350 349 348 350 350 351 351 351 351 352 352 352 352 351 352 353 354 354 354 353 353 353 353 353 353 353 353 352 352 352 351 351 351 351 351 351 350 350 350 350
350 347 346 347 347 346 347 350 351 351 352 352 352 352 352 351 352 352 353 354 353 354 353 354 353 352 351 352 353 352 352 352 351 352 351 351 351 352 352 351 352 346 350
350 350 347 345 345 346 347 350 351 352 352 352 352 352 352 352 353 352 353 353 352 351 351 351 351 352 353 352 354 353 352 352 352 352 352 350 351 350 348 349 347 345 350
349 351 350 347 345 346 347 347 351 353 351 350 349 351 353 353 353 351 353 352 350 350 350 349 350 351 349 346 344 344 347 350 351 351 351 352 346 346 345 344 343 344 344
351 349 350 349 348 346 346 346 350 351 350 348 348 351 352 351 351 351 352 349 345 348 348 349 349 346 342 341 342 342 342 345 347 349 351 352 346 345 346 342 342 342 342
350 350 349 349 344 344 345 344 344 347 350 348 348 349 347 349 350 347 344 343 344 345 345 345 346 344 342 340 339 340 339 342 347 345 349 351 344 340 340 339 338 337 337
339 338 339 342 345 343 343 343 342 343 342 343 344 345 343 346 346 343 342 342 343 344 343 342 341 340 337 338 338 336 340 340 337 336 336 338 338 338 337 337 342 332 328
333 333 333 336 338 342 346 344 342 343 344 343 344 344 345 345 344 344 344 343 344 342 341 339 335 332 330 329 334 337 341 341 339 335 330 332 330 328 326 330 336 336 334
330 330 328 328 330 335 340 345 346 345 344 344 343 342 340 341 343 343 342 342 340 338 335 332 329 327 323 322 328 331 336 337 338 336 334 330 326 324 322 322 330 333 334
331 330 328 325 325 328 332 330 331 334 337 338 337 337 338 339 339 339 337 333 332 332 324 328 326 324 321 317 313 315 320 323 331 334 332 328 325 323 320 319 323 319 321
329 326 325 323 323 325 326 326 326 329 331 333 332 331 333 335 335 335 335 335 332 330 326 324 323 317 313 311 309 308 306 306 316 318 316 312 312 314 317 317 319 320 323
331 327 327 324 320 320 323 323 325 326 327 325 325 326 326 327 330 332 331 331 330 328 325 322 320 318 317 315 314 312 312 311 316 316 314 314 316 319 319 317 318 319 319
328 329 326 324 321 319 319 319 319 319 316 317 318 317 319 321 323 325 325 326 325 327 326 325 325 324 322 322 320 316 313 309 308 312 316 317 318 318 319 318 316 314 313
323 322 320 318 317 317 318 318 317 317 316 315 314 313 311 312 312 313 313 314 316 316 316 316 317 318 319 319 319 317 312 309 309 314 318 319 318 317 317 317 315 315 312

GFSMW_925_thetae_123.txt.gz
Theta_e
345 345 344 343 342 344 345 346 347 350 350 349 347 348 347 347 346 348 351 351 350 352 355 349 352 351 354 354 352 352 354 349 348 347 345 346 345 345 346 345 345 348 346
345 346 344 343 343 344 346 347 348 351 351 349 349 348 346 348 347 348 349 350 351 353 352 354 350 351 351 354 355 355 354 349 350 354 347 348 344 342 343 345 346 346 347
346 347 345 344 344 345 346 348 349 352 352 351 350 352 351 352 348 348 349 350 352 353 354 354 354 354 352 355 355 357 354 353 349 350 353 355 355 347 343 345 346 349 348
345 345 346 346 344 346 346 348 350 351 352 353 350 349 350 347 345 348 351 350 351 352 352 353 354 355 354 353 353 352 356 351 354 348 348 353 353 353 354 338 342 349 349
346 346 345 346 345 346 348 347 350 352 351 351 351 352 349 348 350 348 352 351 352 352 350 353 354 355 351 352 357 356 355 356 351 349 351 351 349 348 348 350 347 345 347
346 345 345 346 347 346 348 348 350 352 353 352 351 352 349 350 349 349 352 350 350 351 351 352 354 355 353 354 354 355 356 357 358 354 351 348 349 348 348 348 348 349 347
346 345 346 346 348 348 348 348 350 352 352 354 351 352 352 351 352 353 349 349 348 349 352 353 355 354 355 355 354 356 356 356 355 358 354 350 348 348 347 347 346 347 345
347 346 347 346 350 349 348 349 350 351 351 352 351 352 351 351 350 352 349 349 349 348 352 355 353 353 355 354 355 353 352 348 351 354 355 353 349 349 347 347 346 347 344
349 348 346 345 349 349 349 350 350 351 351 351 351 352 352 351 349 350 352 352 352 351 353 353 354 354 353 353 353 353 351 352 354 351 352 354 347 343 345 345 344 344 345
351 350 347 346 347 348 350 350 351 352 351 349 350 351 351 352 352 353 354 352 351 355 354 355 354 355 354 354 354 352 352 352 352 351 350 351 349 348 348 346 346 346 347
346 348 349 346 347 349 349 351 351 351 351 350 350 350 351 352 353 352 354 354 355 355 355 355 354 356 355 355 355 353 355 354 354 353 352 354 353 351 347 349 349 346 344
347 350 349 348 348 350 350 351 351 351 351 349 350 351 351 351 351 352 351 355 355 354 354 357 356 356 356 355 355 356 353 353 353 354 353 352 351 352 354 349 347 351 352
350 349 350 351 350 351 351 350 352 352 351 350 350 351 352 353 353 352 353 353 354 356 354 355 356 355 355 355 355 355 355 354 353 352 351 351 351 351 350 351 351 350 351
351 349 349 350 352 352 353 352 352 352 352 351 350 350 351 351 352 352 353 353 352 354 353 354 354 354 353 353 354 354 354 354 353 353 354 354 352 351 351 352 351 351 345
350 349 349 346 348 353 353 353 354 353 353 353 353 352 351 352 352 353 352 351 352 353 351 351 352 353 353 352 353 354 354 353 353 353 353 353 353 352 349 350 348 347 346
351 351 350 348 345 349 350 349 349 354 354 355 355 354 354 354 353 354 354 355 354 353 352 350 351 350 350 348 350 348 349 351 351 352 352 352 351 347 346 346 347 349 346
350 350 353 346 346 346 348 349 350 350 353 353 354 353 353 354 354 353 352 354 353 352 352 351 349 350 350 346 343 342 342 348 349 350 351 352 351 348 350 343 342 342 341
351 345 349 350 346 345 345 346 347 350 351 352 353 354 354 354 354 352 353 352 352 349 347 346 347 347 346 343 340 340 341 343 347 346 346 351 350 346 344 346 343 339 337
337 337 341 347 346 346 345 344 343 344 348 350 350 351 348 348 348 349 349 349 349 348 345 345 344 344 341 340 338 338 342 342 339 336 336 337 340 340 338 338 340 339 335
332 333 333 339 343 344 343 342 342 341 343 342 343 345 347 347 347 347 348 346 344 344 343 343 338 336 331 333 334 337 340 341 340 338 335 334 334 334 337 335 342 341 339
331 329 327 328 330 337 344 344 343 342 341 343 343 342 343 340 339 342 343 342 341 337 331 326 325 325 328 329 330 332 336 337 340 340 337 328 328 324 323 323 333 337 337
331 329 326 323 325 330 336 334 334 340 342 341 340 339 338 339 338 339 337 335 332 330 326 325 321 323 321 324 322 325 317 318 330 335 334 331 328 325 323 322 324 328 328
329 328 324 322 323 325 327 326 328 332 333 334 333 334 336 337 337 335 333 331 330 327 324 323 323 322 323 321 317 314 310 308 316 318 318 316 312 314 318 317 318 318 321
330 329 325 323 321 322 324 325 326 328 330 328 328 329 329 331 333 333 332 331 330 327 325 324 324 322 322 321 317 316 315 315 317 320 319 313 312 316 321 318 319 323 324
330 329 327 324 323 322 321 320 321 324 323 323 323 325 326 327 326 326 326 328 328 328 326 325 325 325 324 323 319 316 314 312 312 311 320 320 320 320 321 321 322 321 319
327 324 321 320 320 320 320 319 320 319 318 316 316 317 318 317 316 318 318 319 318 319 321 321 321 320 321 321 319 318 315 312 311 312 317 320 321 321 320 320 319 319 317